<?xml version="1.0" encoding="UTF-8" standalone="no" ?>
<gpx xmlns="http://www.topografix.com/GPX/1/1" xmlns:xsi="http://www.w3.org/2001/XMLSchema-instance" xsi:schemaLocation="http://www.topografix.com/GPX/1/1 http://www.topografix.com/GPX/1/1/gpx.xsd" version="1.1" creator="VisuGPX - https://www.visugpx.com">
  <metadata>
    <name>Ecancourt Cergy le Haut</name>
  </metadata>
  <trk>
    <name><![CDATA[Ecancourt Cergy le Haut_1]]></name>
    <trkseg>
      <trkpt lat="49.0074" lon="2.01572">
        <ele>118.9</ele>
        <time>2022-04-14T11:59:42Z</time>
      </trkpt>
      <trkpt lat="49.00746" lon="2.01577">
        <ele>118.4</ele>
        <time>2022-04-14T11:59:48Z</time>
      </trkpt>
      <trkpt lat="49.0075" lon="2.0157">
        <ele>118.5</ele>
        <time>2022-04-14T11:59:54Z</time>
      </trkpt>
      <trkpt lat="49.00749" lon="2.01569">
        <ele>118.6</ele>
        <time>2022-04-14T12:00:00Z</time>
      </trkpt>
      <trkpt lat="49.00747" lon="2.01568">
        <ele>118.7</ele>
        <time>2022-04-14T12:00:06Z</time>
      </trkpt>
      <trkpt lat="49.00746" lon="2.01559">
        <ele>119.1</ele>
        <time>2022-04-14T12:00:11Z</time>
      </trkpt>
      <trkpt lat="49.00745" lon="2.01555">
        <ele>119.4</ele>
        <time>2022-04-14T12:00:17Z</time>
      </trkpt>
      <trkpt lat="49.00743" lon="2.01557">
        <ele>119.5</ele>
        <time>2022-04-14T12:00:24Z</time>
      </trkpt>
      <trkpt lat="49.0074" lon="2.01559">
        <ele>119.6</ele>
        <time>2022-04-14T12:00:30Z</time>
      </trkpt>
      <trkpt lat="49.0074" lon="2.01556">
        <ele>119.7</ele>
        <time>2022-04-14T12:00:36Z</time>
      </trkpt>
      <trkpt lat="49.00738" lon="2.01544">
        <ele>120.5</ele>
        <time>2022-04-14T12:00:42Z</time>
      </trkpt>
      <trkpt lat="49.00735" lon="2.01536">
        <ele>121.1</ele>
        <time>2022-04-14T12:00:48Z</time>
      </trkpt>
      <trkpt lat="49.00734" lon="2.01524">
        <ele>121.7</ele>
        <time>2022-04-14T12:00:54Z</time>
      </trkpt>
      <trkpt lat="49.00733" lon="2.01515">
        <ele>122.1</ele>
        <time>2022-04-14T12:01:00Z</time>
      </trkpt>
      <trkpt lat="49.00732" lon="2.01504">
        <ele>122.5</ele>
        <time>2022-04-14T12:01:06Z</time>
      </trkpt>
      <trkpt lat="49.00729" lon="2.01495">
        <ele>122.9</ele>
        <time>2022-04-14T12:01:12Z</time>
      </trkpt>
      <trkpt lat="49.00728" lon="2.01487">
        <ele>123.3</ele>
        <time>2022-04-14T12:01:18Z</time>
      </trkpt>
      <trkpt lat="49.00728" lon="2.01479">
        <ele>123.6</ele>
        <time>2022-04-14T12:01:23Z</time>
      </trkpt>
      <trkpt lat="49.00725" lon="2.01466">
        <ele>124.1</ele>
        <time>2022-04-14T12:01:29Z</time>
      </trkpt>
      <trkpt lat="49.00722" lon="2.01456">
        <ele>124.6</ele>
        <time>2022-04-14T12:01:35Z</time>
      </trkpt>
      <trkpt lat="49.00721" lon="2.01447">
        <ele>124.9</ele>
        <time>2022-04-14T12:01:40Z</time>
      </trkpt>
      <trkpt lat="49.00723" lon="2.01436">
        <ele>125.3</ele>
        <time>2022-04-14T12:01:46Z</time>
      </trkpt>
      <trkpt lat="49.00723" lon="2.01431">
        <ele>125.5</ele>
        <time>2022-04-14T12:01:51Z</time>
      </trkpt>
      <trkpt lat="49.00721" lon="2.01425">
        <ele>125.7</ele>
        <time>2022-04-14T12:01:57Z</time>
      </trkpt>
      <trkpt lat="49.00721" lon="2.01416">
        <ele>126.1</ele>
        <time>2022-04-14T12:02:02Z</time>
      </trkpt>
      <trkpt lat="49.00718" lon="2.01404">
        <ele>126.7</ele>
        <time>2022-04-14T12:02:08Z</time>
      </trkpt>
      <trkpt lat="49.00716" lon="2.01394">
        <ele>127.2</ele>
        <time>2022-04-14T12:02:14Z</time>
      </trkpt>
      <trkpt lat="49.00716" lon="2.01386">
        <ele>127.6</ele>
        <time>2022-04-14T12:02:19Z</time>
      </trkpt>
      <trkpt lat="49.00715" lon="2.01378">
        <ele>128.1</ele>
        <time>2022-04-14T12:02:25Z</time>
      </trkpt>
      <trkpt lat="49.00711" lon="2.01372">
        <ele>128.8</ele>
        <time>2022-04-14T12:02:30Z</time>
      </trkpt>
      <trkpt lat="49.0071" lon="2.01369">
        <ele>129</ele>
        <time>2022-04-14T12:02:35Z</time>
      </trkpt>
      <trkpt lat="49.00712" lon="2.01363">
        <ele>129.3</ele>
        <time>2022-04-14T12:02:41Z</time>
      </trkpt>
      <trkpt lat="49.00711" lon="2.01354">
        <ele>129.9</ele>
        <time>2022-04-14T12:02:47Z</time>
      </trkpt>
      <trkpt lat="49.00713" lon="2.01345">
        <ele>130.5</ele>
        <time>2022-04-14T12:02:52Z</time>
      </trkpt>
      <trkpt lat="49.00717" lon="2.01333">
        <ele>131.3</ele>
        <time>2022-04-14T12:02:58Z</time>
      </trkpt>
      <trkpt lat="49.00722" lon="2.01325">
        <ele>132.2</ele>
        <time>2022-04-14T12:03:04Z</time>
      </trkpt>
      <trkpt lat="49.00726" lon="2.01316">
        <ele>133.3</ele>
        <time>2022-04-14T12:03:09Z</time>
      </trkpt>
      <trkpt lat="49.0073" lon="2.01307">
        <ele>134.2</ele>
        <time>2022-04-14T12:03:15Z</time>
      </trkpt>
      <trkpt lat="49.00734" lon="2.01301">
        <ele>134.5</ele>
        <time>2022-04-14T12:03:20Z</time>
      </trkpt>
      <trkpt lat="49.00739" lon="2.01296">
        <ele>134.6</ele>
        <time>2022-04-14T12:03:26Z</time>
      </trkpt>
      <trkpt lat="49.00741" lon="2.0129">
        <ele>135</ele>
        <time>2022-04-14T12:03:31Z</time>
      </trkpt>
      <trkpt lat="49.00745" lon="2.01284">
        <ele>135.1</ele>
        <time>2022-04-14T12:03:37Z</time>
      </trkpt>
      <trkpt lat="49.00749" lon="2.01274">
        <ele>135.5</ele>
        <time>2022-04-14T12:03:43Z</time>
      </trkpt>
      <trkpt lat="49.00753" lon="2.01266">
        <ele>136.1</ele>
        <time>2022-04-14T12:03:48Z</time>
      </trkpt>
      <trkpt lat="49.00756" lon="2.01257">
        <ele>136.7</ele>
        <time>2022-04-14T12:03:54Z</time>
      </trkpt>
      <trkpt lat="49.0076" lon="2.0125">
        <ele>136.9</ele>
        <time>2022-04-14T12:03:59Z</time>
      </trkpt>
      <trkpt lat="49.00768" lon="2.01243">
        <ele>136.3</ele>
        <time>2022-04-14T12:04:05Z</time>
      </trkpt>
      <trkpt lat="49.00772" lon="2.01236">
        <ele>136.1</ele>
        <time>2022-04-14T12:04:10Z</time>
      </trkpt>
      <trkpt lat="49.00778" lon="2.01227">
        <ele>135.9</ele>
        <time>2022-04-14T12:04:16Z</time>
      </trkpt>
      <trkpt lat="49.00783" lon="2.0122">
        <ele>135.3</ele>
        <time>2022-04-14T12:04:21Z</time>
      </trkpt>
      <trkpt lat="49.00788" lon="2.01209">
        <ele>134.6</ele>
        <time>2022-04-14T12:04:27Z</time>
      </trkpt>
      <trkpt lat="49.00793" lon="2.01199">
        <ele>133.9</ele>
        <time>2022-04-14T12:04:33Z</time>
      </trkpt>
      <trkpt lat="49.00797" lon="2.0119">
        <ele>133.4</ele>
        <time>2022-04-14T12:04:39Z</time>
      </trkpt>
      <trkpt lat="49.00803" lon="2.01181">
        <ele>133.3</ele>
        <time>2022-04-14T12:04:45Z</time>
      </trkpt>
      <trkpt lat="49.00809" lon="2.01174">
        <ele>133.1</ele>
        <time>2022-04-14T12:04:51Z</time>
      </trkpt>
      <trkpt lat="49.00814" lon="2.01169">
        <ele>132.9</ele>
        <time>2022-04-14T12:04:56Z</time>
      </trkpt>
      <trkpt lat="49.00819" lon="2.01165">
        <ele>132.6</ele>
        <time>2022-04-14T12:05:02Z</time>
      </trkpt>
      <trkpt lat="49.00825" lon="2.01158">
        <ele>132.2</ele>
        <time>2022-04-14T12:05:07Z</time>
      </trkpt>
      <trkpt lat="49.00832" lon="2.01152">
        <ele>131.7</ele>
        <time>2022-04-14T12:05:12Z</time>
      </trkpt>
      <trkpt lat="49.00838" lon="2.01143">
        <ele>131.7</ele>
        <time>2022-04-14T12:05:18Z</time>
      </trkpt>
      <trkpt lat="49.00844" lon="2.01137">
        <ele>131.8</ele>
        <time>2022-04-14T12:05:23Z</time>
      </trkpt>
      <trkpt lat="49.00851" lon="2.01132">
        <ele>131.9</ele>
        <time>2022-04-14T12:05:28Z</time>
      </trkpt>
      <trkpt lat="49.00861" lon="2.01125">
        <ele>132</ele>
        <time>2022-04-14T12:05:34Z</time>
      </trkpt>
      <trkpt lat="49.00868" lon="2.01116">
        <ele>132.2</ele>
        <time>2022-04-14T12:05:40Z</time>
      </trkpt>
      <trkpt lat="49.00871" lon="2.01109">
        <ele>132.4</ele>
        <time>2022-04-14T12:05:45Z</time>
      </trkpt>
      <trkpt lat="49.00876" lon="2.01103">
        <ele>132.5</ele>
        <time>2022-04-14T12:05:51Z</time>
      </trkpt>
      <trkpt lat="49.00883" lon="2.01098">
        <ele>132.3</ele>
        <time>2022-04-14T12:05:57Z</time>
      </trkpt>
      <trkpt lat="49.00889" lon="2.01096">
        <ele>132.1</ele>
        <time>2022-04-14T12:06:03Z</time>
      </trkpt>
      <trkpt lat="49.00891" lon="2.01093">
        <ele>132.2</ele>
        <time>2022-04-14T12:06:08Z</time>
      </trkpt>
      <trkpt lat="49.00894" lon="2.01089">
        <ele>132.4</ele>
        <time>2022-04-14T12:06:13Z</time>
      </trkpt>
      <trkpt lat="49.00902" lon="2.01081">
        <ele>132.7</ele>
        <time>2022-04-14T12:06:19Z</time>
      </trkpt>
      <trkpt lat="49.00908" lon="2.01075">
        <ele>132.7</ele>
        <time>2022-04-14T12:06:24Z</time>
      </trkpt>
      <trkpt lat="49.00914" lon="2.01065">
        <ele>132.8</ele>
        <time>2022-04-14T12:06:32Z</time>
      </trkpt>
      <trkpt lat="49.00917" lon="2.01058">
        <ele>132.9</ele>
        <time>2022-04-14T12:06:38Z</time>
      </trkpt>
      <trkpt lat="49.00922" lon="2.01047">
        <ele>133.7</ele>
        <time>2022-04-14T12:06:46Z</time>
      </trkpt>
      <trkpt lat="49.00927" lon="2.01028">
        <ele>135.2</ele>
        <time>2022-04-14T12:06:56Z</time>
      </trkpt>
      <trkpt lat="49.00926" lon="2.0102">
        <ele>135.9</ele>
        <time>2022-04-14T12:07:01Z</time>
      </trkpt>
      <trkpt lat="49.01026" lon="2.01201">
        <ele>127.7</ele>
        <time>2022-04-14T12:09:43Z</time>
      </trkpt>
      <trkpt lat="49.01098" lon="2.01108">
        <ele>129.7</ele>
        <time>2022-04-14T12:09:48Z</time>
      </trkpt>
      <trkpt lat="49.01129" lon="2.00989">
        <ele>133.4</ele>
        <time>2022-04-14T12:09:53Z</time>
      </trkpt>
      <trkpt lat="49.01149" lon="2.00911">
        <ele>136.4</ele>
        <time>2022-04-14T12:09:59Z</time>
      </trkpt>
      <trkpt lat="49.01162" lon="2.00869">
        <ele>134.8</ele>
        <time>2022-04-14T12:10:05Z</time>
      </trkpt>
      <trkpt lat="49.01169" lon="2.00848">
        <ele>133.3</ele>
        <time>2022-04-14T12:10:10Z</time>
      </trkpt>
      <trkpt lat="49.01175" lon="2.00834">
        <ele>132.1</ele>
        <time>2022-04-14T12:10:16Z</time>
      </trkpt>
      <trkpt lat="49.01179" lon="2.00824">
        <ele>131.5</ele>
        <time>2022-04-14T12:10:21Z</time>
      </trkpt>
      <trkpt lat="49.01184" lon="2.00815">
        <ele>130.9</ele>
        <time>2022-04-14T12:10:26Z</time>
      </trkpt>
      <trkpt lat="49.01187" lon="2.00806">
        <ele>130.5</ele>
        <time>2022-04-14T12:10:31Z</time>
      </trkpt>
      <trkpt lat="49.01192" lon="2.00796">
        <ele>130.2</ele>
        <time>2022-04-14T12:10:37Z</time>
      </trkpt>
      <trkpt lat="49.01196" lon="2.00788">
        <ele>129.9</ele>
        <time>2022-04-14T12:10:42Z</time>
      </trkpt>
      <trkpt lat="49.01199" lon="2.00778">
        <ele>129.9</ele>
        <time>2022-04-14T12:10:48Z</time>
      </trkpt>
      <trkpt lat="49.01201" lon="2.00772">
        <ele>130</ele>
        <time>2022-04-14T12:10:53Z</time>
      </trkpt>
      <trkpt lat="49.01205" lon="2.0077">
        <ele>130</ele>
        <time>2022-04-14T12:10:58Z</time>
      </trkpt>
      <trkpt lat="49.01212" lon="2.00767">
        <ele>130</ele>
        <time>2022-04-14T12:11:04Z</time>
      </trkpt>
      <trkpt lat="49.01219" lon="2.00765">
        <ele>130</ele>
        <time>2022-04-14T12:11:10Z</time>
      </trkpt>
      <trkpt lat="49.01227" lon="2.00761">
        <ele>130.4</ele>
        <time>2022-04-14T12:11:16Z</time>
      </trkpt>
      <trkpt lat="49.01235" lon="2.00756">
        <ele>131</ele>
        <time>2022-04-14T12:11:21Z</time>
      </trkpt>
      <trkpt lat="49.01244" lon="2.00748">
        <ele>131.9</ele>
        <time>2022-04-14T12:11:27Z</time>
      </trkpt>
      <trkpt lat="49.01251" lon="2.00742">
        <ele>132.6</ele>
        <time>2022-04-14T12:11:32Z</time>
      </trkpt>
      <trkpt lat="49.01257" lon="2.00735">
        <ele>133.4</ele>
        <time>2022-04-14T12:11:38Z</time>
      </trkpt>
      <trkpt lat="49.0126" lon="2.00728">
        <ele>134</ele>
        <time>2022-04-14T12:11:44Z</time>
      </trkpt>
      <trkpt lat="49.01263" lon="2.00723">
        <ele>134.4</ele>
        <time>2022-04-14T12:11:49Z</time>
      </trkpt>
      <trkpt lat="49.01268" lon="2.00717">
        <ele>135</ele>
        <time>2022-04-14T12:11:55Z</time>
      </trkpt>
      <trkpt lat="49.01272" lon="2.00715">
        <ele>135.3</ele>
        <time>2022-04-14T12:12:00Z</time>
      </trkpt>
      <trkpt lat="49.01276" lon="2.00714">
        <ele>135.5</ele>
        <time>2022-04-14T12:12:06Z</time>
      </trkpt>
      <trkpt lat="49.01277" lon="2.00714">
        <ele>135.6</ele>
        <time>2022-04-14T12:12:11Z</time>
      </trkpt>
      <trkpt lat="49.01279" lon="2.00714">
        <ele>135.7</ele>
        <time>2022-04-14T12:12:17Z</time>
      </trkpt>
      <trkpt lat="49.01282" lon="2.00718">
        <ele>135.8</ele>
        <time>2022-04-14T12:12:23Z</time>
      </trkpt>
      <trkpt lat="49.01286" lon="2.0072">
        <ele>136.1</ele>
        <time>2022-04-14T12:12:29Z</time>
      </trkpt>
      <trkpt lat="49.0129" lon="2.00717">
        <ele>136.6</ele>
        <time>2022-04-14T12:12:35Z</time>
      </trkpt>
      <trkpt lat="49.01294" lon="2.00715">
        <ele>137.2</ele>
        <time>2022-04-14T12:12:41Z</time>
      </trkpt>
      <trkpt lat="49.01296" lon="2.00715">
        <ele>137.5</ele>
        <time>2022-04-14T12:12:46Z</time>
      </trkpt>
      <trkpt lat="49.013" lon="2.00715">
        <ele>138</ele>
        <time>2022-04-14T12:12:52Z</time>
      </trkpt>
      <trkpt lat="49.01306" lon="2.00713">
        <ele>138.7</ele>
        <time>2022-04-14T12:12:58Z</time>
      </trkpt>
      <trkpt lat="49.01312" lon="2.0071">
        <ele>139.1</ele>
        <time>2022-04-14T12:13:03Z</time>
      </trkpt>
      <trkpt lat="49.01319" lon="2.00708">
        <ele>139.5</ele>
        <time>2022-04-14T12:13:09Z</time>
      </trkpt>
      <trkpt lat="49.01328" lon="2.00706">
        <ele>140</ele>
        <time>2022-04-14T12:13:15Z</time>
      </trkpt>
      <trkpt lat="49.01335" lon="2.00704">
        <ele>140.2</ele>
        <time>2022-04-14T12:13:20Z</time>
      </trkpt>
      <trkpt lat="49.01342" lon="2.00703">
        <ele>140.1</ele>
        <time>2022-04-14T12:13:25Z</time>
      </trkpt>
      <trkpt lat="49.01349" lon="2.007">
        <ele>140</ele>
        <time>2022-04-14T12:13:31Z</time>
      </trkpt>
      <trkpt lat="49.01356" lon="2.00701">
        <ele>139.7</ele>
        <time>2022-04-14T12:13:37Z</time>
      </trkpt>
      <trkpt lat="49.01362" lon="2.007">
        <ele>139.5</ele>
        <time>2022-04-14T12:13:42Z</time>
      </trkpt>
      <trkpt lat="49.01368" lon="2.00699">
        <ele>139.3</ele>
        <time>2022-04-14T12:13:47Z</time>
      </trkpt>
      <trkpt lat="49.01372" lon="2.00696">
        <ele>139.1</ele>
        <time>2022-04-14T12:13:52Z</time>
      </trkpt>
      <trkpt lat="49.0138" lon="2.00694">
        <ele>138.7</ele>
        <time>2022-04-14T12:13:58Z</time>
      </trkpt>
      <trkpt lat="49.01386" lon="2.00692">
        <ele>138.4</ele>
        <time>2022-04-14T12:14:03Z</time>
      </trkpt>
      <trkpt lat="49.01395" lon="2.0069">
        <ele>137.9</ele>
        <time>2022-04-14T12:14:09Z</time>
      </trkpt>
      <trkpt lat="49.01403" lon="2.00686">
        <ele>137.5</ele>
        <time>2022-04-14T12:14:14Z</time>
      </trkpt>
      <trkpt lat="49.01411" lon="2.00683">
        <ele>137.2</ele>
        <time>2022-04-14T12:14:20Z</time>
      </trkpt>
      <trkpt lat="49.01418" lon="2.00681">
        <ele>136.9</ele>
        <time>2022-04-14T12:14:26Z</time>
      </trkpt>
      <trkpt lat="49.01425" lon="2.00679">
        <ele>136.6</ele>
        <time>2022-04-14T12:14:31Z</time>
      </trkpt>
      <trkpt lat="49.01433" lon="2.00678">
        <ele>136.2</ele>
        <time>2022-04-14T12:14:37Z</time>
      </trkpt>
      <trkpt lat="49.01444" lon="2.00679">
        <ele>135.6</ele>
        <time>2022-04-14T12:14:43Z</time>
      </trkpt>
      <trkpt lat="49.01451" lon="2.0068">
        <ele>134.8</ele>
        <time>2022-04-14T12:14:49Z</time>
      </trkpt>
      <trkpt lat="49.01457" lon="2.00679">
        <ele>134.2</ele>
        <time>2022-04-14T12:14:55Z</time>
      </trkpt>
      <trkpt lat="49.01462" lon="2.00676">
        <ele>133.7</ele>
        <time>2022-04-14T12:15:00Z</time>
      </trkpt>
      <trkpt lat="49.01469" lon="2.00675">
        <ele>133.1</ele>
        <time>2022-04-14T12:15:05Z</time>
      </trkpt>
      <trkpt lat="49.01478" lon="2.00675">
        <ele>132.1</ele>
        <time>2022-04-14T12:15:11Z</time>
      </trkpt>
      <trkpt lat="49.01487" lon="2.00674">
        <ele>131.3</ele>
        <time>2022-04-14T12:15:17Z</time>
      </trkpt>
      <trkpt lat="49.01492" lon="2.00674">
        <ele>130.7</ele>
        <time>2022-04-14T12:15:22Z</time>
      </trkpt>
      <trkpt lat="49.01498" lon="2.00674">
        <ele>130.2</ele>
        <time>2022-04-14T12:15:28Z</time>
      </trkpt>
      <trkpt lat="49.01501" lon="2.00674">
        <ele>129.9</ele>
        <time>2022-04-14T12:15:33Z</time>
      </trkpt>
      <trkpt lat="49.01505" lon="2.00673">
        <ele>129.4</ele>
        <time>2022-04-14T12:15:38Z</time>
      </trkpt>
      <trkpt lat="49.01511" lon="2.00672">
        <ele>128.8</ele>
        <time>2022-04-14T12:15:44Z</time>
      </trkpt>
      <trkpt lat="49.01519" lon="2.00672">
        <ele>128</ele>
        <time>2022-04-14T12:15:49Z</time>
      </trkpt>
      <trkpt lat="49.01527" lon="2.00671">
        <ele>127.1</ele>
        <time>2022-04-14T12:15:55Z</time>
      </trkpt>
      <trkpt lat="49.01532" lon="2.0067">
        <ele>126.8</ele>
        <time>2022-04-14T12:16:00Z</time>
      </trkpt>
      <trkpt lat="49.01535" lon="2.00668">
        <ele>126.7</ele>
        <time>2022-04-14T12:16:06Z</time>
      </trkpt>
      <trkpt lat="49.01537" lon="2.00667">
        <ele>126.7</ele>
        <time>2022-04-14T12:16:11Z</time>
      </trkpt>
      <trkpt lat="49.01539" lon="2.00665">
        <ele>126.7</ele>
        <time>2022-04-14T12:16:16Z</time>
      </trkpt>
      <trkpt lat="49.01543" lon="2.00661">
        <ele>126.7</ele>
        <time>2022-04-14T12:16:22Z</time>
      </trkpt>
      <trkpt lat="49.01547" lon="2.00658">
        <ele>126.6</ele>
        <time>2022-04-14T12:16:28Z</time>
      </trkpt>
      <trkpt lat="49.01554" lon="2.00655">
        <ele>126.5</ele>
        <time>2022-04-14T12:16:34Z</time>
      </trkpt>
      <trkpt lat="49.01563" lon="2.00653">
        <ele>126.7</ele>
        <time>2022-04-14T12:16:40Z</time>
      </trkpt>
      <trkpt lat="49.01571" lon="2.00653">
        <ele>127</ele>
        <time>2022-04-14T12:16:45Z</time>
      </trkpt>
      <trkpt lat="49.01579" lon="2.00652">
        <ele>127.4</ele>
        <time>2022-04-14T12:16:51Z</time>
      </trkpt>
      <trkpt lat="49.01587" lon="2.00651">
        <ele>127.7</ele>
        <time>2022-04-14T12:16:57Z</time>
      </trkpt>
      <trkpt lat="49.01593" lon="2.0065">
        <ele>128.1</ele>
        <time>2022-04-14T12:17:03Z</time>
      </trkpt>
      <trkpt lat="49.01598" lon="2.0065">
        <ele>128.4</ele>
        <time>2022-04-14T12:17:08Z</time>
      </trkpt>
      <trkpt lat="49.01603" lon="2.0065">
        <ele>128.8</ele>
        <time>2022-04-14T12:17:14Z</time>
      </trkpt>
      <trkpt lat="49.01608" lon="2.00649">
        <ele>129.1</ele>
        <time>2022-04-14T12:17:19Z</time>
      </trkpt>
      <trkpt lat="49.01616" lon="2.00649">
        <ele>129.5</ele>
        <time>2022-04-14T12:17:24Z</time>
      </trkpt>
      <trkpt lat="49.01624" lon="2.00649">
        <ele>129.7</ele>
        <time>2022-04-14T12:17:30Z</time>
      </trkpt>
      <trkpt lat="49.01629" lon="2.00649">
        <ele>129.9</ele>
        <time>2022-04-14T12:17:35Z</time>
      </trkpt>
      <trkpt lat="49.01634" lon="2.00649">
        <ele>130.1</ele>
        <time>2022-04-14T12:17:41Z</time>
      </trkpt>
      <trkpt lat="49.01639" lon="2.00645">
        <ele>130.6</ele>
        <time>2022-04-14T12:17:47Z</time>
      </trkpt>
      <trkpt lat="49.01645" lon="2.00638">
        <ele>131.2</ele>
        <time>2022-04-14T12:17:53Z</time>
      </trkpt>
      <trkpt lat="49.0165" lon="2.00633">
        <ele>131.7</ele>
        <time>2022-04-14T12:17:58Z</time>
      </trkpt>
      <trkpt lat="49.01657" lon="2.0063">
        <ele>132.2</ele>
        <time>2022-04-14T12:18:04Z</time>
      </trkpt>
      <trkpt lat="49.01665" lon="2.00629">
        <ele>132.6</ele>
        <time>2022-04-14T12:18:10Z</time>
      </trkpt>
      <trkpt lat="49.0167" lon="2.00629">
        <ele>132.8</ele>
        <time>2022-04-14T12:18:16Z</time>
      </trkpt>
      <trkpt lat="49.01675" lon="2.00628">
        <ele>133.1</ele>
        <time>2022-04-14T12:18:22Z</time>
      </trkpt>
      <trkpt lat="49.01677" lon="2.00628">
        <ele>133.1</ele>
        <time>2022-04-14T12:18:27Z</time>
      </trkpt>
      <trkpt lat="49.01679" lon="2.00628">
        <ele>133.2</ele>
        <time>2022-04-14T12:18:33Z</time>
      </trkpt>
      <trkpt lat="49.0168" lon="2.00628">
        <ele>133.2</ele>
        <time>2022-04-14T12:18:38Z</time>
      </trkpt>
      <trkpt lat="49.01679" lon="2.00629">
        <ele>133.2</ele>
        <time>2022-04-14T12:18:43Z</time>
      </trkpt>
      <trkpt lat="49.01678" lon="2.00631">
        <ele>133</ele>
        <time>2022-04-14T12:18:49Z</time>
      </trkpt>
      <trkpt lat="49.01677" lon="2.00632">
        <ele>132.9</ele>
        <time>2022-04-14T12:18:55Z</time>
      </trkpt>
      <trkpt lat="49.01678" lon="2.00634">
        <ele>132.8</ele>
        <time>2022-04-14T12:19:00Z</time>
      </trkpt>
      <trkpt lat="49.0168" lon="2.00635">
        <ele>132.8</ele>
        <time>2022-04-14T12:19:06Z</time>
      </trkpt>
      <trkpt lat="49.01684" lon="2.00634">
        <ele>133</ele>
        <time>2022-04-14T12:19:11Z</time>
      </trkpt>
      <trkpt lat="49.01688" lon="2.00632">
        <ele>133.3</ele>
        <time>2022-04-14T12:19:17Z</time>
      </trkpt>
      <trkpt lat="49.01694" lon="2.0063">
        <ele>133.6</ele>
        <time>2022-04-14T12:19:22Z</time>
      </trkpt>
      <trkpt lat="49.01701" lon="2.00629">
        <ele>134.2</ele>
        <time>2022-04-14T12:19:28Z</time>
      </trkpt>
      <trkpt lat="49.01709" lon="2.00627">
        <ele>134.9</ele>
        <time>2022-04-14T12:19:34Z</time>
      </trkpt>
      <trkpt lat="49.01716" lon="2.00625">
        <ele>135.5</ele>
        <time>2022-04-14T12:19:40Z</time>
      </trkpt>
      <trkpt lat="49.01723" lon="2.00625">
        <ele>136</ele>
        <time>2022-04-14T12:19:45Z</time>
      </trkpt>
      <trkpt lat="49.01727" lon="2.00625">
        <ele>136.1</ele>
        <time>2022-04-14T12:19:51Z</time>
      </trkpt>
      <trkpt lat="49.0173" lon="2.00626">
        <ele>136.2</ele>
        <time>2022-04-14T12:19:56Z</time>
      </trkpt>
      <trkpt lat="49.01732" lon="2.00626">
        <ele>136.3</ele>
        <time>2022-04-14T12:20:01Z</time>
      </trkpt>
      <trkpt lat="49.01736" lon="2.00623">
        <ele>136.7</ele>
        <time>2022-04-14T12:20:07Z</time>
      </trkpt>
      <trkpt lat="49.01741" lon="2.0062">
        <ele>137</ele>
        <time>2022-04-14T12:20:12Z</time>
      </trkpt>
      <trkpt lat="49.01748" lon="2.00617">
        <ele>137.5</ele>
        <time>2022-04-14T12:20:18Z</time>
      </trkpt>
      <trkpt lat="49.01753" lon="2.00613">
        <ele>137.8</ele>
        <time>2022-04-14T12:20:23Z</time>
      </trkpt>
      <trkpt lat="49.01761" lon="2.00611">
        <ele>138</ele>
        <time>2022-04-14T12:20:29Z</time>
      </trkpt>
      <trkpt lat="49.01769" lon="2.00611">
        <ele>138</ele>
        <time>2022-04-14T12:20:35Z</time>
      </trkpt>
      <trkpt lat="49.01774" lon="2.00609">
        <ele>138.1</ele>
        <time>2022-04-14T12:20:40Z</time>
      </trkpt>
      <trkpt lat="49.01781" lon="2.00609">
        <ele>137.8</ele>
        <time>2022-04-14T12:20:46Z</time>
      </trkpt>
      <trkpt lat="49.01787" lon="2.00608">
        <ele>137.4</ele>
        <time>2022-04-14T12:20:52Z</time>
      </trkpt>
      <trkpt lat="49.01794" lon="2.00607">
        <ele>137</ele>
        <time>2022-04-14T12:20:58Z</time>
      </trkpt>
      <trkpt lat="49.018" lon="2.00607">
        <ele>136.5</ele>
        <time>2022-04-14T12:21:04Z</time>
      </trkpt>
      <trkpt lat="49.01805" lon="2.00606">
        <ele>136.2</ele>
        <time>2022-04-14T12:21:09Z</time>
      </trkpt>
      <trkpt lat="49.01811" lon="2.00606">
        <ele>135.6</ele>
        <time>2022-04-14T12:21:15Z</time>
      </trkpt>
      <trkpt lat="49.01816" lon="2.00604">
        <ele>135.1</ele>
        <time>2022-04-14T12:21:21Z</time>
      </trkpt>
      <trkpt lat="49.01823" lon="2.00601">
        <ele>134.5</ele>
        <time>2022-04-14T12:21:27Z</time>
      </trkpt>
      <trkpt lat="49.01832" lon="2.00597">
        <ele>133.7</ele>
        <time>2022-04-14T12:21:33Z</time>
      </trkpt>
      <trkpt lat="49.01838" lon="2.00595">
        <ele>133.1</ele>
        <time>2022-04-14T12:21:38Z</time>
      </trkpt>
      <trkpt lat="49.01842" lon="2.00594">
        <ele>132.7</ele>
        <time>2022-04-14T12:21:43Z</time>
      </trkpt>
      <trkpt lat="49.01846" lon="2.00593">
        <ele>132.3</ele>
        <time>2022-04-14T12:21:49Z</time>
      </trkpt>
      <trkpt lat="49.01849" lon="2.00592">
        <ele>132.1</ele>
        <time>2022-04-14T12:21:54Z</time>
      </trkpt>
      <trkpt lat="49.01854" lon="2.0059">
        <ele>131.5</ele>
        <time>2022-04-14T12:22:00Z</time>
      </trkpt>
      <trkpt lat="49.01861" lon="2.00588">
        <ele>130.8</ele>
        <time>2022-04-14T12:22:06Z</time>
      </trkpt>
      <trkpt lat="49.01871" lon="2.00586">
        <ele>129.9</ele>
        <time>2022-04-14T12:22:12Z</time>
      </trkpt>
      <trkpt lat="49.01878" lon="2.00582">
        <ele>129.2</ele>
        <time>2022-04-14T12:22:17Z</time>
      </trkpt>
      <trkpt lat="49.01885" lon="2.00574">
        <ele>128.4</ele>
        <time>2022-04-14T12:22:23Z</time>
      </trkpt>
      <trkpt lat="49.01891" lon="2.00562">
        <ele>127.8</ele>
        <time>2022-04-14T12:22:29Z</time>
      </trkpt>
      <trkpt lat="49.01896" lon="2.00551">
        <ele>127.7</ele>
        <time>2022-04-14T12:22:35Z</time>
      </trkpt>
      <trkpt lat="49.019" lon="2.00539">
        <ele>127.8</ele>
        <time>2022-04-14T12:22:41Z</time>
      </trkpt>
      <trkpt lat="49.01904" lon="2.00527">
        <ele>127.9</ele>
        <time>2022-04-14T12:22:47Z</time>
      </trkpt>
      <trkpt lat="49.01908" lon="2.00518">
        <ele>128</ele>
        <time>2022-04-14T12:22:53Z</time>
      </trkpt>
      <trkpt lat="49.01911" lon="2.00509">
        <ele>128.1</ele>
        <time>2022-04-14T12:22:59Z</time>
      </trkpt>
      <trkpt lat="49.01914" lon="2.00501">
        <ele>128.1</ele>
        <time>2022-04-14T12:23:05Z</time>
      </trkpt>
      <trkpt lat="49.01918" lon="2.00492">
        <ele>128.5</ele>
        <time>2022-04-14T12:23:11Z</time>
      </trkpt>
      <trkpt lat="49.01923" lon="2.00483">
        <ele>129</ele>
        <time>2022-04-14T12:23:17Z</time>
      </trkpt>
      <trkpt lat="49.01927" lon="2.00476">
        <ele>129.3</ele>
        <time>2022-04-14T12:23:22Z</time>
      </trkpt>
      <trkpt lat="49.01931" lon="2.00468">
        <ele>129.8</ele>
        <time>2022-04-14T12:23:28Z</time>
      </trkpt>
      <trkpt lat="49.01935" lon="2.00459">
        <ele>130.4</ele>
        <time>2022-04-14T12:23:34Z</time>
      </trkpt>
      <trkpt lat="49.01938" lon="2.00452">
        <ele>131.1</ele>
        <time>2022-04-14T12:23:39Z</time>
      </trkpt>
      <trkpt lat="49.01943" lon="2.00443">
        <ele>132</ele>
        <time>2022-04-14T12:23:45Z</time>
      </trkpt>
      <trkpt lat="49.01947" lon="2.00435">
        <ele>132.4</ele>
        <time>2022-04-14T12:23:51Z</time>
      </trkpt>
      <trkpt lat="49.01952" lon="2.00426">
        <ele>132.8</ele>
        <time>2022-04-14T12:23:57Z</time>
      </trkpt>
      <trkpt lat="49.01957" lon="2.00417">
        <ele>133.4</ele>
        <time>2022-04-14T12:24:03Z</time>
      </trkpt>
      <trkpt lat="49.01962" lon="2.00408">
        <ele>134.2</ele>
        <time>2022-04-14T12:24:09Z</time>
      </trkpt>
      <trkpt lat="49.01965" lon="2.00401">
        <ele>134.9</ele>
        <time>2022-04-14T12:24:14Z</time>
      </trkpt>
      <trkpt lat="49.01968" lon="2.00392">
        <ele>135.6</ele>
        <time>2022-04-14T12:24:20Z</time>
      </trkpt>
      <trkpt lat="49.01971" lon="2.00384">
        <ele>136.3</ele>
        <time>2022-04-14T12:24:26Z</time>
      </trkpt>
      <trkpt lat="49.01974" lon="2.00376">
        <ele>137</ele>
        <time>2022-04-14T12:24:32Z</time>
      </trkpt>
      <trkpt lat="49.01978" lon="2.00369">
        <ele>137.6</ele>
        <time>2022-04-14T12:24:38Z</time>
      </trkpt>
      <trkpt lat="49.0198" lon="2.00364">
        <ele>138.1</ele>
        <time>2022-04-14T12:24:43Z</time>
      </trkpt>
      <trkpt lat="49.01981" lon="2.00356">
        <ele>138.6</ele>
        <time>2022-04-14T12:24:49Z</time>
      </trkpt>
      <trkpt lat="49.01983" lon="2.00345">
        <ele>139.2</ele>
        <time>2022-04-14T12:24:54Z</time>
      </trkpt>
      <trkpt lat="49.01982" lon="2.00336">
        <ele>139.6</ele>
        <time>2022-04-14T12:24:59Z</time>
      </trkpt>
      <trkpt lat="49.01982" lon="2.00325">
        <ele>140.5</ele>
        <time>2022-04-14T12:25:05Z</time>
      </trkpt>
      <trkpt lat="49.01982" lon="2.00315">
        <ele>141.5</ele>
        <time>2022-04-14T12:25:11Z</time>
      </trkpt>
      <trkpt lat="49.01982" lon="2.00305">
        <ele>142.4</ele>
        <time>2022-04-14T12:25:16Z</time>
      </trkpt>
      <trkpt lat="49.01984" lon="2.00295">
        <ele>143</ele>
        <time>2022-04-14T12:25:22Z</time>
      </trkpt>
      <trkpt lat="49.01984" lon="2.00284">
        <ele>143.5</ele>
        <time>2022-04-14T12:25:28Z</time>
      </trkpt>
      <trkpt lat="49.01984" lon="2.00272">
        <ele>144.3</ele>
        <time>2022-04-14T12:25:34Z</time>
      </trkpt>
      <trkpt lat="49.01985" lon="2.00262">
        <ele>145.1</ele>
        <time>2022-04-14T12:25:40Z</time>
      </trkpt>
      <trkpt lat="49.01986" lon="2.00255">
        <ele>145.7</ele>
        <time>2022-04-14T12:25:45Z</time>
      </trkpt>
      <trkpt lat="49.01987" lon="2.00246">
        <ele>146.4</ele>
        <time>2022-04-14T12:25:51Z</time>
      </trkpt>
      <trkpt lat="49.01989" lon="2.00232">
        <ele>147.5</ele>
        <time>2022-04-14T12:25:57Z</time>
      </trkpt>
      <trkpt lat="49.0199" lon="2.00222">
        <ele>148.3</ele>
        <time>2022-04-14T12:26:02Z</time>
      </trkpt>
      <trkpt lat="49.01991" lon="2.00214">
        <ele>148.9</ele>
        <time>2022-04-14T12:26:07Z</time>
      </trkpt>
      <trkpt lat="49.01991" lon="2.00202">
        <ele>149.9</ele>
        <time>2022-04-14T12:26:13Z</time>
      </trkpt>
      <trkpt lat="49.01991" lon="2.00191">
        <ele>150.6</ele>
        <time>2022-04-14T12:26:19Z</time>
      </trkpt>
      <trkpt lat="49.01991" lon="2.0018">
        <ele>151.4</ele>
        <time>2022-04-14T12:26:25Z</time>
      </trkpt>
      <trkpt lat="49.01991" lon="2.00171">
        <ele>152.1</ele>
        <time>2022-04-14T12:26:31Z</time>
      </trkpt>
      <trkpt lat="49.01992" lon="2.00162">
        <ele>152.7</ele>
        <time>2022-04-14T12:26:36Z</time>
      </trkpt>
      <trkpt lat="49.01992" lon="2.00151">
        <ele>153.5</ele>
        <time>2022-04-14T12:26:41Z</time>
      </trkpt>
      <trkpt lat="49.01992" lon="2.00141">
        <ele>154.2</ele>
        <time>2022-04-14T12:26:46Z</time>
      </trkpt>
      <trkpt lat="49.01992" lon="2.00132">
        <ele>154.7</ele>
        <time>2022-04-14T12:26:52Z</time>
      </trkpt>
      <trkpt lat="49.01992" lon="2.00124">
        <ele>155.1</ele>
        <time>2022-04-14T12:26:58Z</time>
      </trkpt>
      <trkpt lat="49.01992" lon="2.00116">
        <ele>155.5</ele>
        <time>2022-04-14T12:27:04Z</time>
      </trkpt>
      <trkpt lat="49.01992" lon="2.00109">
        <ele>155.8</ele>
        <time>2022-04-14T12:27:09Z</time>
      </trkpt>
      <trkpt lat="49.01993" lon="2.00101">
        <ele>156.2</ele>
        <time>2022-04-14T12:27:14Z</time>
      </trkpt>
      <trkpt lat="49.01995" lon="2.00094">
        <ele>156.5</ele>
        <time>2022-04-14T12:27:19Z</time>
      </trkpt>
      <trkpt lat="49.01998" lon="2.00089">
        <ele>156.8</ele>
        <time>2022-04-14T12:27:25Z</time>
      </trkpt>
      <trkpt lat="49.02002" lon="2.00086">
        <ele>156.8</ele>
        <time>2022-04-14T12:27:31Z</time>
      </trkpt>
      <trkpt lat="49.02008" lon="2.00085">
        <ele>156.7</ele>
        <time>2022-04-14T12:27:36Z</time>
      </trkpt>
      <trkpt lat="49.02017" lon="2.00083">
        <ele>156.4</ele>
        <time>2022-04-14T12:27:42Z</time>
      </trkpt>
      <trkpt lat="49.02025" lon="2.00081">
        <ele>156.1</ele>
        <time>2022-04-14T12:27:48Z</time>
      </trkpt>
      <trkpt lat="49.02034" lon="2.00078">
        <ele>155.4</ele>
        <time>2022-04-14T12:27:54Z</time>
      </trkpt>
      <trkpt lat="49.02042" lon="2.00077">
        <ele>154.6</ele>
        <time>2022-04-14T12:28:00Z</time>
      </trkpt>
      <trkpt lat="49.02048" lon="2.00077">
        <ele>154</ele>
        <time>2022-04-14T12:28:06Z</time>
      </trkpt>
      <trkpt lat="49.02054" lon="2.00076">
        <ele>153.4</ele>
        <time>2022-04-14T12:28:11Z</time>
      </trkpt>
      <trkpt lat="49.02062" lon="2.00076">
        <ele>153</ele>
        <time>2022-04-14T12:28:17Z</time>
      </trkpt>
      <trkpt lat="49.02068" lon="2.00076">
        <ele>152.8</ele>
        <time>2022-04-14T12:28:22Z</time>
      </trkpt>
      <trkpt lat="49.02076" lon="2.00077">
        <ele>152.5</ele>
        <time>2022-04-14T12:28:28Z</time>
      </trkpt>
      <trkpt lat="49.02083" lon="2.00079">
        <ele>152.1</ele>
        <time>2022-04-14T12:28:34Z</time>
      </trkpt>
      <trkpt lat="49.02091" lon="2.00081">
        <ele>151.9</ele>
        <time>2022-04-14T12:28:40Z</time>
      </trkpt>
      <trkpt lat="49.02097" lon="2.00082">
        <ele>151.6</ele>
        <time>2022-04-14T12:28:45Z</time>
      </trkpt>
      <trkpt lat="49.02104" lon="2.00083">
        <ele>151.3</ele>
        <time>2022-04-14T12:28:51Z</time>
      </trkpt>
      <trkpt lat="49.02111" lon="2.00084">
        <ele>150.9</ele>
        <time>2022-04-14T12:28:56Z</time>
      </trkpt>
      <trkpt lat="49.02122" lon="2.00085">
        <ele>150.5</ele>
        <time>2022-04-14T12:29:02Z</time>
      </trkpt>
      <trkpt lat="49.02129" lon="2.00085">
        <ele>150.2</ele>
        <time>2022-04-14T12:29:07Z</time>
      </trkpt>
      <trkpt lat="49.02136" lon="2.00086">
        <ele>149.9</ele>
        <time>2022-04-14T12:29:13Z</time>
      </trkpt>
      <trkpt lat="49.0214" lon="2.00087">
        <ele>149.6</ele>
        <time>2022-04-14T12:29:18Z</time>
      </trkpt>
      <trkpt lat="49.02144" lon="2.00091">
        <ele>149.3</ele>
        <time>2022-04-14T12:29:23Z</time>
      </trkpt>
      <trkpt lat="49.02148" lon="2.00098">
        <ele>148.7</ele>
        <time>2022-04-14T12:29:29Z</time>
      </trkpt>
      <trkpt lat="49.02151" lon="2.00106">
        <ele>148</ele>
        <time>2022-04-14T12:29:34Z</time>
      </trkpt>
      <trkpt lat="49.02154" lon="2.00113">
        <ele>147.4</ele>
        <time>2022-04-14T12:29:39Z</time>
      </trkpt>
      <trkpt lat="49.02155" lon="2.00121">
        <ele>147</ele>
        <time>2022-04-14T12:29:44Z</time>
      </trkpt>
      <trkpt lat="49.02157" lon="2.00131">
        <ele>146.5</ele>
        <time>2022-04-14T12:29:50Z</time>
      </trkpt>
      <trkpt lat="49.0216" lon="2.0014">
        <ele>145.9</ele>
        <time>2022-04-14T12:29:56Z</time>
      </trkpt>
      <trkpt lat="49.02163" lon="2.00149">
        <ele>145.3</ele>
        <time>2022-04-14T12:30:01Z</time>
      </trkpt>
      <trkpt lat="49.02167" lon="2.00159">
        <ele>144.6</ele>
        <time>2022-04-14T12:30:07Z</time>
      </trkpt>
      <trkpt lat="49.0217" lon="2.00168">
        <ele>144</ele>
        <time>2022-04-14T12:30:13Z</time>
      </trkpt>
      <trkpt lat="49.02173" lon="2.00179">
        <ele>143.2</ele>
        <time>2022-04-14T12:30:19Z</time>
      </trkpt>
      <trkpt lat="49.02176" lon="2.00189">
        <ele>142.4</ele>
        <time>2022-04-14T12:30:25Z</time>
      </trkpt>
      <trkpt lat="49.02179" lon="2.00198">
        <ele>141.8</ele>
        <time>2022-04-14T12:30:30Z</time>
      </trkpt>
      <trkpt lat="49.02183" lon="2.00208">
        <ele>141.3</ele>
        <time>2022-04-14T12:30:36Z</time>
      </trkpt>
      <trkpt lat="49.02188" lon="2.00214">
        <ele>141.1</ele>
        <time>2022-04-14T12:30:42Z</time>
      </trkpt>
      <trkpt lat="49.02192" lon="2.0022">
        <ele>141</ele>
        <time>2022-04-14T12:30:47Z</time>
      </trkpt>
      <trkpt lat="49.02197" lon="2.00227">
        <ele>140.5</ele>
        <time>2022-04-14T12:30:52Z</time>
      </trkpt>
      <trkpt lat="49.02203" lon="2.00235">
        <ele>139.9</ele>
        <time>2022-04-14T12:30:58Z</time>
      </trkpt>
      <trkpt lat="49.02208" lon="2.00243">
        <ele>139.5</ele>
        <time>2022-04-14T12:31:03Z</time>
      </trkpt>
      <trkpt lat="49.02214" lon="2.00251">
        <ele>139.3</ele>
        <time>2022-04-14T12:31:09Z</time>
      </trkpt>
      <trkpt lat="49.02219" lon="2.00258">
        <ele>139.2</ele>
        <time>2022-04-14T12:31:14Z</time>
      </trkpt>
      <trkpt lat="49.02223" lon="2.00264">
        <ele>139</ele>
        <time>2022-04-14T12:31:19Z</time>
      </trkpt>
      <trkpt lat="49.02228" lon="2.00272">
        <ele>138.6</ele>
        <time>2022-04-14T12:31:25Z</time>
      </trkpt>
      <trkpt lat="49.02233" lon="2.00281">
        <ele>138.3</ele>
        <time>2022-04-14T12:31:31Z</time>
      </trkpt>
      <trkpt lat="49.02236" lon="2.0029">
        <ele>138.1</ele>
        <time>2022-04-14T12:31:37Z</time>
      </trkpt>
      <trkpt lat="49.02238" lon="2.00301">
        <ele>137.8</ele>
        <time>2022-04-14T12:31:43Z</time>
      </trkpt>
      <trkpt lat="49.0224" lon="2.00311">
        <ele>137.4</ele>
        <time>2022-04-14T12:31:49Z</time>
      </trkpt>
      <trkpt lat="49.02242" lon="2.0032">
        <ele>137.1</ele>
        <time>2022-04-14T12:31:54Z</time>
      </trkpt>
      <trkpt lat="49.02245" lon="2.0033">
        <ele>136.8</ele>
        <time>2022-04-14T12:32:00Z</time>
      </trkpt>
      <trkpt lat="49.02248" lon="2.00339">
        <ele>136.7</ele>
        <time>2022-04-14T12:32:05Z</time>
      </trkpt>
      <trkpt lat="49.02251" lon="2.00348">
        <ele>136.6</ele>
        <time>2022-04-14T12:32:11Z</time>
      </trkpt>
      <trkpt lat="49.02253" lon="2.00355">
        <ele>136.4</ele>
        <time>2022-04-14T12:32:16Z</time>
      </trkpt>
      <trkpt lat="49.02254" lon="2.00362">
        <ele>136.3</ele>
        <time>2022-04-14T12:32:21Z</time>
      </trkpt>
      <trkpt lat="49.02256" lon="2.0037">
        <ele>135.8</ele>
        <time>2022-04-14T12:32:27Z</time>
      </trkpt>
      <trkpt lat="49.02258" lon="2.00378">
        <ele>135.3</ele>
        <time>2022-04-14T12:32:33Z</time>
      </trkpt>
      <trkpt lat="49.0226" lon="2.00388">
        <ele>134.8</ele>
        <time>2022-04-14T12:32:39Z</time>
      </trkpt>
      <trkpt lat="49.02263" lon="2.00397">
        <ele>134.5</ele>
        <time>2022-04-14T12:32:45Z</time>
      </trkpt>
      <trkpt lat="49.02265" lon="2.00406">
        <ele>134.2</ele>
        <time>2022-04-14T12:32:51Z</time>
      </trkpt>
      <trkpt lat="49.02268" lon="2.00416">
        <ele>133.7</ele>
        <time>2022-04-14T12:32:57Z</time>
      </trkpt>
      <trkpt lat="49.0227" lon="2.00426">
        <ele>133.4</ele>
        <time>2022-04-14T12:33:03Z</time>
      </trkpt>
      <trkpt lat="49.02273" lon="2.00436">
        <ele>133.1</ele>
        <time>2022-04-14T12:33:08Z</time>
      </trkpt>
      <trkpt lat="49.02277" lon="2.00447">
        <ele>132.9</ele>
        <time>2022-04-14T12:33:14Z</time>
      </trkpt>
      <trkpt lat="49.02279" lon="2.00456">
        <ele>132.7</ele>
        <time>2022-04-14T12:33:19Z</time>
      </trkpt>
      <trkpt lat="49.02281" lon="2.00467">
        <ele>132.4</ele>
        <time>2022-04-14T12:33:25Z</time>
      </trkpt>
      <trkpt lat="49.02283" lon="2.00477">
        <ele>132</ele>
        <time>2022-04-14T12:33:31Z</time>
      </trkpt>
      <trkpt lat="49.02285" lon="2.00486">
        <ele>131.6</ele>
        <time>2022-04-14T12:33:36Z</time>
      </trkpt>
      <trkpt lat="49.02287" lon="2.00495">
        <ele>131.3</ele>
        <time>2022-04-14T12:33:41Z</time>
      </trkpt>
      <trkpt lat="49.02291" lon="2.00506">
        <ele>131.1</ele>
        <time>2022-04-14T12:33:47Z</time>
      </trkpt>
      <trkpt lat="49.02295" lon="2.00516">
        <ele>131</ele>
        <time>2022-04-14T12:33:53Z</time>
      </trkpt>
      <trkpt lat="49.02299" lon="2.00524">
        <ele>130.8</ele>
        <time>2022-04-14T12:33:58Z</time>
      </trkpt>
      <trkpt lat="49.02302" lon="2.00534">
        <ele>130.6</ele>
        <time>2022-04-14T12:34:04Z</time>
      </trkpt>
      <trkpt lat="49.02306" lon="2.00541">
        <ele>130.5</ele>
        <time>2022-04-14T12:34:09Z</time>
      </trkpt>
      <trkpt lat="49.0231" lon="2.00549">
        <ele>130.5</ele>
        <time>2022-04-14T12:34:14Z</time>
      </trkpt>
      <trkpt lat="49.02314" lon="2.00551">
        <ele>130.8</ele>
        <time>2022-04-14T12:34:20Z</time>
      </trkpt>
      <trkpt lat="49.02317" lon="2.00551">
        <ele>131</ele>
        <time>2022-04-14T12:34:26Z</time>
      </trkpt>
      <trkpt lat="49.02319" lon="2.00552">
        <ele>131.1</ele>
        <time>2022-04-14T12:34:32Z</time>
      </trkpt>
      <trkpt lat="49.02319" lon="2.00552">
        <ele>131.1</ele>
        <time>2022-04-14T12:34:38Z</time>
      </trkpt>
      <trkpt lat="49.02319" lon="2.00552">
        <ele>131.1</ele>
        <time>2022-04-14T12:34:44Z</time>
      </trkpt>
      <trkpt lat="49.02319" lon="2.00552">
        <ele>131.1</ele>
        <time>2022-04-14T12:34:50Z</time>
      </trkpt>
      <trkpt lat="49.02318" lon="2.00548">
        <ele>131.2</ele>
        <time>2022-04-14T12:34:56Z</time>
      </trkpt>
      <trkpt lat="49.02314" lon="2.00537">
        <ele>131.2</ele>
        <time>2022-04-14T12:35:02Z</time>
      </trkpt>
      <trkpt lat="49.02312" lon="2.00525">
        <ele>131.6</ele>
        <time>2022-04-14T12:35:07Z</time>
      </trkpt>
      <trkpt lat="49.02312" lon="2.00521">
        <ele>132</ele>
        <time>2022-04-14T12:35:12Z</time>
      </trkpt>
      <trkpt lat="49.02317" lon="2.00517">
        <ele>132.6</ele>
        <time>2022-04-14T12:35:18Z</time>
      </trkpt>
      <trkpt lat="49.02324" lon="2.00512">
        <ele>133.4</ele>
        <time>2022-04-14T12:35:24Z</time>
      </trkpt>
      <trkpt lat="49.02329" lon="2.00508">
        <ele>134.1</ele>
        <time>2022-04-14T12:35:29Z</time>
      </trkpt>
      <trkpt lat="49.02335" lon="2.00503">
        <ele>134.9</ele>
        <time>2022-04-14T12:35:34Z</time>
      </trkpt>
      <trkpt lat="49.02342" lon="2.00498">
        <ele>135.7</ele>
        <time>2022-04-14T12:35:40Z</time>
      </trkpt>
      <trkpt lat="49.02349" lon="2.00495">
        <ele>136.5</ele>
        <time>2022-04-14T12:35:46Z</time>
      </trkpt>
      <trkpt lat="49.02354" lon="2.00492">
        <ele>137.1</ele>
        <time>2022-04-14T12:35:52Z</time>
      </trkpt>
      <trkpt lat="49.02361" lon="2.0049">
        <ele>137.7</ele>
        <time>2022-04-14T12:35:57Z</time>
      </trkpt>
      <trkpt lat="49.02368" lon="2.00487">
        <ele>138.4</ele>
        <time>2022-04-14T12:36:03Z</time>
      </trkpt>
      <trkpt lat="49.0237" lon="2.0048">
        <ele>139.1</ele>
        <time>2022-04-14T12:36:09Z</time>
      </trkpt>
      <trkpt lat="49.02369" lon="2.00471">
        <ele>139.6</ele>
        <time>2022-04-14T12:36:14Z</time>
      </trkpt>
      <trkpt lat="49.02368" lon="2.00464">
        <ele>140</ele>
        <time>2022-04-14T12:36:19Z</time>
      </trkpt>
      <trkpt lat="49.0237" lon="2.00459">
        <ele>140.4</ele>
        <time>2022-04-14T12:36:24Z</time>
      </trkpt>
      <trkpt lat="49.02376" lon="2.00455">
        <ele>141</ele>
        <time>2022-04-14T12:36:30Z</time>
      </trkpt>
      <trkpt lat="49.0238" lon="2.00453">
        <ele>141.3</ele>
        <time>2022-04-14T12:36:35Z</time>
      </trkpt>
      <trkpt lat="49.02386" lon="2.00447">
        <ele>141.8</ele>
        <time>2022-04-14T12:36:41Z</time>
      </trkpt>
      <trkpt lat="49.02391" lon="2.00444">
        <ele>142.2</ele>
        <time>2022-04-14T12:36:46Z</time>
      </trkpt>
      <trkpt lat="49.02399" lon="2.00441">
        <ele>142.9</ele>
        <time>2022-04-14T12:36:52Z</time>
      </trkpt>
      <trkpt lat="49.02405" lon="2.00438">
        <ele>143.5</ele>
        <time>2022-04-14T12:36:57Z</time>
      </trkpt>
      <trkpt lat="49.02413" lon="2.00433">
        <ele>144.2</ele>
        <time>2022-04-14T12:37:02Z</time>
      </trkpt>
      <trkpt lat="49.0242" lon="2.00428">
        <ele>144.7</ele>
        <time>2022-04-14T12:37:08Z</time>
      </trkpt>
      <trkpt lat="49.02428" lon="2.00423">
        <ele>145.2</ele>
        <time>2022-04-14T12:37:14Z</time>
      </trkpt>
      <trkpt lat="49.02435" lon="2.00419">
        <ele>145.6</ele>
        <time>2022-04-14T12:37:20Z</time>
      </trkpt>
      <trkpt lat="49.02442" lon="2.00417">
        <ele>145.9</ele>
        <time>2022-04-14T12:37:25Z</time>
      </trkpt>
      <trkpt lat="49.0245" lon="2.00414">
        <ele>146.3</ele>
        <time>2022-04-14T12:37:31Z</time>
      </trkpt>
      <trkpt lat="49.02457" lon="2.00412">
        <ele>146.6</ele>
        <time>2022-04-14T12:37:37Z</time>
      </trkpt>
      <trkpt lat="49.02465" lon="2.00409">
        <ele>146.8</ele>
        <time>2022-04-14T12:37:43Z</time>
      </trkpt>
      <trkpt lat="49.02472" lon="2.00405">
        <ele>147</ele>
        <time>2022-04-14T12:37:49Z</time>
      </trkpt>
      <trkpt lat="49.02479" lon="2.004">
        <ele>146.4</ele>
        <time>2022-04-14T12:37:54Z</time>
      </trkpt>
      <trkpt lat="49.02483" lon="2.00396">
        <ele>146.1</ele>
        <time>2022-04-14T12:38:00Z</time>
      </trkpt>
      <trkpt lat="49.02487" lon="2.00393">
        <ele>145.9</ele>
        <time>2022-04-14T12:38:06Z</time>
      </trkpt>
      <trkpt lat="49.02493" lon="2.00393">
        <ele>145.4</ele>
        <time>2022-04-14T12:38:11Z</time>
      </trkpt>
      <trkpt lat="49.02501" lon="2.00394">
        <ele>144.8</ele>
        <time>2022-04-14T12:38:17Z</time>
      </trkpt>
      <trkpt lat="49.02508" lon="2.00397">
        <ele>144.4</ele>
        <time>2022-04-14T12:38:23Z</time>
      </trkpt>
      <trkpt lat="49.02513" lon="2.00396">
        <ele>144.3</ele>
        <time>2022-04-14T12:38:29Z</time>
      </trkpt>
      <trkpt lat="49.02517" lon="2.00396">
        <ele>144.1</ele>
        <time>2022-04-14T12:38:34Z</time>
      </trkpt>
      <trkpt lat="49.02522" lon="2.00406">
        <ele>143.6</ele>
        <time>2022-04-14T12:38:40Z</time>
      </trkpt>
      <trkpt lat="49.02523" lon="2.00416">
        <ele>143.2</ele>
        <time>2022-04-14T12:38:46Z</time>
      </trkpt>
      <trkpt lat="49.02526" lon="2.00428">
        <ele>142.7</ele>
        <time>2022-04-14T12:38:51Z</time>
      </trkpt>
      <trkpt lat="49.02533" lon="2.00441">
        <ele>141.7</ele>
        <time>2022-04-14T12:38:57Z</time>
      </trkpt>
      <trkpt lat="49.02534" lon="2.0045">
        <ele>141.4</ele>
        <time>2022-04-14T12:39:03Z</time>
      </trkpt>
      <trkpt lat="49.02542" lon="2.0046">
        <ele>140.4</ele>
        <time>2022-04-14T12:39:08Z</time>
      </trkpt>
      <trkpt lat="49.02547" lon="2.00467">
        <ele>139.8</ele>
        <time>2022-04-14T12:39:13Z</time>
      </trkpt>
      <trkpt lat="49.02551" lon="2.00476">
        <ele>139.2</ele>
        <time>2022-04-14T12:39:18Z</time>
      </trkpt>
      <trkpt lat="49.02557" lon="2.00486">
        <ele>138.5</ele>
        <time>2022-04-14T12:39:24Z</time>
      </trkpt>
      <trkpt lat="49.02561" lon="2.00495">
        <ele>138</ele>
        <time>2022-04-14T12:39:29Z</time>
      </trkpt>
      <trkpt lat="49.02563" lon="2.00504">
        <ele>137.6</ele>
        <time>2022-04-14T12:39:35Z</time>
      </trkpt>
      <trkpt lat="49.02569" lon="2.00513">
        <ele>137.1</ele>
        <time>2022-04-14T12:39:41Z</time>
      </trkpt>
      <trkpt lat="49.02573" lon="2.00523">
        <ele>136.5</ele>
        <time>2022-04-14T12:39:47Z</time>
      </trkpt>
      <trkpt lat="49.02579" lon="2.00528">
        <ele>136.2</ele>
        <time>2022-04-14T12:39:53Z</time>
      </trkpt>
      <trkpt lat="49.02587" lon="2.00524">
        <ele>136.1</ele>
        <time>2022-04-14T12:39:59Z</time>
      </trkpt>
      <trkpt lat="49.02592" lon="2.00521">
        <ele>136.2</ele>
        <time>2022-04-14T12:40:04Z</time>
      </trkpt>
      <trkpt lat="49.026" lon="2.00516">
        <ele>136.4</ele>
        <time>2022-04-14T12:40:09Z</time>
      </trkpt>
      <trkpt lat="49.02607" lon="2.00513">
        <ele>136.5</ele>
        <time>2022-04-14T12:40:15Z</time>
      </trkpt>
      <trkpt lat="49.02612" lon="2.00507">
        <ele>136.8</ele>
        <time>2022-04-14T12:40:20Z</time>
      </trkpt>
      <trkpt lat="49.02617" lon="2.00498">
        <ele>137.3</ele>
        <time>2022-04-14T12:40:26Z</time>
      </trkpt>
      <trkpt lat="49.0262" lon="2.00486">
        <ele>137.7</ele>
        <time>2022-04-14T12:40:32Z</time>
      </trkpt>
      <trkpt lat="49.02623" lon="2.00477">
        <ele>137.9</ele>
        <time>2022-04-14T12:40:37Z</time>
      </trkpt>
      <trkpt lat="49.02626" lon="2.00466">
        <ele>138.1</ele>
        <time>2022-04-14T12:40:43Z</time>
      </trkpt>
      <trkpt lat="49.02631" lon="2.00456">
        <ele>138.2</ele>
        <time>2022-04-14T12:40:49Z</time>
      </trkpt>
      <trkpt lat="49.02635" lon="2.00448">
        <ele>138.1</ele>
        <time>2022-04-14T12:40:54Z</time>
      </trkpt>
      <trkpt lat="49.02638" lon="2.00438">
        <ele>138.2</ele>
        <time>2022-04-14T12:41:00Z</time>
      </trkpt>
      <trkpt lat="49.02645" lon="2.00429">
        <ele>138.9</ele>
        <time>2022-04-14T12:41:06Z</time>
      </trkpt>
      <trkpt lat="49.02651" lon="2.00422">
        <ele>139.3</ele>
        <time>2022-04-14T12:41:11Z</time>
      </trkpt>
      <trkpt lat="49.02657" lon="2.00415">
        <ele>139.7</ele>
        <time>2022-04-14T12:41:17Z</time>
      </trkpt>
      <trkpt lat="49.02663" lon="2.0041">
        <ele>139.9</ele>
        <time>2022-04-14T12:41:22Z</time>
      </trkpt>
      <trkpt lat="49.0267" lon="2.00407">
        <ele>140.2</ele>
        <time>2022-04-14T12:41:27Z</time>
      </trkpt>
      <trkpt lat="49.02677" lon="2.00404">
        <ele>140.8</ele>
        <time>2022-04-14T12:41:33Z</time>
      </trkpt>
      <trkpt lat="49.02684" lon="2.004">
        <ele>141.3</ele>
        <time>2022-04-14T12:41:39Z</time>
      </trkpt>
      <trkpt lat="49.02691" lon="2.00398">
        <ele>141.8</ele>
        <time>2022-04-14T12:41:44Z</time>
      </trkpt>
      <trkpt lat="49.02697" lon="2.00395">
        <ele>142.2</ele>
        <time>2022-04-14T12:41:49Z</time>
      </trkpt>
      <trkpt lat="49.02705" lon="2.00391">
        <ele>142.8</ele>
        <time>2022-04-14T12:41:55Z</time>
      </trkpt>
      <trkpt lat="49.02712" lon="2.00389">
        <ele>143.2</ele>
        <time>2022-04-14T12:42:00Z</time>
      </trkpt>
      <trkpt lat="49.0272" lon="2.00386">
        <ele>143.7</ele>
        <time>2022-04-14T12:42:06Z</time>
      </trkpt>
      <trkpt lat="49.02728" lon="2.00382">
        <ele>144.2</ele>
        <time>2022-04-14T12:42:12Z</time>
      </trkpt>
      <trkpt lat="49.02737" lon="2.00378">
        <ele>144.7</ele>
        <time>2022-04-14T12:42:18Z</time>
      </trkpt>
      <trkpt lat="49.02743" lon="2.00375">
        <ele>145</ele>
        <time>2022-04-14T12:42:23Z</time>
      </trkpt>
      <trkpt lat="49.02749" lon="2.00374">
        <ele>145.4</ele>
        <time>2022-04-14T12:42:28Z</time>
      </trkpt>
      <trkpt lat="49.02757" lon="2.00372">
        <ele>145.7</ele>
        <time>2022-04-14T12:42:34Z</time>
      </trkpt>
      <trkpt lat="49.02766" lon="2.00371">
        <ele>145.9</ele>
        <time>2022-04-14T12:42:40Z</time>
      </trkpt>
      <trkpt lat="49.02773" lon="2.0037">
        <ele>146.1</ele>
        <time>2022-04-14T12:42:45Z</time>
      </trkpt>
      <trkpt lat="49.0278" lon="2.00365">
        <ele>146.1</ele>
        <time>2022-04-14T12:42:51Z</time>
      </trkpt>
      <trkpt lat="49.02787" lon="2.00362">
        <ele>146</ele>
        <time>2022-04-14T12:42:56Z</time>
      </trkpt>
      <trkpt lat="49.02795" lon="2.0036">
        <ele>146</ele>
        <time>2022-04-14T12:43:01Z</time>
      </trkpt>
      <trkpt lat="49.02804" lon="2.00356">
        <ele>146</ele>
        <time>2022-04-14T12:43:07Z</time>
      </trkpt>
      <trkpt lat="49.02811" lon="2.00353">
        <ele>145.9</ele>
        <time>2022-04-14T12:43:13Z</time>
      </trkpt>
      <trkpt lat="49.02817" lon="2.0035">
        <ele>145.8</ele>
        <time>2022-04-14T12:43:19Z</time>
      </trkpt>
      <trkpt lat="49.02825" lon="2.00347">
        <ele>145.7</ele>
        <time>2022-04-14T12:43:25Z</time>
      </trkpt>
      <trkpt lat="49.02831" lon="2.00345">
        <ele>145.5</ele>
        <time>2022-04-14T12:43:30Z</time>
      </trkpt>
      <trkpt lat="49.02839" lon="2.00342">
        <ele>145.1</ele>
        <time>2022-04-14T12:43:36Z</time>
      </trkpt>
      <trkpt lat="49.02846" lon="2.0034">
        <ele>144.8</ele>
        <time>2022-04-14T12:43:41Z</time>
      </trkpt>
      <trkpt lat="49.02854" lon="2.00335">
        <ele>144.3</ele>
        <time>2022-04-14T12:43:47Z</time>
      </trkpt>
      <trkpt lat="49.02861" lon="2.00333">
        <ele>144</ele>
        <time>2022-04-14T12:43:52Z</time>
      </trkpt>
      <trkpt lat="49.02869" lon="2.00331">
        <ele>143.4</ele>
        <time>2022-04-14T12:43:58Z</time>
      </trkpt>
      <trkpt lat="49.02876" lon="2.00328">
        <ele>143</ele>
        <time>2022-04-14T12:44:03Z</time>
      </trkpt>
      <trkpt lat="49.02883" lon="2.00325">
        <ele>142.6</ele>
        <time>2022-04-14T12:44:09Z</time>
      </trkpt>
      <trkpt lat="49.0289" lon="2.00322">
        <ele>142.3</ele>
        <time>2022-04-14T12:44:15Z</time>
      </trkpt>
      <trkpt lat="49.02897" lon="2.0032">
        <ele>142</ele>
        <time>2022-04-14T12:44:20Z</time>
      </trkpt>
      <trkpt lat="49.02906" lon="2.00318">
        <ele>141.6</ele>
        <time>2022-04-14T12:44:26Z</time>
      </trkpt>
      <trkpt lat="49.02914" lon="2.00314">
        <ele>141.1</ele>
        <time>2022-04-14T12:44:32Z</time>
      </trkpt>
      <trkpt lat="49.02922" lon="2.00313">
        <ele>140.7</ele>
        <time>2022-04-14T12:44:37Z</time>
      </trkpt>
      <trkpt lat="49.02929" lon="2.0031">
        <ele>140.5</ele>
        <time>2022-04-14T12:44:43Z</time>
      </trkpt>
      <trkpt lat="49.02934" lon="2.00308">
        <ele>140.3</ele>
        <time>2022-04-14T12:44:48Z</time>
      </trkpt>
      <trkpt lat="49.0294" lon="2.00305">
        <ele>140.2</ele>
        <time>2022-04-14T12:44:54Z</time>
      </trkpt>
      <trkpt lat="49.0295" lon="2.00303">
        <ele>139.9</ele>
        <time>2022-04-14T12:45:00Z</time>
      </trkpt>
      <trkpt lat="49.0296" lon="2.003">
        <ele>139.8</ele>
        <time>2022-04-14T12:45:06Z</time>
      </trkpt>
      <trkpt lat="49.02967" lon="2.00297">
        <ele>139.7</ele>
        <time>2022-04-14T12:45:11Z</time>
      </trkpt>
      <trkpt lat="49.02976" lon="2.00295">
        <ele>139.7</ele>
        <time>2022-04-14T12:45:17Z</time>
      </trkpt>
      <trkpt lat="49.02982" lon="2.00293">
        <ele>139.7</ele>
        <time>2022-04-14T12:45:22Z</time>
      </trkpt>
      <trkpt lat="49.02991" lon="2.00291">
        <ele>139.7</ele>
        <time>2022-04-14T12:45:28Z</time>
      </trkpt>
      <trkpt lat="49.02997" lon="2.00289">
        <ele>139.6</ele>
        <time>2022-04-14T12:45:33Z</time>
      </trkpt>
      <trkpt lat="49.03005" lon="2.00287">
        <ele>139.7</ele>
        <time>2022-04-14T12:45:39Z</time>
      </trkpt>
      <trkpt lat="49.03012" lon="2.00284">
        <ele>139.8</ele>
        <time>2022-04-14T12:45:44Z</time>
      </trkpt>
      <trkpt lat="49.03019" lon="2.00281">
        <ele>139.9</ele>
        <time>2022-04-14T12:45:50Z</time>
      </trkpt>
      <trkpt lat="49.03026" lon="2.00279">
        <ele>140</ele>
        <time>2022-04-14T12:45:55Z</time>
      </trkpt>
      <trkpt lat="49.03035" lon="2.00277">
        <ele>139.8</ele>
        <time>2022-04-14T12:46:01Z</time>
      </trkpt>
      <trkpt lat="49.03042" lon="2.00276">
        <ele>139.6</ele>
        <time>2022-04-14T12:46:06Z</time>
      </trkpt>
      <trkpt lat="49.0305" lon="2.00274">
        <ele>139.3</ele>
        <time>2022-04-14T12:46:12Z</time>
      </trkpt>
      <trkpt lat="49.03058" lon="2.00273">
        <ele>139.1</ele>
        <time>2022-04-14T12:46:18Z</time>
      </trkpt>
      <trkpt lat="49.03065" lon="2.00272">
        <ele>139</ele>
        <time>2022-04-14T12:46:24Z</time>
      </trkpt>
      <trkpt lat="49.03071" lon="2.00271">
        <ele>138.8</ele>
        <time>2022-04-14T12:46:29Z</time>
      </trkpt>
      <trkpt lat="49.03078" lon="2.00269">
        <ele>138.8</ele>
        <time>2022-04-14T12:46:34Z</time>
      </trkpt>
      <trkpt lat="49.03087" lon="2.00269">
        <ele>138.7</ele>
        <time>2022-04-14T12:46:40Z</time>
      </trkpt>
      <trkpt lat="49.03094" lon="2.00268">
        <ele>138.7</ele>
        <time>2022-04-14T12:46:45Z</time>
      </trkpt>
      <trkpt lat="49.03101" lon="2.00266">
        <ele>138.8</ele>
        <time>2022-04-14T12:46:51Z</time>
      </trkpt>
      <trkpt lat="49.03107" lon="2.00266">
        <ele>138.8</ele>
        <time>2022-04-14T12:46:57Z</time>
      </trkpt>
      <trkpt lat="49.03112" lon="2.00263">
        <ele>139.1</ele>
        <time>2022-04-14T12:47:02Z</time>
      </trkpt>
      <trkpt lat="49.03118" lon="2.00262">
        <ele>139.2</ele>
        <time>2022-04-14T12:47:07Z</time>
      </trkpt>
      <trkpt lat="49.03126" lon="2.00263">
        <ele>139.3</ele>
        <time>2022-04-14T12:47:13Z</time>
      </trkpt>
      <trkpt lat="49.03131" lon="2.00264">
        <ele>139.3</ele>
        <time>2022-04-14T12:47:18Z</time>
      </trkpt>
      <trkpt lat="49.03138" lon="2.00266">
        <ele>139.4</ele>
        <time>2022-04-14T12:47:24Z</time>
      </trkpt>
      <trkpt lat="49.03143" lon="2.00269">
        <ele>139.4</ele>
        <time>2022-04-14T12:47:30Z</time>
      </trkpt>
      <trkpt lat="49.03149" lon="2.0027">
        <ele>139.6</ele>
        <time>2022-04-14T12:47:35Z</time>
      </trkpt>
      <trkpt lat="49.03157" lon="2.00273">
        <ele>139.7</ele>
        <time>2022-04-14T12:47:41Z</time>
      </trkpt>
      <trkpt lat="49.03164" lon="2.00274">
        <ele>139.9</ele>
        <time>2022-04-14T12:47:47Z</time>
      </trkpt>
      <trkpt lat="49.03169" lon="2.00273">
        <ele>140.1</ele>
        <time>2022-04-14T12:47:53Z</time>
      </trkpt>
      <trkpt lat="49.03175" lon="2.00273">
        <ele>140.4</ele>
        <time>2022-04-14T12:47:58Z</time>
      </trkpt>
      <trkpt lat="49.03182" lon="2.00272">
        <ele>140.7</ele>
        <time>2022-04-14T12:48:04Z</time>
      </trkpt>
      <trkpt lat="49.0319" lon="2.00269">
        <ele>141.1</ele>
        <time>2022-04-14T12:48:10Z</time>
      </trkpt>
      <trkpt lat="49.03198" lon="2.00264">
        <ele>141.6</ele>
        <time>2022-04-14T12:48:16Z</time>
      </trkpt>
      <trkpt lat="49.03204" lon="2.0026">
        <ele>141.8</ele>
        <time>2022-04-14T12:48:21Z</time>
      </trkpt>
      <trkpt lat="49.03211" lon="2.00256">
        <ele>141.9</ele>
        <time>2022-04-14T12:48:27Z</time>
      </trkpt>
      <trkpt lat="49.03218" lon="2.00251">
        <ele>142</ele>
        <time>2022-04-14T12:48:32Z</time>
      </trkpt>
      <trkpt lat="49.03228" lon="2.00248">
        <ele>142.7</ele>
        <time>2022-04-14T12:48:38Z</time>
      </trkpt>
      <trkpt lat="49.03233" lon="2.00243">
        <ele>143.3</ele>
        <time>2022-04-14T12:48:44Z</time>
      </trkpt>
      <trkpt lat="49.03239" lon="2.00238">
        <ele>144</ele>
        <time>2022-04-14T12:48:50Z</time>
      </trkpt>
      <trkpt lat="49.03245" lon="2.00234">
        <ele>144.5</ele>
        <time>2022-04-14T12:48:55Z</time>
      </trkpt>
      <trkpt lat="49.0325" lon="2.00228">
        <ele>145</ele>
        <time>2022-04-14T12:49:01Z</time>
      </trkpt>
      <trkpt lat="49.03256" lon="2.00223">
        <ele>145.4</ele>
        <time>2022-04-14T12:49:06Z</time>
      </trkpt>
      <trkpt lat="49.0326" lon="2.00219">
        <ele>145.7</ele>
        <time>2022-04-14T12:49:11Z</time>
      </trkpt>
      <trkpt lat="49.03264" lon="2.00216">
        <ele>145.9</ele>
        <time>2022-04-14T12:49:17Z</time>
      </trkpt>
      <trkpt lat="49.03269" lon="2.00214">
        <ele>146.1</ele>
        <time>2022-04-14T12:49:22Z</time>
      </trkpt>
      <trkpt lat="49.03274" lon="2.00212">
        <ele>146.4</ele>
        <time>2022-04-14T12:49:27Z</time>
      </trkpt>
      <trkpt lat="49.0328" lon="2.00205">
        <ele>146.5</ele>
        <time>2022-04-14T12:49:33Z</time>
      </trkpt>
      <trkpt lat="49.03284" lon="2.00199">
        <ele>146.6</ele>
        <time>2022-04-14T12:49:38Z</time>
      </trkpt>
      <trkpt lat="49.03288" lon="2.00195">
        <ele>146.8</ele>
        <time>2022-04-14T12:49:44Z</time>
      </trkpt>
      <trkpt lat="49.03297" lon="2.00192">
        <ele>147.4</ele>
        <time>2022-04-14T12:49:49Z</time>
      </trkpt>
      <trkpt lat="49.03307" lon="2.00192">
        <ele>148</ele>
        <time>2022-04-14T12:49:55Z</time>
      </trkpt>
      <trkpt lat="49.03313" lon="2.00189">
        <ele>148.3</ele>
        <time>2022-04-14T12:50:01Z</time>
      </trkpt>
      <trkpt lat="49.03322" lon="2.00188">
        <ele>148.6</ele>
        <time>2022-04-14T12:50:07Z</time>
      </trkpt>
      <trkpt lat="49.03329" lon="2.00188">
        <ele>148.9</ele>
        <time>2022-04-14T12:50:13Z</time>
      </trkpt>
      <trkpt lat="49.03334" lon="2.00188">
        <ele>149</ele>
        <time>2022-04-14T12:50:18Z</time>
      </trkpt>
      <trkpt lat="49.03344" lon="2.00187">
        <ele>149.4</ele>
        <time>2022-04-14T12:50:24Z</time>
      </trkpt>
      <trkpt lat="49.03351" lon="2.00186">
        <ele>149.6</ele>
        <time>2022-04-14T12:50:30Z</time>
      </trkpt>
      <trkpt lat="49.03358" lon="2.00188">
        <ele>149.9</ele>
        <time>2022-04-14T12:50:36Z</time>
      </trkpt>
      <trkpt lat="49.03366" lon="2.00188">
        <ele>150.2</ele>
        <time>2022-04-14T12:50:41Z</time>
      </trkpt>
      <trkpt lat="49.03374" lon="2.00189">
        <ele>150.6</ele>
        <time>2022-04-14T12:50:47Z</time>
      </trkpt>
      <trkpt lat="49.03383" lon="2.00187">
        <ele>151</ele>
        <time>2022-04-14T12:50:53Z</time>
      </trkpt>
      <trkpt lat="49.0339" lon="2.00187">
        <ele>151.3</ele>
        <time>2022-04-14T12:50:59Z</time>
      </trkpt>
      <trkpt lat="49.03399" lon="2.00187">
        <ele>151.9</ele>
        <time>2022-04-14T12:51:05Z</time>
      </trkpt>
      <trkpt lat="49.03407" lon="2.00189">
        <ele>152.4</ele>
        <time>2022-04-14T12:51:11Z</time>
      </trkpt>
      <trkpt lat="49.03414" lon="2.00193">
        <ele>152.8</ele>
        <time>2022-04-14T12:51:16Z</time>
      </trkpt>
      <trkpt lat="49.03421" lon="2.00193">
        <ele>153.3</ele>
        <time>2022-04-14T12:51:22Z</time>
      </trkpt>
      <trkpt lat="49.03428" lon="2.00193">
        <ele>153.8</ele>
        <time>2022-04-14T12:51:27Z</time>
      </trkpt>
      <trkpt lat="49.03434" lon="2.00193">
        <ele>154.2</ele>
        <time>2022-04-14T12:51:33Z</time>
      </trkpt>
      <trkpt lat="49.03441" lon="2.00193">
        <ele>154.7</ele>
        <time>2022-04-14T12:51:38Z</time>
      </trkpt>
      <trkpt lat="49.03449" lon="2.00188">
        <ele>155.2</ele>
        <time>2022-04-14T12:51:44Z</time>
      </trkpt>
      <trkpt lat="49.03456" lon="2.00187">
        <ele>155.4</ele>
        <time>2022-04-14T12:51:49Z</time>
      </trkpt>
      <trkpt lat="49.03463" lon="2.00185">
        <ele>155.7</ele>
        <time>2022-04-14T12:51:55Z</time>
      </trkpt>
      <trkpt lat="49.03469" lon="2.00185">
        <ele>155.9</ele>
        <time>2022-04-14T12:52:00Z</time>
      </trkpt>
      <trkpt lat="49.03478" lon="2.00183">
        <ele>156.1</ele>
        <time>2022-04-14T12:52:06Z</time>
      </trkpt>
      <trkpt lat="49.03484" lon="2.00182">
        <ele>156.2</ele>
        <time>2022-04-14T12:52:11Z</time>
      </trkpt>
      <trkpt lat="49.03492" lon="2.00179">
        <ele>156.4</ele>
        <time>2022-04-14T12:52:17Z</time>
      </trkpt>
      <trkpt lat="49.03497" lon="2.00176">
        <ele>156.6</ele>
        <time>2022-04-14T12:52:23Z</time>
      </trkpt>
      <trkpt lat="49.03504" lon="2.00169">
        <ele>157</ele>
        <time>2022-04-14T12:52:29Z</time>
      </trkpt>
      <trkpt lat="49.03511" lon="2.00165">
        <ele>157.5</ele>
        <time>2022-04-14T12:52:34Z</time>
      </trkpt>
      <trkpt lat="49.03512" lon="2.00157">
        <ele>157.9</ele>
        <time>2022-04-14T12:52:40Z</time>
      </trkpt>
      <trkpt lat="49.03509" lon="2.00145">
        <ele>158.4</ele>
        <time>2022-04-14T12:52:46Z</time>
      </trkpt>
      <trkpt lat="49.03511" lon="2.00142">
        <ele>158.7</ele>
        <time>2022-04-14T12:52:51Z</time>
      </trkpt>
      <trkpt lat="49.03516" lon="2.00139">
        <ele>159.2</ele>
        <time>2022-04-14T12:52:57Z</time>
      </trkpt>
      <trkpt lat="49.03521" lon="2.00137">
        <ele>159.7</ele>
        <time>2022-04-14T12:53:03Z</time>
      </trkpt>
      <trkpt lat="49.03524" lon="2.00135">
        <ele>159.9</ele>
        <time>2022-04-14T12:53:08Z</time>
      </trkpt>
      <trkpt lat="49.03525" lon="2.00134">
        <ele>160.1</ele>
        <time>2022-04-14T12:53:13Z</time>
      </trkpt>
      <trkpt lat="49.03525" lon="2.00126">
        <ele>160.6</ele>
        <time>2022-04-14T12:53:19Z</time>
      </trkpt>
      <trkpt lat="49.03526" lon="2.00114">
        <ele>161.6</ele>
        <time>2022-04-14T12:53:24Z</time>
      </trkpt>
      <trkpt lat="49.03526" lon="2.00107">
        <ele>160.9</ele>
        <time>2022-04-14T12:53:30Z</time>
      </trkpt>
      <trkpt lat="49.03525" lon="2.001">
        <ele>159.7</ele>
        <time>2022-04-14T12:53:36Z</time>
      </trkpt>
      <trkpt lat="49.03526" lon="2.001">
        <ele>159.7</ele>
        <time>2022-04-14T12:53:42Z</time>
      </trkpt>
      <trkpt lat="49.03527" lon="2.00097">
        <ele>159.4</ele>
        <time>2022-04-14T12:53:47Z</time>
      </trkpt>
      <trkpt lat="49.03525" lon="2.00097">
        <ele>159</ele>
        <time>2022-04-14T12:53:53Z</time>
      </trkpt>
      <trkpt lat="49.03524" lon="2.001">
        <ele>159.4</ele>
        <time>2022-04-14T12:53:59Z</time>
      </trkpt>
      <trkpt lat="49.03524" lon="2.001">
        <ele>159.5</ele>
        <time>2022-04-14T12:54:05Z</time>
      </trkpt>
      <trkpt lat="49.03524" lon="2.00102">
        <ele>159.8</ele>
        <time>2022-04-14T12:54:10Z</time>
      </trkpt>
      <trkpt lat="49.03524" lon="2.00105">
        <ele>160.3</ele>
        <time>2022-04-14T12:54:16Z</time>
      </trkpt>
      <trkpt lat="49.03525" lon="2.00105">
        <ele>160.4</ele>
        <time>2022-04-14T12:54:21Z</time>
      </trkpt>
      <trkpt lat="49.03526" lon="2.00106">
        <ele>160.8</ele>
        <time>2022-04-14T12:54:27Z</time>
      </trkpt>
      <trkpt lat="49.03526" lon="2.00106">
        <ele>160.8</ele>
        <time>2022-04-14T12:54:32Z</time>
      </trkpt>
      <trkpt lat="49.03526" lon="2.00106">
        <ele>160.8</ele>
        <time>2022-04-14T12:54:38Z</time>
      </trkpt>
      <trkpt lat="49.03526" lon="2.00106">
        <ele>160.8</ele>
        <time>2022-04-14T12:54:43Z</time>
      </trkpt>
      <trkpt lat="49.03526" lon="2.00106">
        <ele>160.8</ele>
        <time>2022-04-14T12:54:49Z</time>
      </trkpt>
      <trkpt lat="49.03527" lon="2.00105">
        <ele>160.9</ele>
        <time>2022-04-14T12:54:54Z</time>
      </trkpt>
      <trkpt lat="49.03528" lon="2.00105">
        <ele>160.9</ele>
        <time>2022-04-14T12:55:00Z</time>
      </trkpt>
      <trkpt lat="49.03528" lon="2.00105">
        <ele>160.8</ele>
        <time>2022-04-14T12:55:05Z</time>
      </trkpt>
      <trkpt lat="49.03529" lon="2.00103">
        <ele>160.4</ele>
        <time>2022-04-14T12:55:11Z</time>
      </trkpt>
      <trkpt lat="49.0353" lon="2.00103">
        <ele>160.4</ele>
        <time>2022-04-14T12:55:17Z</time>
      </trkpt>
      <trkpt lat="49.03529" lon="2.001">
        <ele>159.9</ele>
        <time>2022-04-14T12:55:22Z</time>
      </trkpt>
      <trkpt lat="49.03527" lon="2.00097">
        <ele>159.5</ele>
        <time>2022-04-14T12:55:28Z</time>
      </trkpt>
      <trkpt lat="49.03527" lon="2.00097">
        <ele>159.3</ele>
        <time>2022-04-14T12:55:33Z</time>
      </trkpt>
      <trkpt lat="49.03527" lon="2.00096">
        <ele>159.2</ele>
        <time>2022-04-14T12:55:39Z</time>
      </trkpt>
      <trkpt lat="49.03527" lon="2.00096">
        <ele>159.1</ele>
        <time>2022-04-14T12:55:44Z</time>
      </trkpt>
      <trkpt lat="49.03523" lon="2.00091">
        <ele>157.9</ele>
        <time>2022-04-14T12:55:50Z</time>
      </trkpt>
      <trkpt lat="49.03521" lon="2.00087">
        <ele>157.1</ele>
        <time>2022-04-14T12:55:55Z</time>
      </trkpt>
      <trkpt lat="49.03523" lon="2.00082">
        <ele>156.5</ele>
        <time>2022-04-14T12:56:01Z</time>
      </trkpt>
      <trkpt lat="49.03523" lon="2.00078">
        <ele>156.3</ele>
        <time>2022-04-14T12:56:06Z</time>
      </trkpt>
      <trkpt lat="49.03525" lon="2.00068">
        <ele>155.8</ele>
        <time>2022-04-14T12:56:12Z</time>
      </trkpt>
      <trkpt lat="49.03529" lon="2.00065">
        <ele>155.6</ele>
        <time>2022-04-14T12:56:18Z</time>
      </trkpt>
      <trkpt lat="49.03533" lon="2.00069">
        <ele>155.9</ele>
        <time>2022-04-14T12:56:24Z</time>
      </trkpt>
      <trkpt lat="49.03537" lon="2.00077">
        <ele>156.5</ele>
        <time>2022-04-14T12:56:29Z</time>
      </trkpt>
      <trkpt lat="49.03541" lon="2.00084">
        <ele>157.1</ele>
        <time>2022-04-14T12:56:35Z</time>
      </trkpt>
      <trkpt lat="49.03546" lon="2.00086">
        <ele>157.3</ele>
        <time>2022-04-14T12:56:41Z</time>
      </trkpt>
      <trkpt lat="49.03552" lon="2.00091">
        <ele>157.7</ele>
        <time>2022-04-14T12:56:47Z</time>
      </trkpt>
      <trkpt lat="49.03557" lon="2.00096">
        <ele>157.8</ele>
        <time>2022-04-14T12:56:53Z</time>
      </trkpt>
      <trkpt lat="49.03563" lon="2.001">
        <ele>157.5</ele>
        <time>2022-04-14T12:56:58Z</time>
      </trkpt>
      <trkpt lat="49.03569" lon="2.00107">
        <ele>157.3</ele>
        <time>2022-04-14T12:57:04Z</time>
      </trkpt>
      <trkpt lat="49.03575" lon="2.00109">
        <ele>156.8</ele>
        <time>2022-04-14T12:57:09Z</time>
      </trkpt>
      <trkpt lat="49.03582" lon="2.00115">
        <ele>156.2</ele>
        <time>2022-04-14T12:57:15Z</time>
      </trkpt>
      <trkpt lat="49.0359" lon="2.00124">
        <ele>156.4</ele>
        <time>2022-04-14T12:57:21Z</time>
      </trkpt>
      <trkpt lat="49.03595" lon="2.00126">
        <ele>156.3</ele>
        <time>2022-04-14T12:57:27Z</time>
      </trkpt>
      <trkpt lat="49.03601" lon="2.00129">
        <ele>156.2</ele>
        <time>2022-04-14T12:57:32Z</time>
      </trkpt>
      <trkpt lat="49.03608" lon="2.00131">
        <ele>156.1</ele>
        <time>2022-04-14T12:57:38Z</time>
      </trkpt>
      <trkpt lat="49.03614" lon="2.00133">
        <ele>156</ele>
        <time>2022-04-14T12:57:43Z</time>
      </trkpt>
      <trkpt lat="49.03624" lon="2.00137">
        <ele>156</ele>
        <time>2022-04-14T12:57:49Z</time>
      </trkpt>
      <trkpt lat="49.03629" lon="2.00141">
        <ele>156</ele>
        <time>2022-04-14T12:57:54Z</time>
      </trkpt>
      <trkpt lat="49.03634" lon="2.00144">
        <ele>156</ele>
        <time>2022-04-14T12:58:00Z</time>
      </trkpt>
      <trkpt lat="49.03641" lon="2.00148">
        <ele>155.9</ele>
        <time>2022-04-14T12:58:06Z</time>
      </trkpt>
      <trkpt lat="49.03648" lon="2.00151">
        <ele>155.5</ele>
        <time>2022-04-14T12:58:11Z</time>
      </trkpt>
      <trkpt lat="49.03654" lon="2.00157">
        <ele>155.1</ele>
        <time>2022-04-14T12:58:17Z</time>
      </trkpt>
      <trkpt lat="49.0366" lon="2.00159">
        <ele>154.7</ele>
        <time>2022-04-14T12:58:22Z</time>
      </trkpt>
      <trkpt lat="49.03664" lon="2.00161">
        <ele>154.3</ele>
        <time>2022-04-14T12:58:27Z</time>
      </trkpt>
      <trkpt lat="49.03671" lon="2.00169">
        <ele>153.9</ele>
        <time>2022-04-14T12:58:33Z</time>
      </trkpt>
      <trkpt lat="49.03676" lon="2.00173">
        <ele>153.7</ele>
        <time>2022-04-14T12:58:39Z</time>
      </trkpt>
      <trkpt lat="49.03682" lon="2.00176">
        <ele>153.4</ele>
        <time>2022-04-14T12:58:45Z</time>
      </trkpt>
      <trkpt lat="49.03685" lon="2.0018">
        <ele>153.3</ele>
        <time>2022-04-14T12:58:50Z</time>
      </trkpt>
      <trkpt lat="49.03689" lon="2.00184">
        <ele>153.2</ele>
        <time>2022-04-14T12:58:55Z</time>
      </trkpt>
      <trkpt lat="49.03694" lon="2.00189">
        <ele>153</ele>
        <time>2022-04-14T12:59:00Z</time>
      </trkpt>
      <trkpt lat="49.03699" lon="2.00197">
        <ele>152.5</ele>
        <time>2022-04-14T12:59:06Z</time>
      </trkpt>
      <trkpt lat="49.03703" lon="2.00203">
        <ele>152</ele>
        <time>2022-04-14T12:59:12Z</time>
      </trkpt>
      <trkpt lat="49.03706" lon="2.00209">
        <ele>151.5</ele>
        <time>2022-04-14T12:59:18Z</time>
      </trkpt>
      <trkpt lat="49.03711" lon="2.00216">
        <ele>150.8</ele>
        <time>2022-04-14T12:59:24Z</time>
      </trkpt>
      <trkpt lat="49.03714" lon="2.00221">
        <ele>150.2</ele>
        <time>2022-04-14T12:59:29Z</time>
      </trkpt>
      <trkpt lat="49.03718" lon="2.00229">
        <ele>149.4</ele>
        <time>2022-04-14T12:59:35Z</time>
      </trkpt>
      <trkpt lat="49.0372" lon="2.00236">
        <ele>148.8</ele>
        <time>2022-04-14T12:59:40Z</time>
      </trkpt>
      <trkpt lat="49.03723" lon="2.00243">
        <ele>148.2</ele>
        <time>2022-04-14T12:59:45Z</time>
      </trkpt>
      <trkpt lat="49.03726" lon="2.00249">
        <ele>147.7</ele>
        <time>2022-04-14T12:59:51Z</time>
      </trkpt>
      <trkpt lat="49.03729" lon="2.00257">
        <ele>147.2</ele>
        <time>2022-04-14T12:59:57Z</time>
      </trkpt>
      <trkpt lat="49.03732" lon="2.00264">
        <ele>146.8</ele>
        <time>2022-04-14T13:00:02Z</time>
      </trkpt>
      <trkpt lat="49.03733" lon="2.00272">
        <ele>146.4</ele>
        <time>2022-04-14T13:00:07Z</time>
      </trkpt>
      <trkpt lat="49.03737" lon="2.00282">
        <ele>145.9</ele>
        <time>2022-04-14T13:00:13Z</time>
      </trkpt>
      <trkpt lat="49.0374" lon="2.00289">
        <ele>145.4</ele>
        <time>2022-04-14T13:00:18Z</time>
      </trkpt>
      <trkpt lat="49.03743" lon="2.00295">
        <ele>145</ele>
        <time>2022-04-14T13:00:23Z</time>
      </trkpt>
      <trkpt lat="49.03745" lon="2.00301">
        <ele>144.6</ele>
        <time>2022-04-14T13:00:29Z</time>
      </trkpt>
      <trkpt lat="49.03745" lon="2.00305">
        <ele>144.5</ele>
        <time>2022-04-14T13:00:35Z</time>
      </trkpt>
      <trkpt lat="49.03746" lon="2.00313">
        <ele>144.4</ele>
        <time>2022-04-14T13:00:40Z</time>
      </trkpt>
      <trkpt lat="49.03747" lon="2.00324">
        <ele>144.3</ele>
        <time>2022-04-14T13:00:46Z</time>
      </trkpt>
      <trkpt lat="49.03747" lon="2.00332">
        <ele>144.2</ele>
        <time>2022-04-14T13:00:51Z</time>
      </trkpt>
      <trkpt lat="49.03747" lon="2.00343">
        <ele>143.9</ele>
        <time>2022-04-14T13:00:57Z</time>
      </trkpt>
      <trkpt lat="49.03746" lon="2.00355">
        <ele>143.5</ele>
        <time>2022-04-14T13:01:03Z</time>
      </trkpt>
      <trkpt lat="49.03746" lon="2.00363">
        <ele>143.2</ele>
        <time>2022-04-14T13:01:09Z</time>
      </trkpt>
      <trkpt lat="49.03745" lon="2.00375">
        <ele>142.9</ele>
        <time>2022-04-14T13:01:15Z</time>
      </trkpt>
      <trkpt lat="49.03746" lon="2.00383">
        <ele>142.5</ele>
        <time>2022-04-14T13:01:21Z</time>
      </trkpt>
      <trkpt lat="49.03744" lon="2.00392">
        <ele>142.3</ele>
        <time>2022-04-14T13:01:26Z</time>
      </trkpt>
      <trkpt lat="49.03747" lon="2.00406">
        <ele>141.5</ele>
        <time>2022-04-14T13:01:32Z</time>
      </trkpt>
      <trkpt lat="49.03753" lon="2.00415">
        <ele>141</ele>
        <time>2022-04-14T13:01:37Z</time>
      </trkpt>
      <trkpt lat="49.03758" lon="2.0042">
        <ele>140.6</ele>
        <time>2022-04-14T13:01:43Z</time>
      </trkpt>
      <trkpt lat="49.03763" lon="2.00424">
        <ele>140.3</ele>
        <time>2022-04-14T13:01:49Z</time>
      </trkpt>
      <trkpt lat="49.03768" lon="2.00429">
        <ele>139.9</ele>
        <time>2022-04-14T13:01:54Z</time>
      </trkpt>
      <trkpt lat="49.03774" lon="2.00434">
        <ele>139.5</ele>
        <time>2022-04-14T13:02:00Z</time>
      </trkpt>
      <trkpt lat="49.03781" lon="2.00441">
        <ele>139.1</ele>
        <time>2022-04-14T13:02:06Z</time>
      </trkpt>
      <trkpt lat="49.03786" lon="2.00448">
        <ele>138.9</ele>
        <time>2022-04-14T13:02:11Z</time>
      </trkpt>
      <trkpt lat="49.03792" lon="2.00455">
        <ele>138.6</ele>
        <time>2022-04-14T13:02:16Z</time>
      </trkpt>
      <trkpt lat="49.03793" lon="2.00461">
        <ele>138.4</ele>
        <time>2022-04-14T13:02:22Z</time>
      </trkpt>
      <trkpt lat="49.03791" lon="2.00465">
        <ele>138.3</ele>
        <time>2022-04-14T13:02:27Z</time>
      </trkpt>
      <trkpt lat="49.03789" lon="2.00473">
        <ele>137.9</ele>
        <time>2022-04-14T13:02:33Z</time>
      </trkpt>
      <trkpt lat="49.03787" lon="2.00487">
        <ele>137</ele>
        <time>2022-04-14T13:02:39Z</time>
      </trkpt>
      <trkpt lat="49.03785" lon="2.00498">
        <ele>136.2</ele>
        <time>2022-04-14T13:02:44Z</time>
      </trkpt>
      <trkpt lat="49.03782" lon="2.00509">
        <ele>135.3</ele>
        <time>2022-04-14T13:02:50Z</time>
      </trkpt>
      <trkpt lat="49.03781" lon="2.00518">
        <ele>134.7</ele>
        <time>2022-04-14T13:02:55Z</time>
      </trkpt>
      <trkpt lat="49.03779" lon="2.00528">
        <ele>134</ele>
        <time>2022-04-14T13:03:01Z</time>
      </trkpt>
      <trkpt lat="49.03779" lon="2.00533">
        <ele>133.8</ele>
        <time>2022-04-14T13:03:06Z</time>
      </trkpt>
      <trkpt lat="49.0378" lon="2.00534">
        <ele>133.8</ele>
        <time>2022-04-14T13:03:11Z</time>
      </trkpt>
      <trkpt lat="49.0378" lon="2.00537">
        <ele>133.7</ele>
        <time>2022-04-14T13:03:17Z</time>
      </trkpt>
      <trkpt lat="49.0378" lon="2.00543">
        <ele>133.4</ele>
        <time>2022-04-14T13:03:23Z</time>
      </trkpt>
      <trkpt lat="49.0378" lon="2.00548">
        <ele>133.3</ele>
        <time>2022-04-14T13:03:29Z</time>
      </trkpt>
      <trkpt lat="49.0378" lon="2.00548">
        <ele>133.3</ele>
        <time>2022-04-14T13:03:34Z</time>
      </trkpt>
      <trkpt lat="49.0378" lon="2.00547">
        <ele>133.3</ele>
        <time>2022-04-14T13:03:40Z</time>
      </trkpt>
      <trkpt lat="49.0378" lon="2.00547">
        <ele>133.3</ele>
        <time>2022-04-14T13:03:46Z</time>
      </trkpt>
      <trkpt lat="49.03779" lon="2.00546">
        <ele>133.3</ele>
        <time>2022-04-14T13:03:52Z</time>
      </trkpt>
      <trkpt lat="49.0378" lon="2.00546">
        <ele>133.3</ele>
        <time>2022-04-14T13:03:57Z</time>
      </trkpt>
      <trkpt lat="49.0378" lon="2.00543">
        <ele>133.4</ele>
        <time>2022-04-14T13:04:02Z</time>
      </trkpt>
      <trkpt lat="49.03779" lon="2.00534">
        <ele>133.8</ele>
        <time>2022-04-14T13:04:07Z</time>
      </trkpt>
      <trkpt lat="49.03778" lon="2.00529">
        <ele>134</ele>
        <time>2022-04-14T13:04:12Z</time>
      </trkpt>
      <trkpt lat="49.0378" lon="2.00522">
        <ele>134.4</ele>
        <time>2022-04-14T13:04:18Z</time>
      </trkpt>
      <trkpt lat="49.03781" lon="2.0051">
        <ele>135.3</ele>
        <time>2022-04-14T13:04:24Z</time>
      </trkpt>
      <trkpt lat="49.03785" lon="2.00499">
        <ele>136.1</ele>
        <time>2022-04-14T13:04:30Z</time>
      </trkpt>
      <trkpt lat="49.03788" lon="2.00489">
        <ele>136.8</ele>
        <time>2022-04-14T13:04:36Z</time>
      </trkpt>
      <trkpt lat="49.03792" lon="2.00478">
        <ele>137.6</ele>
        <time>2022-04-14T13:04:42Z</time>
      </trkpt>
      <trkpt lat="49.03792" lon="2.00466">
        <ele>138.2</ele>
        <time>2022-04-14T13:04:48Z</time>
      </trkpt>
      <trkpt lat="49.03794" lon="2.00461">
        <ele>138.4</ele>
        <time>2022-04-14T13:04:54Z</time>
      </trkpt>
      <trkpt lat="49.038" lon="2.00466">
        <ele>138.2</ele>
        <time>2022-04-14T13:05:00Z</time>
      </trkpt>
      <trkpt lat="49.03805" lon="2.00479">
        <ele>137.5</ele>
        <time>2022-04-14T13:05:06Z</time>
      </trkpt>
      <trkpt lat="49.03807" lon="2.0049">
        <ele>136.7</ele>
        <time>2022-04-14T13:05:12Z</time>
      </trkpt>
      <trkpt lat="49.03808" lon="2.00502">
        <ele>135.8</ele>
        <time>2022-04-14T13:05:18Z</time>
      </trkpt>
      <trkpt lat="49.0381" lon="2.00515">
        <ele>135</ele>
        <time>2022-04-14T13:05:24Z</time>
      </trkpt>
      <trkpt lat="49.03812" lon="2.00525">
        <ele>134.4</ele>
        <time>2022-04-14T13:05:30Z</time>
      </trkpt>
      <trkpt lat="49.03815" lon="2.00534">
        <ele>134.1</ele>
        <time>2022-04-14T13:05:35Z</time>
      </trkpt>
      <trkpt lat="49.03817" lon="2.00543">
        <ele>133.9</ele>
        <time>2022-04-14T13:05:40Z</time>
      </trkpt>
      <trkpt lat="49.03818" lon="2.00553">
        <ele>133.5</ele>
        <time>2022-04-14T13:05:45Z</time>
      </trkpt>
      <trkpt lat="49.03819" lon="2.00567">
        <ele>132.7</ele>
        <time>2022-04-14T13:05:51Z</time>
      </trkpt>
      <trkpt lat="49.03821" lon="2.00577">
        <ele>132</ele>
        <time>2022-04-14T13:05:57Z</time>
      </trkpt>
      <trkpt lat="49.03822" lon="2.00586">
        <ele>131.4</ele>
        <time>2022-04-14T13:06:02Z</time>
      </trkpt>
      <trkpt lat="49.03824" lon="2.00597">
        <ele>130.9</ele>
        <time>2022-04-14T13:06:07Z</time>
      </trkpt>
      <trkpt lat="49.03824" lon="2.00605">
        <ele>130.4</ele>
        <time>2022-04-14T13:06:12Z</time>
      </trkpt>
      <trkpt lat="49.03825" lon="2.00615">
        <ele>129.8</ele>
        <time>2022-04-14T13:06:18Z</time>
      </trkpt>
      <trkpt lat="49.0383" lon="2.00627">
        <ele>129.4</ele>
        <time>2022-04-14T13:06:24Z</time>
      </trkpt>
      <trkpt lat="49.03833" lon="2.0064">
        <ele>128.9</ele>
        <time>2022-04-14T13:06:30Z</time>
      </trkpt>
      <trkpt lat="49.03834" lon="2.00651">
        <ele>128.2</ele>
        <time>2022-04-14T13:06:36Z</time>
      </trkpt>
      <trkpt lat="49.03836" lon="2.00658">
        <ele>127.6</ele>
        <time>2022-04-14T13:06:41Z</time>
      </trkpt>
      <trkpt lat="49.03837" lon="2.00671">
        <ele>126.8</ele>
        <time>2022-04-14T13:06:47Z</time>
      </trkpt>
      <trkpt lat="49.03839" lon="2.00685">
        <ele>126.2</ele>
        <time>2022-04-14T13:06:53Z</time>
      </trkpt>
      <trkpt lat="49.03841" lon="2.00698">
        <ele>125.5</ele>
        <time>2022-04-14T13:06:58Z</time>
      </trkpt>
      <trkpt lat="49.03845" lon="2.00708">
        <ele>124.8</ele>
        <time>2022-04-14T13:07:04Z</time>
      </trkpt>
      <trkpt lat="49.03848" lon="2.00714">
        <ele>124.4</ele>
        <time>2022-04-14T13:07:09Z</time>
      </trkpt>
      <trkpt lat="49.03852" lon="2.00721">
        <ele>124</ele>
        <time>2022-04-14T13:07:15Z</time>
      </trkpt>
      <trkpt lat="49.03857" lon="2.00731">
        <ele>123.7</ele>
        <time>2022-04-14T13:07:21Z</time>
      </trkpt>
      <trkpt lat="49.03862" lon="2.0074">
        <ele>123.3</ele>
        <time>2022-04-14T13:07:26Z</time>
      </trkpt>
      <trkpt lat="49.03868" lon="2.00748">
        <ele>122.6</ele>
        <time>2022-04-14T13:07:32Z</time>
      </trkpt>
      <trkpt lat="49.03872" lon="2.0076">
        <ele>121.6</ele>
        <time>2022-04-14T13:07:38Z</time>
      </trkpt>
      <trkpt lat="49.03877" lon="2.00768">
        <ele>120.9</ele>
        <time>2022-04-14T13:07:44Z</time>
      </trkpt>
      <trkpt lat="49.03883" lon="2.00777">
        <ele>120.3</ele>
        <time>2022-04-14T13:07:50Z</time>
      </trkpt>
      <trkpt lat="49.03889" lon="2.00784">
        <ele>119.8</ele>
        <time>2022-04-14T13:07:56Z</time>
      </trkpt>
      <trkpt lat="49.03896" lon="2.00789">
        <ele>119.3</ele>
        <time>2022-04-14T13:08:02Z</time>
      </trkpt>
      <trkpt lat="49.03902" lon="2.00794">
        <ele>118.9</ele>
        <time>2022-04-14T13:08:07Z</time>
      </trkpt>
      <trkpt lat="49.03908" lon="2.008">
        <ele>118.5</ele>
        <time>2022-04-14T13:08:12Z</time>
      </trkpt>
      <trkpt lat="49.03913" lon="2.00808">
        <ele>118.1</ele>
        <time>2022-04-14T13:08:18Z</time>
      </trkpt>
      <trkpt lat="49.03919" lon="2.00815">
        <ele>118</ele>
        <time>2022-04-14T13:08:24Z</time>
      </trkpt>
      <trkpt lat="49.03925" lon="2.00821">
        <ele>117.8</ele>
        <time>2022-04-14T13:08:30Z</time>
      </trkpt>
      <trkpt lat="49.03929" lon="2.00829">
        <ele>117.6</ele>
        <time>2022-04-14T13:08:35Z</time>
      </trkpt>
      <trkpt lat="49.03933" lon="2.00834">
        <ele>117.4</ele>
        <time>2022-04-14T13:08:40Z</time>
      </trkpt>
      <trkpt lat="49.03939" lon="2.0083">
        <ele>117.3</ele>
        <time>2022-04-14T13:08:46Z</time>
      </trkpt>
      <trkpt lat="49.03947" lon="2.00821">
        <ele>117.4</ele>
        <time>2022-04-14T13:08:52Z</time>
      </trkpt>
      <trkpt lat="49.03953" lon="2.00816">
        <ele>117.6</ele>
        <time>2022-04-14T13:08:57Z</time>
      </trkpt>
      <trkpt lat="49.03958" lon="2.0081">
        <ele>117.8</ele>
        <time>2022-04-14T13:09:03Z</time>
      </trkpt>
      <trkpt lat="49.03964" lon="2.00805">
        <ele>118</ele>
        <time>2022-04-14T13:09:08Z</time>
      </trkpt>
      <trkpt lat="49.0397" lon="2.008">
        <ele>118.2</ele>
        <time>2022-04-14T13:09:14Z</time>
      </trkpt>
      <trkpt lat="49.03976" lon="2.00796">
        <ele>118.3</ele>
        <time>2022-04-14T13:09:19Z</time>
      </trkpt>
      <trkpt lat="49.03983" lon="2.00791">
        <ele>118.3</ele>
        <time>2022-04-14T13:09:25Z</time>
      </trkpt>
      <trkpt lat="49.03989" lon="2.00787">
        <ele>118.3</ele>
        <time>2022-04-14T13:09:30Z</time>
      </trkpt>
      <trkpt lat="49.03993" lon="2.00785">
        <ele>118.2</ele>
        <time>2022-04-14T13:09:35Z</time>
      </trkpt>
      <trkpt lat="49.03997" lon="2.00779">
        <ele>118.1</ele>
        <time>2022-04-14T13:09:40Z</time>
      </trkpt>
      <trkpt lat="49.04003" lon="2.00775">
        <ele>118.1</ele>
        <time>2022-04-14T13:09:45Z</time>
      </trkpt>
      <trkpt lat="49.0401" lon="2.00767">
        <ele>118.4</ele>
        <time>2022-04-14T13:09:51Z</time>
      </trkpt>
      <trkpt lat="49.04018" lon="2.0076">
        <ele>118.6</ele>
        <time>2022-04-14T13:09:57Z</time>
      </trkpt>
      <trkpt lat="49.04024" lon="2.00751">
        <ele>119</ele>
        <time>2022-04-14T13:10:03Z</time>
      </trkpt>
      <trkpt lat="49.04028" lon="2.00742">
        <ele>119</ele>
        <time>2022-04-14T13:10:09Z</time>
      </trkpt>
      <trkpt lat="49.04034" lon="2.0074">
        <ele>118.9</ele>
        <time>2022-04-14T13:10:14Z</time>
      </trkpt>
      <trkpt lat="49.0404" lon="2.00742">
        <ele>118.7</ele>
        <time>2022-04-14T13:10:19Z</time>
      </trkpt>
      <trkpt lat="49.04046" lon="2.0074">
        <ele>118.6</ele>
        <time>2022-04-14T13:10:24Z</time>
      </trkpt>
      <trkpt lat="49.04053" lon="2.00739">
        <ele>118.4</ele>
        <time>2022-04-14T13:10:30Z</time>
      </trkpt>
      <trkpt lat="49.04061" lon="2.0074">
        <ele>118.3</ele>
        <time>2022-04-14T13:10:36Z</time>
      </trkpt>
      <trkpt lat="49.04069" lon="2.00728">
        <ele>118.8</ele>
        <time>2022-04-14T13:10:42Z</time>
      </trkpt>
      <trkpt lat="49.04076" lon="2.00723">
        <ele>119</ele>
        <time>2022-04-14T13:10:47Z</time>
      </trkpt>
      <trkpt lat="49.04084" lon="2.00719">
        <ele>119</ele>
        <time>2022-04-14T13:10:53Z</time>
      </trkpt>
      <trkpt lat="49.0409" lon="2.00716">
        <ele>118.8</ele>
        <time>2022-04-14T13:10:58Z</time>
      </trkpt>
      <trkpt lat="49.04097" lon="2.00712">
        <ele>118.7</ele>
        <time>2022-04-14T13:11:04Z</time>
      </trkpt>
      <trkpt lat="49.04103" lon="2.00709">
        <ele>118.6</ele>
        <time>2022-04-14T13:11:09Z</time>
      </trkpt>
      <trkpt lat="49.04109" lon="2.00706">
        <ele>118.6</ele>
        <time>2022-04-14T13:11:14Z</time>
      </trkpt>
      <trkpt lat="49.04115" lon="2.00703">
        <ele>118.7</ele>
        <time>2022-04-14T13:11:19Z</time>
      </trkpt>
      <trkpt lat="49.04123" lon="2.00699">
        <ele>118.8</ele>
        <time>2022-04-14T13:11:25Z</time>
      </trkpt>
      <trkpt lat="49.0413" lon="2.00696">
        <ele>119</ele>
        <time>2022-04-14T13:11:31Z</time>
      </trkpt>
      <trkpt lat="49.04137" lon="2.00692">
        <ele>119</ele>
        <time>2022-04-14T13:11:37Z</time>
      </trkpt>
      <trkpt lat="49.04144" lon="2.00688">
        <ele>119</ele>
        <time>2022-04-14T13:11:43Z</time>
      </trkpt>
      <trkpt lat="49.04151" lon="2.00684">
        <ele>119.2</ele>
        <time>2022-04-14T13:11:48Z</time>
      </trkpt>
      <trkpt lat="49.04157" lon="2.00678">
        <ele>119.4</ele>
        <time>2022-04-14T13:11:54Z</time>
      </trkpt>
      <trkpt lat="49.04161" lon="2.00672">
        <ele>119.6</ele>
        <time>2022-04-14T13:12:00Z</time>
      </trkpt>
      <trkpt lat="49.04165" lon="2.00664">
        <ele>119.9</ele>
        <time>2022-04-14T13:12:06Z</time>
      </trkpt>
      <trkpt lat="49.04168" lon="2.00655">
        <ele>120</ele>
        <time>2022-04-14T13:12:11Z</time>
      </trkpt>
      <trkpt lat="49.0417" lon="2.00644">
        <ele>120</ele>
        <time>2022-04-14T13:12:17Z</time>
      </trkpt>
      <trkpt lat="49.04172" lon="2.0063">
        <ele>120.3</ele>
        <time>2022-04-14T13:12:23Z</time>
      </trkpt>
      <trkpt lat="49.04175" lon="2.0062">
        <ele>120.7</ele>
        <time>2022-04-14T13:12:28Z</time>
      </trkpt>
      <trkpt lat="49.04181" lon="2.00608">
        <ele>121</ele>
        <time>2022-04-14T13:12:33Z</time>
      </trkpt>
      <trkpt lat="49.04185" lon="2.006">
        <ele>121</ele>
        <time>2022-04-14T13:12:39Z</time>
      </trkpt>
      <trkpt lat="49.04188" lon="2.00593">
        <ele>121</ele>
        <time>2022-04-14T13:12:44Z</time>
      </trkpt>
      <trkpt lat="49.04192" lon="2.00583">
        <ele>121</ele>
        <time>2022-04-14T13:12:50Z</time>
      </trkpt>
      <trkpt lat="49.04197" lon="2.00572">
        <ele>120.9</ele>
        <time>2022-04-14T13:12:56Z</time>
      </trkpt>
      <trkpt lat="49.04201" lon="2.00561">
        <ele>120.8</ele>
        <time>2022-04-14T13:13:02Z</time>
      </trkpt>
      <trkpt lat="49.04205" lon="2.00552">
        <ele>120.7</ele>
        <time>2022-04-14T13:13:07Z</time>
      </trkpt>
      <trkpt lat="49.04207" lon="2.00539">
        <ele>120.8</ele>
        <time>2022-04-14T13:13:13Z</time>
      </trkpt>
      <trkpt lat="49.04208" lon="2.0053">
        <ele>121</ele>
        <time>2022-04-14T13:13:18Z</time>
      </trkpt>
      <trkpt lat="49.04214" lon="2.0052">
        <ele>121</ele>
        <time>2022-04-14T13:13:24Z</time>
      </trkpt>
      <trkpt lat="49.04218" lon="2.00517">
        <ele>121</ele>
        <time>2022-04-14T13:13:29Z</time>
      </trkpt>
      <trkpt lat="49.04224" lon="2.00517">
        <ele>120.9</ele>
        <time>2022-04-14T13:13:34Z</time>
      </trkpt>
      <trkpt lat="49.04232" lon="2.00512">
        <ele>120.6</ele>
        <time>2022-04-14T13:13:40Z</time>
      </trkpt>
      <trkpt lat="49.04238" lon="2.00501">
        <ele>120.4</ele>
        <time>2022-04-14T13:13:45Z</time>
      </trkpt>
      <trkpt lat="49.0424" lon="2.00492">
        <ele>120.4</ele>
        <time>2022-04-14T13:13:50Z</time>
      </trkpt>
      <trkpt lat="49.04239" lon="2.00483">
        <ele>120.4</ele>
        <time>2022-04-14T13:13:55Z</time>
      </trkpt>
      <trkpt lat="49.04235" lon="2.0047">
        <ele>120.5</ele>
        <time>2022-04-14T13:14:01Z</time>
      </trkpt>
      <trkpt lat="49.04234" lon="2.00459">
        <ele>120.3</ele>
        <time>2022-04-14T13:14:07Z</time>
      </trkpt>
      <trkpt lat="49.04236" lon="2.00446">
        <ele>120</ele>
        <time>2022-04-14T13:14:13Z</time>
      </trkpt>
      <trkpt lat="49.0424" lon="2.00436">
        <ele>120</ele>
        <time>2022-04-14T13:14:19Z</time>
      </trkpt>
      <trkpt lat="49.04242" lon="2.00427">
        <ele>120</ele>
        <time>2022-04-14T13:14:25Z</time>
      </trkpt>
      <trkpt lat="49.04246" lon="2.00416">
        <ele>120</ele>
        <time>2022-04-14T13:14:31Z</time>
      </trkpt>
      <trkpt lat="49.0425" lon="2.00404">
        <ele>119.6</ele>
        <time>2022-04-14T13:14:37Z</time>
      </trkpt>
      <trkpt lat="49.04254" lon="2.00394">
        <ele>119.1</ele>
        <time>2022-04-14T13:14:43Z</time>
      </trkpt>
      <trkpt lat="49.04258" lon="2.00384">
        <ele>119</ele>
        <time>2022-04-14T13:14:49Z</time>
      </trkpt>
      <trkpt lat="49.04262" lon="2.00371">
        <ele>119</ele>
        <time>2022-04-14T13:14:55Z</time>
      </trkpt>
      <trkpt lat="49.04264" lon="2.00359">
        <ele>119</ele>
        <time>2022-04-14T13:15:00Z</time>
      </trkpt>
      <trkpt lat="49.04268" lon="2.0035">
        <ele>119</ele>
        <time>2022-04-14T13:15:06Z</time>
      </trkpt>
      <trkpt lat="49.0427" lon="2.00342">
        <ele>119</ele>
        <time>2022-04-14T13:15:11Z</time>
      </trkpt>
      <trkpt lat="49.04272" lon="2.00334">
        <ele>119</ele>
        <time>2022-04-14T13:15:16Z</time>
      </trkpt>
      <trkpt lat="49.04275" lon="2.00324">
        <ele>119</ele>
        <time>2022-04-14T13:15:22Z</time>
      </trkpt>
      <trkpt lat="49.04278" lon="2.00315">
        <ele>119</ele>
        <time>2022-04-14T13:15:28Z</time>
      </trkpt>
      <trkpt lat="49.04281" lon="2.00308">
        <ele>118.9</ele>
        <time>2022-04-14T13:15:33Z</time>
      </trkpt>
      <trkpt lat="49.04288" lon="2.00306">
        <ele>118.6</ele>
        <time>2022-04-14T13:15:39Z</time>
      </trkpt>
      <trkpt lat="49.04294" lon="2.00309">
        <ele>118.4</ele>
        <time>2022-04-14T13:15:44Z</time>
      </trkpt>
      <trkpt lat="49.04305" lon="2.00309">
        <ele>118</ele>
        <time>2022-04-14T13:15:50Z</time>
      </trkpt>
      <trkpt lat="49.04314" lon="2.00303">
        <ele>117.7</ele>
        <time>2022-04-14T13:15:56Z</time>
      </trkpt>
      <trkpt lat="49.04315" lon="2.00292">
        <ele>117.6</ele>
        <time>2022-04-14T13:16:01Z</time>
      </trkpt>
      <trkpt lat="49.04316" lon="2.0028">
        <ele>117.6</ele>
        <time>2022-04-14T13:16:06Z</time>
      </trkpt>
      <trkpt lat="49.04318" lon="2.00267">
        <ele>117.5</ele>
        <time>2022-04-14T13:16:12Z</time>
      </trkpt>
      <trkpt lat="49.04323" lon="2.00256">
        <ele>117.4</ele>
        <time>2022-04-14T13:16:18Z</time>
      </trkpt>
      <trkpt lat="49.04325" lon="2.00243">
        <ele>117.3</ele>
        <time>2022-04-14T13:16:24Z</time>
      </trkpt>
      <trkpt lat="49.04328" lon="2.00233">
        <ele>117.2</ele>
        <time>2022-04-14T13:16:30Z</time>
      </trkpt>
      <trkpt lat="49.04332" lon="2.00225">
        <ele>117.1</ele>
        <time>2022-04-14T13:16:35Z</time>
      </trkpt>
      <trkpt lat="49.04335" lon="2.00218">
        <ele>116.9</ele>
        <time>2022-04-14T13:16:40Z</time>
      </trkpt>
      <trkpt lat="49.04342" lon="2.00214">
        <ele>116.7</ele>
        <time>2022-04-14T13:16:46Z</time>
      </trkpt>
      <trkpt lat="49.04347" lon="2.00216">
        <ele>116.5</ele>
        <time>2022-04-14T13:16:52Z</time>
      </trkpt>
      <trkpt lat="49.04354" lon="2.00221">
        <ele>116.2</ele>
        <time>2022-04-14T13:16:58Z</time>
      </trkpt>
      <trkpt lat="49.04361" lon="2.00225">
        <ele>116</ele>
        <time>2022-04-14T13:17:04Z</time>
      </trkpt>
      <trkpt lat="49.04368" lon="2.00229">
        <ele>115.8</ele>
        <time>2022-04-14T13:17:09Z</time>
      </trkpt>
      <trkpt lat="49.04372" lon="2.00232">
        <ele>115.6</ele>
        <time>2022-04-14T13:17:14Z</time>
      </trkpt>
      <trkpt lat="49.04375" lon="2.00234">
        <ele>115.5</ele>
        <time>2022-04-14T13:17:19Z</time>
      </trkpt>
      <trkpt lat="49.04381" lon="2.00238">
        <ele>115.3</ele>
        <time>2022-04-14T13:17:25Z</time>
      </trkpt>
      <trkpt lat="49.04388" lon="2.00243">
        <ele>115</ele>
        <time>2022-04-14T13:17:31Z</time>
      </trkpt>
      <trkpt lat="49.04393" lon="2.00247">
        <ele>115</ele>
        <time>2022-04-14T13:17:37Z</time>
      </trkpt>
      <trkpt lat="49.04398" lon="2.00251">
        <ele>115</ele>
        <time>2022-04-14T13:17:43Z</time>
      </trkpt>
      <trkpt lat="49.044" lon="2.00257">
        <ele>114.9</ele>
        <time>2022-04-14T13:17:48Z</time>
      </trkpt>
      <trkpt lat="49.04402" lon="2.00263">
        <ele>114.8</ele>
        <time>2022-04-14T13:17:53Z</time>
      </trkpt>
      <trkpt lat="49.04401" lon="2.00275">
        <ele>114.6</ele>
        <time>2022-04-14T13:17:59Z</time>
      </trkpt>
      <trkpt lat="49.04401" lon="2.00284">
        <ele>114.6</ele>
        <time>2022-04-14T13:18:04Z</time>
      </trkpt>
      <trkpt lat="49.04404" lon="2.00293">
        <ele>114.4</ele>
        <time>2022-04-14T13:18:10Z</time>
      </trkpt>
      <trkpt lat="49.04409" lon="2.00304">
        <ele>114.3</ele>
        <time>2022-04-14T13:18:16Z</time>
      </trkpt>
      <trkpt lat="49.04412" lon="2.00315">
        <ele>114.2</ele>
        <time>2022-04-14T13:18:21Z</time>
      </trkpt>
      <trkpt lat="49.04414" lon="2.00327">
        <ele>114.1</ele>
        <time>2022-04-14T13:18:27Z</time>
      </trkpt>
      <trkpt lat="49.04416" lon="2.00339">
        <ele>114.2</ele>
        <time>2022-04-14T13:18:33Z</time>
      </trkpt>
      <trkpt lat="49.04418" lon="2.00347">
        <ele>114.5</ele>
        <time>2022-04-14T13:18:38Z</time>
      </trkpt>
      <trkpt lat="49.0442" lon="2.00358">
        <ele>114.8</ele>
        <time>2022-04-14T13:18:44Z</time>
      </trkpt>
      <trkpt lat="49.04423" lon="2.00366">
        <ele>114.8</ele>
        <time>2022-04-14T13:18:49Z</time>
      </trkpt>
      <trkpt lat="49.04427" lon="2.00374">
        <ele>114.6</ele>
        <time>2022-04-14T13:18:54Z</time>
      </trkpt>
      <trkpt lat="49.04432" lon="2.00385">
        <ele>114.4</ele>
        <time>2022-04-14T13:19:00Z</time>
      </trkpt>
      <trkpt lat="49.04435" lon="2.00392">
        <ele>114.4</ele>
        <time>2022-04-14T13:19:06Z</time>
      </trkpt>
      <trkpt lat="49.04438" lon="2.00397">
        <ele>114.2</ele>
        <time>2022-04-14T13:19:11Z</time>
      </trkpt>
      <trkpt lat="49.04442" lon="2.00404">
        <ele>114.1</ele>
        <time>2022-04-14T13:19:16Z</time>
      </trkpt>
      <trkpt lat="49.04444" lon="2.00417">
        <ele>114</ele>
        <time>2022-04-14T13:19:22Z</time>
      </trkpt>
      <trkpt lat="49.04444" lon="2.00436">
        <ele>114.7</ele>
        <time>2022-04-14T13:19:27Z</time>
      </trkpt>
      <trkpt lat="49.04446" lon="2.0045">
        <ele>115</ele>
        <time>2022-04-14T13:19:32Z</time>
      </trkpt>
      <trkpt lat="49.0445" lon="2.00464">
        <ele>114.9</ele>
        <time>2022-04-14T13:19:38Z</time>
      </trkpt>
      <trkpt lat="49.04454" lon="2.00474">
        <ele>115</ele>
        <time>2022-04-14T13:19:43Z</time>
      </trkpt>
      <trkpt lat="49.04457" lon="2.00484">
        <ele>115</ele>
        <time>2022-04-14T13:19:48Z</time>
      </trkpt>
      <trkpt lat="49.04458" lon="2.00493">
        <ele>115</ele>
        <time>2022-04-14T13:19:54Z</time>
      </trkpt>
      <trkpt lat="49.04461" lon="2.00503">
        <ele>115.1</ele>
        <time>2022-04-14T13:20:00Z</time>
      </trkpt>
      <trkpt lat="49.04464" lon="2.00514">
        <ele>115.2</ele>
        <time>2022-04-14T13:20:05Z</time>
      </trkpt>
      <trkpt lat="49.04471" lon="2.00522">
        <ele>115</ele>
        <time>2022-04-14T13:20:11Z</time>
      </trkpt>
      <trkpt lat="49.04478" lon="2.00526">
        <ele>115</ele>
        <time>2022-04-14T13:20:17Z</time>
      </trkpt>
      <trkpt lat="49.04484" lon="2.00518">
        <ele>114.9</ele>
        <time>2022-04-14T13:20:23Z</time>
      </trkpt>
      <trkpt lat="49.04488" lon="2.0051">
        <ele>114.6</ele>
        <time>2022-04-14T13:20:28Z</time>
      </trkpt>
      <trkpt lat="49.04491" lon="2.00498">
        <ele>114.3</ele>
        <time>2022-04-14T13:20:33Z</time>
      </trkpt>
      <trkpt lat="49.04494" lon="2.00486">
        <ele>114.2</ele>
        <time>2022-04-14T13:20:39Z</time>
      </trkpt>
      <trkpt lat="49.04499" lon="2.00481">
        <ele>114.1</ele>
        <time>2022-04-14T13:20:45Z</time>
      </trkpt>
      <trkpt lat="49.04504" lon="2.00484">
        <ele>113.9</ele>
        <time>2022-04-14T13:20:50Z</time>
      </trkpt>
      <trkpt lat="49.04511" lon="2.00486">
        <ele>113.6</ele>
        <time>2022-04-14T13:20:56Z</time>
      </trkpt>
      <trkpt lat="49.04516" lon="2.00477">
        <ele>113.4</ele>
        <time>2022-04-14T13:21:02Z</time>
      </trkpt>
      <trkpt lat="49.04518" lon="2.00466">
        <ele>113.4</ele>
        <time>2022-04-14T13:21:07Z</time>
      </trkpt>
      <trkpt lat="49.04519" lon="2.00454">
        <ele>113.3</ele>
        <time>2022-04-14T13:21:13Z</time>
      </trkpt>
      <trkpt lat="49.04521" lon="2.0044">
        <ele>113.2</ele>
        <time>2022-04-14T13:21:19Z</time>
      </trkpt>
      <trkpt lat="49.04523" lon="2.00429">
        <ele>113.2</ele>
        <time>2022-04-14T13:21:24Z</time>
      </trkpt>
      <trkpt lat="49.04525" lon="2.00419">
        <ele>113.1</ele>
        <time>2022-04-14T13:21:30Z</time>
      </trkpt>
      <trkpt lat="49.04528" lon="2.00409">
        <ele>113</ele>
        <time>2022-04-14T13:21:36Z</time>
      </trkpt>
      <trkpt lat="49.0453" lon="2.00399">
        <ele>113</ele>
        <time>2022-04-14T13:21:42Z</time>
      </trkpt>
      <trkpt lat="49.04534" lon="2.00397">
        <ele>113</ele>
        <time>2022-04-14T13:21:48Z</time>
      </trkpt>
      <trkpt lat="49.04542" lon="2.00399">
        <ele>113</ele>
        <time>2022-04-14T13:21:54Z</time>
      </trkpt>
      <trkpt lat="49.04547" lon="2.00399">
        <ele>113</ele>
        <time>2022-04-14T13:22:00Z</time>
      </trkpt>
      <trkpt lat="49.04553" lon="2.00404">
        <ele>113</ele>
        <time>2022-04-14T13:22:06Z</time>
      </trkpt>
      <trkpt lat="49.04559" lon="2.00405">
        <ele>113</ele>
        <time>2022-04-14T13:22:11Z</time>
      </trkpt>
      <trkpt lat="49.04566" lon="2.00401">
        <ele>113</ele>
        <time>2022-04-14T13:22:17Z</time>
      </trkpt>
      <trkpt lat="49.04571" lon="2.00398">
        <ele>113</ele>
        <time>2022-04-14T13:22:23Z</time>
      </trkpt>
      <trkpt lat="49.04578" lon="2.00399">
        <ele>113</ele>
        <time>2022-04-14T13:22:29Z</time>
      </trkpt>
      <trkpt lat="49.04582" lon="2.00405">
        <ele>113</ele>
        <time>2022-04-14T13:22:34Z</time>
      </trkpt>
      <trkpt lat="49.04588" lon="2.00421">
        <ele>113</ele>
        <time>2022-04-14T13:22:40Z</time>
      </trkpt>
      <trkpt lat="49.04594" lon="2.00432">
        <ele>113</ele>
        <time>2022-04-14T13:22:46Z</time>
      </trkpt>
      <trkpt lat="49.04598" lon="2.00444">
        <ele>113</ele>
        <time>2022-04-14T13:22:52Z</time>
      </trkpt>
      <trkpt lat="49.04603" lon="2.00455">
        <ele>113</ele>
        <time>2022-04-14T13:22:58Z</time>
      </trkpt>
      <trkpt lat="49.04608" lon="2.00463">
        <ele>113</ele>
        <time>2022-04-14T13:23:04Z</time>
      </trkpt>
      <trkpt lat="49.04614" lon="2.00472">
        <ele>113</ele>
        <time>2022-04-14T13:23:10Z</time>
      </trkpt>
      <trkpt lat="49.04617" lon="2.00479">
        <ele>112.8</ele>
        <time>2022-04-14T13:23:15Z</time>
      </trkpt>
      <trkpt lat="49.0462" lon="2.00486">
        <ele>112.5</ele>
        <time>2022-04-14T13:23:21Z</time>
      </trkpt>
      <trkpt lat="49.04622" lon="2.00494">
        <ele>112.2</ele>
        <time>2022-04-14T13:23:26Z</time>
      </trkpt>
      <trkpt lat="49.04627" lon="2.00507">
        <ele>111.6</ele>
        <time>2022-04-14T13:23:32Z</time>
      </trkpt>
      <trkpt lat="49.04632" lon="2.00514">
        <ele>111.1</ele>
        <time>2022-04-14T13:23:38Z</time>
      </trkpt>
      <trkpt lat="49.04636" lon="2.00522">
        <ele>110.5</ele>
        <time>2022-04-14T13:23:44Z</time>
      </trkpt>
      <trkpt lat="49.04639" lon="2.00529">
        <ele>110</ele>
        <time>2022-04-14T13:23:49Z</time>
      </trkpt>
      <trkpt lat="49.04643" lon="2.00539">
        <ele>110.1</ele>
        <time>2022-04-14T13:23:55Z</time>
      </trkpt>
      <trkpt lat="49.04645" lon="2.00549">
        <ele>110</ele>
        <time>2022-04-14T13:24:00Z</time>
      </trkpt>
      <trkpt lat="49.04649" lon="2.0056">
        <ele>110</ele>
        <time>2022-04-14T13:24:06Z</time>
      </trkpt>
      <trkpt lat="49.04651" lon="2.00575">
        <ele>109.7</ele>
        <time>2022-04-14T13:24:12Z</time>
      </trkpt>
      <trkpt lat="49.04654" lon="2.00585">
        <ele>109.5</ele>
        <time>2022-04-14T13:24:17Z</time>
      </trkpt>
      <trkpt lat="49.04656" lon="2.00594">
        <ele>109.2</ele>
        <time>2022-04-14T13:24:22Z</time>
      </trkpt>
      <trkpt lat="49.04662" lon="2.00604">
        <ele>109.1</ele>
        <time>2022-04-14T13:24:28Z</time>
      </trkpt>
      <trkpt lat="49.04666" lon="2.00612">
        <ele>109</ele>
        <time>2022-04-14T13:24:33Z</time>
      </trkpt>
      <trkpt lat="49.04674" lon="2.00618">
        <ele>109.9</ele>
        <time>2022-04-14T13:24:39Z</time>
      </trkpt>
      <trkpt lat="49.04679" lon="2.00626">
        <ele>110.3</ele>
        <time>2022-04-14T13:24:45Z</time>
      </trkpt>
      <trkpt lat="49.04684" lon="2.00636">
        <ele>110.4</ele>
        <time>2022-04-14T13:24:51Z</time>
      </trkpt>
      <trkpt lat="49.04689" lon="2.00646">
        <ele>110.8</ele>
        <time>2022-04-14T13:24:57Z</time>
      </trkpt>
      <trkpt lat="49.04694" lon="2.00656">
        <ele>111.6</ele>
        <time>2022-04-14T13:25:03Z</time>
      </trkpt>
      <trkpt lat="49.04699" lon="2.00665">
        <ele>112.1</ele>
        <time>2022-04-14T13:25:09Z</time>
      </trkpt>
      <trkpt lat="49.04702" lon="2.00672">
        <ele>112.4</ele>
        <time>2022-04-14T13:25:14Z</time>
      </trkpt>
      <trkpt lat="49.04705" lon="2.00682">
        <ele>112.7</ele>
        <time>2022-04-14T13:25:20Z</time>
      </trkpt>
      <trkpt lat="49.04707" lon="2.00692">
        <ele>112.9</ele>
        <time>2022-04-14T13:25:26Z</time>
      </trkpt>
      <trkpt lat="49.04711" lon="2.00699">
        <ele>113.2</ele>
        <time>2022-04-14T13:25:31Z</time>
      </trkpt>
      <trkpt lat="49.04714" lon="2.00705">
        <ele>113.4</ele>
        <time>2022-04-14T13:25:37Z</time>
      </trkpt>
      <trkpt lat="49.04717" lon="2.00712">
        <ele>113.6</ele>
        <time>2022-04-14T13:25:42Z</time>
      </trkpt>
      <trkpt lat="49.04725" lon="2.00727">
        <ele>113.9</ele>
        <time>2022-04-14T13:25:48Z</time>
      </trkpt>
      <trkpt lat="49.04731" lon="2.00737">
        <ele>113.7</ele>
        <time>2022-04-14T13:25:54Z</time>
      </trkpt>
      <trkpt lat="49.04733" lon="2.00745">
        <ele>113.6</ele>
        <time>2022-04-14T13:25:59Z</time>
      </trkpt>
      <trkpt lat="49.04736" lon="2.00752">
        <ele>113.5</ele>
        <time>2022-04-14T13:26:05Z</time>
      </trkpt>
      <trkpt lat="49.04738" lon="2.00758">
        <ele>113.5</ele>
        <time>2022-04-14T13:26:10Z</time>
      </trkpt>
      <trkpt lat="49.04741" lon="2.00763">
        <ele>113.5</ele>
        <time>2022-04-14T13:26:15Z</time>
      </trkpt>
      <trkpt lat="49.04746" lon="2.00769">
        <ele>113.6</ele>
        <time>2022-04-14T13:26:21Z</time>
      </trkpt>
      <trkpt lat="49.04751" lon="2.00775">
        <ele>113.9</ele>
        <time>2022-04-14T13:26:26Z</time>
      </trkpt>
      <trkpt lat="49.04752" lon="2.00782">
        <ele>113.8</ele>
        <time>2022-04-14T13:26:31Z</time>
      </trkpt>
      <trkpt lat="49.04755" lon="2.00787">
        <ele>113.6</ele>
        <time>2022-04-14T13:26:37Z</time>
      </trkpt>
      <trkpt lat="49.04761" lon="2.00789">
        <ele>113.4</ele>
        <time>2022-04-14T13:26:43Z</time>
      </trkpt>
      <trkpt lat="49.04767" lon="2.0079">
        <ele>113.2</ele>
        <time>2022-04-14T13:26:48Z</time>
      </trkpt>
      <trkpt lat="49.04776" lon="2.00793">
        <ele>113</ele>
        <time>2022-04-14T13:26:54Z</time>
      </trkpt>
      <trkpt lat="49.04782" lon="2.00797">
        <ele>113.1</ele>
        <time>2022-04-14T13:26:59Z</time>
      </trkpt>
      <trkpt lat="49.04786" lon="2.00804">
        <ele>113.3</ele>
        <time>2022-04-14T13:27:05Z</time>
      </trkpt>
      <trkpt lat="49.0479" lon="2.00812">
        <ele>113.7</ele>
        <time>2022-04-14T13:27:11Z</time>
      </trkpt>
      <trkpt lat="49.04791" lon="2.00817">
        <ele>113.9</ele>
        <time>2022-04-14T13:27:17Z</time>
      </trkpt>
      <trkpt lat="49.04792" lon="2.00819">
        <ele>114</ele>
        <time>2022-04-14T13:27:23Z</time>
      </trkpt>
      <trkpt lat="49.04792" lon="2.0082">
        <ele>114</ele>
        <time>2022-04-14T13:27:28Z</time>
      </trkpt>
      <trkpt lat="49.04793" lon="2.00823">
        <ele>114.1</ele>
        <time>2022-04-14T13:27:33Z</time>
      </trkpt>
      <trkpt lat="49.04796" lon="2.00826">
        <ele>114.2</ele>
        <time>2022-04-14T13:27:39Z</time>
      </trkpt>
      <trkpt lat="49.04799" lon="2.0083">
        <ele>114.2</ele>
        <time>2022-04-14T13:27:45Z</time>
      </trkpt>
      <trkpt lat="49.04802" lon="2.00833">
        <ele>114.1</ele>
        <time>2022-04-14T13:27:50Z</time>
      </trkpt>
      <trkpt lat="49.04808" lon="2.00837">
        <ele>113.9</ele>
        <time>2022-04-14T13:27:55Z</time>
      </trkpt>
      <trkpt lat="49.04816" lon="2.00842">
        <ele>113.5</ele>
        <time>2022-04-14T13:28:01Z</time>
      </trkpt>
      <trkpt lat="49.04825" lon="2.00843">
        <ele>113</ele>
        <time>2022-04-14T13:28:07Z</time>
      </trkpt>
      <trkpt lat="49.04833" lon="2.00843">
        <ele>112.7</ele>
        <time>2022-04-14T13:28:13Z</time>
      </trkpt>
      <trkpt lat="49.04841" lon="2.00844">
        <ele>112.6</ele>
        <time>2022-04-14T13:28:18Z</time>
      </trkpt>
      <trkpt lat="49.0485" lon="2.00844">
        <ele>112.6</ele>
        <time>2022-04-14T13:28:24Z</time>
      </trkpt>
      <trkpt lat="49.04859" lon="2.00847">
        <ele>112.5</ele>
        <time>2022-04-14T13:28:30Z</time>
      </trkpt>
      <trkpt lat="49.04865" lon="2.0085">
        <ele>112.5</ele>
        <time>2022-04-14T13:28:35Z</time>
      </trkpt>
      <trkpt lat="49.04875" lon="2.00853">
        <ele>112.6</ele>
        <time>2022-04-14T13:28:41Z</time>
      </trkpt>
      <trkpt lat="49.0488" lon="2.00855">
        <ele>112.8</ele>
        <time>2022-04-14T13:28:46Z</time>
      </trkpt>
      <trkpt lat="49.04879" lon="2.00858">
        <ele>112.7</ele>
        <time>2022-04-14T13:28:51Z</time>
      </trkpt>
      <trkpt lat="49.04876" lon="2.00864">
        <ele>112.6</ele>
        <time>2022-04-14T13:28:56Z</time>
      </trkpt>
      <trkpt lat="49.04874" lon="2.00873">
        <ele>112.4</ele>
        <time>2022-04-14T13:29:01Z</time>
      </trkpt>
      <trkpt lat="49.0487" lon="2.00882">
        <ele>112.1</ele>
        <time>2022-04-14T13:29:07Z</time>
      </trkpt>
      <trkpt lat="49.04866" lon="2.00892">
        <ele>111.8</ele>
        <time>2022-04-14T13:29:13Z</time>
      </trkpt>
      <trkpt lat="49.04862" lon="2.00905">
        <ele>112.2</ele>
        <time>2022-04-14T13:29:19Z</time>
      </trkpt>
      <trkpt lat="49.04859" lon="2.00916">
        <ele>112.8</ele>
        <time>2022-04-14T13:29:24Z</time>
      </trkpt>
      <trkpt lat="49.04857" lon="2.0093">
        <ele>113.4</ele>
        <time>2022-04-14T13:29:29Z</time>
      </trkpt>
      <trkpt lat="49.04857" lon="2.00944">
        <ele>114.1</ele>
        <time>2022-04-14T13:29:35Z</time>
      </trkpt>
      <trkpt lat="49.04858" lon="2.00952">
        <ele>114.4</ele>
        <time>2022-04-14T13:29:40Z</time>
      </trkpt>
      <trkpt lat="49.04858" lon="2.00959">
        <ele>114.6</ele>
        <time>2022-04-14T13:29:46Z</time>
      </trkpt>
      <trkpt lat="49.04857" lon="2.00968">
        <ele>114.9</ele>
        <time>2022-04-14T13:29:52Z</time>
      </trkpt>
      <trkpt lat="49.04855" lon="2.00979">
        <ele>115.1</ele>
        <time>2022-04-14T13:29:58Z</time>
      </trkpt>
      <trkpt lat="49.04854" lon="2.00989">
        <ele>115.2</ele>
        <time>2022-04-14T13:30:03Z</time>
      </trkpt>
      <trkpt lat="49.04852" lon="2.01">
        <ele>115.3</ele>
        <time>2022-04-14T13:30:09Z</time>
      </trkpt>
      <trkpt lat="49.04848" lon="2.01009">
        <ele>115.6</ele>
        <time>2022-04-14T13:30:15Z</time>
      </trkpt>
      <trkpt lat="49.04845" lon="2.01019">
        <ele>115.9</ele>
        <time>2022-04-14T13:30:20Z</time>
      </trkpt>
      <trkpt lat="49.04842" lon="2.01027">
        <ele>116</ele>
        <time>2022-04-14T13:30:26Z</time>
      </trkpt>
      <trkpt lat="49.04841" lon="2.01033">
        <ele>116</ele>
        <time>2022-04-14T13:30:31Z</time>
      </trkpt>
      <trkpt lat="49.04841" lon="2.01041">
        <ele>116</ele>
        <time>2022-04-14T13:30:36Z</time>
      </trkpt>
      <trkpt lat="49.04842" lon="2.0105">
        <ele>116</ele>
        <time>2022-04-14T13:30:41Z</time>
      </trkpt>
      <trkpt lat="49.04842" lon="2.01058">
        <ele>116</ele>
        <time>2022-04-14T13:30:46Z</time>
      </trkpt>
      <trkpt lat="49.04842" lon="2.01065">
        <ele>115.9</ele>
        <time>2022-04-14T13:30:52Z</time>
      </trkpt>
      <trkpt lat="49.0484" lon="2.01067">
        <ele>115.9</ele>
        <time>2022-04-14T13:30:58Z</time>
      </trkpt>
      <trkpt lat="49.04834" lon="2.01069">
        <ele>116</ele>
        <time>2022-04-14T13:31:04Z</time>
      </trkpt>
      <trkpt lat="49.04828" lon="2.01073">
        <ele>115.8</ele>
        <time>2022-04-14T13:31:09Z</time>
      </trkpt>
      <trkpt lat="49.04818" lon="2.01082">
        <ele>115.5</ele>
        <time>2022-04-14T13:31:15Z</time>
      </trkpt>
      <trkpt lat="49.04812" lon="2.01091">
        <ele>115.4</ele>
        <time>2022-04-14T13:31:20Z</time>
      </trkpt>
      <trkpt lat="49.04805" lon="2.01104">
        <ele>115.7</ele>
        <time>2022-04-14T13:31:26Z</time>
      </trkpt>
      <trkpt lat="49.04799" lon="2.01121">
        <ele>115.8</ele>
        <time>2022-04-14T13:31:32Z</time>
      </trkpt>
      <trkpt lat="49.04795" lon="2.01137">
        <ele>114.9</ele>
        <time>2022-04-14T13:31:38Z</time>
      </trkpt>
      <trkpt lat="49.04794" lon="2.01149">
        <ele>114.7</ele>
        <time>2022-04-14T13:31:44Z</time>
      </trkpt>
      <trkpt lat="49.04793" lon="2.01155">
        <ele>114.7</ele>
        <time>2022-04-14T13:31:49Z</time>
      </trkpt>
      <trkpt lat="49.0479" lon="2.01163">
        <ele>114.3</ele>
        <time>2022-04-14T13:31:55Z</time>
      </trkpt>
      <trkpt lat="49.04786" lon="2.01173">
        <ele>114.2</ele>
        <time>2022-04-14T13:32:01Z</time>
      </trkpt>
      <trkpt lat="49.0478" lon="2.01184">
        <ele>114.4</ele>
        <time>2022-04-14T13:32:07Z</time>
      </trkpt>
      <trkpt lat="49.04776" lon="2.01192">
        <ele>114.9</ele>
        <time>2022-04-14T13:32:13Z</time>
      </trkpt>
      <trkpt lat="49.04772" lon="2.01201">
        <ele>115.2</ele>
        <time>2022-04-14T13:32:19Z</time>
      </trkpt>
      <trkpt lat="49.04766" lon="2.01209">
        <ele>115.3</ele>
        <time>2022-04-14T13:32:25Z</time>
      </trkpt>
      <trkpt lat="49.04762" lon="2.01216">
        <ele>115.3</ele>
        <time>2022-04-14T13:32:31Z</time>
      </trkpt>
      <trkpt lat="49.04762" lon="2.01227">
        <ele>115.5</ele>
        <time>2022-04-14T13:32:37Z</time>
      </trkpt>
      <trkpt lat="49.04765" lon="2.01241">
        <ele>115.5</ele>
        <time>2022-04-14T13:32:43Z</time>
      </trkpt>
      <trkpt lat="49.04769" lon="2.01252">
        <ele>115.4</ele>
        <time>2022-04-14T13:32:48Z</time>
      </trkpt>
      <trkpt lat="49.04775" lon="2.01261">
        <ele>115.4</ele>
        <time>2022-04-14T13:32:53Z</time>
      </trkpt>
      <trkpt lat="49.04783" lon="2.01265">
        <ele>115.5</ele>
        <time>2022-04-14T13:32:59Z</time>
      </trkpt>
      <trkpt lat="49.04792" lon="2.01271">
        <ele>115.5</ele>
        <time>2022-04-14T13:33:05Z</time>
      </trkpt>
      <trkpt lat="49.04796" lon="2.01279">
        <ele>115.3</ele>
        <time>2022-04-14T13:33:10Z</time>
      </trkpt>
      <trkpt lat="49.04796" lon="2.0129">
        <ele>114.9</ele>
        <time>2022-04-14T13:33:16Z</time>
      </trkpt>
      <trkpt lat="49.04794" lon="2.01298">
        <ele>114.7</ele>
        <time>2022-04-14T13:33:21Z</time>
      </trkpt>
      <trkpt lat="49.04791" lon="2.01306">
        <ele>114.5</ele>
        <time>2022-04-14T13:33:26Z</time>
      </trkpt>
      <trkpt lat="49.04788" lon="2.01313">
        <ele>114.1</ele>
        <time>2022-04-14T13:33:31Z</time>
      </trkpt>
      <trkpt lat="49.04782" lon="2.0132">
        <ele>113.5</ele>
        <time>2022-04-14T13:33:37Z</time>
      </trkpt>
      <trkpt lat="49.04778" lon="2.01327">
        <ele>112.7</ele>
        <time>2022-04-14T13:33:42Z</time>
      </trkpt>
      <trkpt lat="49.04773" lon="2.01334">
        <ele>112.1</ele>
        <time>2022-04-14T13:33:47Z</time>
      </trkpt>
      <trkpt lat="49.04769" lon="2.01343">
        <ele>111.8</ele>
        <time>2022-04-14T13:33:53Z</time>
      </trkpt>
      <trkpt lat="49.04764" lon="2.01352">
        <ele>111.1</ele>
        <time>2022-04-14T13:33:59Z</time>
      </trkpt>
      <trkpt lat="49.04758" lon="2.01362">
        <ele>110.2</ele>
        <time>2022-04-14T13:34:05Z</time>
      </trkpt>
      <trkpt lat="49.04753" lon="2.0137">
        <ele>109.8</ele>
        <time>2022-04-14T13:34:10Z</time>
      </trkpt>
      <trkpt lat="49.04748" lon="2.0138">
        <ele>109.2</ele>
        <time>2022-04-14T13:34:16Z</time>
      </trkpt>
      <trkpt lat="49.04743" lon="2.01389">
        <ele>108.5</ele>
        <time>2022-04-14T13:34:22Z</time>
      </trkpt>
      <trkpt lat="49.04738" lon="2.01393">
        <ele>108.1</ele>
        <time>2022-04-14T13:34:27Z</time>
      </trkpt>
      <trkpt lat="49.04736" lon="2.01398">
        <ele>108</ele>
        <time>2022-04-14T13:34:32Z</time>
      </trkpt>
      <trkpt lat="49.04737" lon="2.01403">
        <ele>108</ele>
        <time>2022-04-14T13:34:38Z</time>
      </trkpt>
      <trkpt lat="49.04739" lon="2.01409">
        <ele>108</ele>
        <time>2022-04-14T13:34:43Z</time>
      </trkpt>
      <trkpt lat="49.04737" lon="2.01418">
        <ele>108</ele>
        <time>2022-04-14T13:34:49Z</time>
      </trkpt>
      <trkpt lat="49.04733" lon="2.01422">
        <ele>108</ele>
        <time>2022-04-14T13:34:54Z</time>
      </trkpt>
      <trkpt lat="49.04729" lon="2.01422">
        <ele>108</ele>
        <time>2022-04-14T13:34:59Z</time>
      </trkpt>
      <trkpt lat="49.04722" lon="2.0142">
        <ele>108</ele>
        <time>2022-04-14T13:35:05Z</time>
      </trkpt>
      <trkpt lat="49.04717" lon="2.01423">
        <ele>107.7</ele>
        <time>2022-04-14T13:35:10Z</time>
      </trkpt>
      <trkpt lat="49.04711" lon="2.01431">
        <ele>107.4</ele>
        <time>2022-04-14T13:35:16Z</time>
      </trkpt>
      <trkpt lat="49.04704" lon="2.01439">
        <ele>107.2</ele>
        <time>2022-04-14T13:35:22Z</time>
      </trkpt>
      <trkpt lat="49.04697" lon="2.01448">
        <ele>107</ele>
        <time>2022-04-14T13:35:28Z</time>
      </trkpt>
      <trkpt lat="49.0469" lon="2.01457">
        <ele>106.3</ele>
        <time>2022-04-14T13:35:34Z</time>
      </trkpt>
      <trkpt lat="49.04685" lon="2.01466">
        <ele>105.8</ele>
        <time>2022-04-14T13:35:39Z</time>
      </trkpt>
      <trkpt lat="49.04681" lon="2.01476">
        <ele>105.5</ele>
        <time>2022-04-14T13:35:44Z</time>
      </trkpt>
      <trkpt lat="49.04676" lon="2.01486">
        <ele>105.3</ele>
        <time>2022-04-14T13:35:50Z</time>
      </trkpt>
      <trkpt lat="49.04672" lon="2.01495">
        <ele>105.2</ele>
        <time>2022-04-14T13:35:55Z</time>
      </trkpt>
      <trkpt lat="49.04667" lon="2.01505">
        <ele>105</ele>
        <time>2022-04-14T13:36:01Z</time>
      </trkpt>
      <trkpt lat="49.04663" lon="2.01514">
        <ele>104.9</ele>
        <time>2022-04-14T13:36:06Z</time>
      </trkpt>
      <trkpt lat="49.04658" lon="2.01524">
        <ele>104.7</ele>
        <time>2022-04-14T13:36:12Z</time>
      </trkpt>
      <trkpt lat="49.04653" lon="2.01532">
        <ele>104.5</ele>
        <time>2022-04-14T13:36:17Z</time>
      </trkpt>
      <trkpt lat="49.04646" lon="2.01542">
        <ele>104.3</ele>
        <time>2022-04-14T13:36:23Z</time>
      </trkpt>
      <trkpt lat="49.04642" lon="2.01551">
        <ele>104.1</ele>
        <time>2022-04-14T13:36:28Z</time>
      </trkpt>
      <trkpt lat="49.04636" lon="2.01561">
        <ele>104</ele>
        <time>2022-04-14T13:36:34Z</time>
      </trkpt>
      <trkpt lat="49.04631" lon="2.01569">
        <ele>104</ele>
        <time>2022-04-14T13:36:39Z</time>
      </trkpt>
      <trkpt lat="49.04625" lon="2.01578">
        <ele>104</ele>
        <time>2022-04-14T13:36:45Z</time>
      </trkpt>
      <trkpt lat="49.0462" lon="2.01586">
        <ele>104</ele>
        <time>2022-04-14T13:36:50Z</time>
      </trkpt>
      <trkpt lat="49.04615" lon="2.01593">
        <ele>104</ele>
        <time>2022-04-14T13:36:55Z</time>
      </trkpt>
      <trkpt lat="49.04609" lon="2.01602">
        <ele>104</ele>
        <time>2022-04-14T13:37:01Z</time>
      </trkpt>
      <trkpt lat="49.04604" lon="2.01611">
        <ele>104</ele>
        <time>2022-04-14T13:37:07Z</time>
      </trkpt>
      <trkpt lat="49.04599" lon="2.01619">
        <ele>104</ele>
        <time>2022-04-14T13:37:12Z</time>
      </trkpt>
      <trkpt lat="49.04595" lon="2.01628">
        <ele>104</ele>
        <time>2022-04-14T13:37:18Z</time>
      </trkpt>
      <trkpt lat="49.0459" lon="2.01638">
        <ele>104</ele>
        <time>2022-04-14T13:37:24Z</time>
      </trkpt>
      <trkpt lat="49.04584" lon="2.01647">
        <ele>104</ele>
        <time>2022-04-14T13:37:30Z</time>
      </trkpt>
      <trkpt lat="49.04579" lon="2.01654">
        <ele>103.9</ele>
        <time>2022-04-14T13:37:35Z</time>
      </trkpt>
      <trkpt lat="49.04574" lon="2.01661">
        <ele>103.7</ele>
        <time>2022-04-14T13:37:40Z</time>
      </trkpt>
      <trkpt lat="49.04568" lon="2.0167">
        <ele>103.5</ele>
        <time>2022-04-14T13:37:46Z</time>
      </trkpt>
      <trkpt lat="49.04564" lon="2.01678">
        <ele>103.3</ele>
        <time>2022-04-14T13:37:51Z</time>
      </trkpt>
      <trkpt lat="49.04558" lon="2.01688">
        <ele>103.1</ele>
        <time>2022-04-14T13:37:57Z</time>
      </trkpt>
      <trkpt lat="49.04553" lon="2.01696">
        <ele>103</ele>
        <time>2022-04-14T13:38:02Z</time>
      </trkpt>
      <trkpt lat="49.04548" lon="2.01705">
        <ele>102.9</ele>
        <time>2022-04-14T13:38:08Z</time>
      </trkpt>
      <trkpt lat="49.04545" lon="2.01712">
        <ele>102.7</ele>
        <time>2022-04-14T13:38:13Z</time>
      </trkpt>
      <trkpt lat="49.04539" lon="2.01721">
        <ele>102.4</ele>
        <time>2022-04-14T13:38:19Z</time>
      </trkpt>
      <trkpt lat="49.04533" lon="2.01731">
        <ele>102.5</ele>
        <time>2022-04-14T13:38:25Z</time>
      </trkpt>
      <trkpt lat="49.04528" lon="2.01738">
        <ele>102.6</ele>
        <time>2022-04-14T13:38:30Z</time>
      </trkpt>
      <trkpt lat="49.04522" lon="2.01745">
        <ele>102.7</ele>
        <time>2022-04-14T13:38:35Z</time>
      </trkpt>
      <trkpt lat="49.04515" lon="2.01753">
        <ele>102.5</ele>
        <time>2022-04-14T13:38:41Z</time>
      </trkpt>
      <trkpt lat="49.04509" lon="2.01762">
        <ele>102.3</ele>
        <time>2022-04-14T13:38:47Z</time>
      </trkpt>
      <trkpt lat="49.04503" lon="2.01771">
        <ele>102.1</ele>
        <time>2022-04-14T13:38:52Z</time>
      </trkpt>
      <trkpt lat="49.04499" lon="2.01778">
        <ele>102</ele>
        <time>2022-04-14T13:38:57Z</time>
      </trkpt>
      <trkpt lat="49.04493" lon="2.01787">
        <ele>102</ele>
        <time>2022-04-14T13:39:03Z</time>
      </trkpt>
      <trkpt lat="49.04487" lon="2.01794">
        <ele>101.8</ele>
        <time>2022-04-14T13:39:08Z</time>
      </trkpt>
      <trkpt lat="49.0448" lon="2.01802">
        <ele>101.5</ele>
        <time>2022-04-14T13:39:14Z</time>
      </trkpt>
      <trkpt lat="49.04474" lon="2.0181">
        <ele>101.3</ele>
        <time>2022-04-14T13:39:20Z</time>
      </trkpt>
      <trkpt lat="49.04468" lon="2.0182">
        <ele>101.3</ele>
        <time>2022-04-14T13:39:26Z</time>
      </trkpt>
      <trkpt lat="49.04462" lon="2.01829">
        <ele>101.2</ele>
        <time>2022-04-14T13:39:32Z</time>
      </trkpt>
      <trkpt lat="49.04455" lon="2.01837">
        <ele>100.8</ele>
        <time>2022-04-14T13:39:38Z</time>
      </trkpt>
      <trkpt lat="49.04449" lon="2.01842">
        <ele>100.4</ele>
        <time>2022-04-14T13:39:43Z</time>
      </trkpt>
      <trkpt lat="49.04442" lon="2.01845">
        <ele>100</ele>
        <time>2022-04-14T13:39:49Z</time>
      </trkpt>
      <trkpt lat="49.04436" lon="2.01847">
        <ele>100</ele>
        <time>2022-04-14T13:39:55Z</time>
      </trkpt>
      <trkpt lat="49.04429" lon="2.01847">
        <ele>100</ele>
        <time>2022-04-14T13:40:00Z</time>
      </trkpt>
      <trkpt lat="49.04422" lon="2.01848">
        <ele>100</ele>
        <time>2022-04-14T13:40:06Z</time>
      </trkpt>
      <trkpt lat="49.04416" lon="2.01849">
        <ele>100</ele>
        <time>2022-04-14T13:40:11Z</time>
      </trkpt>
      <trkpt lat="49.04409" lon="2.01851">
        <ele>100.3</ele>
        <time>2022-04-14T13:40:16Z</time>
      </trkpt>
      <trkpt lat="49.04402" lon="2.01856">
        <ele>100.5</ele>
        <time>2022-04-14T13:40:22Z</time>
      </trkpt>
      <trkpt lat="49.04397" lon="2.01863">
        <ele>100.7</ele>
        <time>2022-04-14T13:40:28Z</time>
      </trkpt>
      <trkpt lat="49.04395" lon="2.01867">
        <ele>100.7</ele>
        <time>2022-04-14T13:40:33Z</time>
      </trkpt>
      <trkpt lat="49.04392" lon="2.01874">
        <ele>100.5</ele>
        <time>2022-04-14T13:40:38Z</time>
      </trkpt>
      <trkpt lat="49.04387" lon="2.01883">
        <ele>100.2</ele>
        <time>2022-04-14T13:40:44Z</time>
      </trkpt>
      <trkpt lat="49.04384" lon="2.01895">
        <ele>99.5</ele>
        <time>2022-04-14T13:40:50Z</time>
      </trkpt>
      <trkpt lat="49.04382" lon="2.01913">
        <ele>98.1</ele>
        <time>2022-04-14T13:40:56Z</time>
      </trkpt>
      <trkpt lat="49.04379" lon="2.01928">
        <ele>97.5</ele>
        <time>2022-04-14T13:41:02Z</time>
      </trkpt>
      <trkpt lat="49.04375" lon="2.01937">
        <ele>97.1</ele>
        <time>2022-04-14T13:41:07Z</time>
      </trkpt>
      <trkpt lat="49.04371" lon="2.01949">
        <ele>96.8</ele>
        <time>2022-04-14T13:41:13Z</time>
      </trkpt>
      <trkpt lat="49.04367" lon="2.01957">
        <ele>96.9</ele>
        <time>2022-04-14T13:41:18Z</time>
      </trkpt>
      <trkpt lat="49.04362" lon="2.01965">
        <ele>96.8</ele>
        <time>2022-04-14T13:41:24Z</time>
      </trkpt>
      <trkpt lat="49.04357" lon="2.0197">
        <ele>96.6</ele>
        <time>2022-04-14T13:41:29Z</time>
      </trkpt>
      <trkpt lat="49.04352" lon="2.01974">
        <ele>96.4</ele>
        <time>2022-04-14T13:41:35Z</time>
      </trkpt>
      <trkpt lat="49.04346" lon="2.01976">
        <ele>96.1</ele>
        <time>2022-04-14T13:41:40Z</time>
      </trkpt>
      <trkpt lat="49.0434" lon="2.01979">
        <ele>95.7</ele>
        <time>2022-04-14T13:41:46Z</time>
      </trkpt>
      <trkpt lat="49.04334" lon="2.01983">
        <ele>95.4</ele>
        <time>2022-04-14T13:41:51Z</time>
      </trkpt>
      <trkpt lat="49.04326" lon="2.01989">
        <ele>95.5</ele>
        <time>2022-04-14T13:41:57Z</time>
      </trkpt>
      <trkpt lat="49.04319" lon="2.01994">
        <ele>95.4</ele>
        <time>2022-04-14T13:42:03Z</time>
      </trkpt>
      <trkpt lat="49.04314" lon="2.01998">
        <ele>95.3</ele>
        <time>2022-04-14T13:42:08Z</time>
      </trkpt>
      <trkpt lat="49.0431" lon="2.02002">
        <ele>95.2</ele>
        <time>2022-04-14T13:42:14Z</time>
      </trkpt>
      <trkpt lat="49.04306" lon="2.02006">
        <ele>95</ele>
        <time>2022-04-14T13:42:19Z</time>
      </trkpt>
      <trkpt lat="49.04301" lon="2.0201">
        <ele>94.9</ele>
        <time>2022-04-14T13:42:25Z</time>
      </trkpt>
      <trkpt lat="49.04297" lon="2.02013">
        <ele>94.9</ele>
        <time>2022-04-14T13:42:30Z</time>
      </trkpt>
      <trkpt lat="49.0429" lon="2.02016">
        <ele>94.7</ele>
        <time>2022-04-14T13:42:36Z</time>
      </trkpt>
      <trkpt lat="49.04284" lon="2.02019">
        <ele>94.5</ele>
        <time>2022-04-14T13:42:41Z</time>
      </trkpt>
      <trkpt lat="49.04275" lon="2.02023">
        <ele>94.2</ele>
        <time>2022-04-14T13:42:47Z</time>
      </trkpt>
      <trkpt lat="49.04267" lon="2.02027">
        <ele>94</ele>
        <time>2022-04-14T13:42:53Z</time>
      </trkpt>
      <trkpt lat="49.04259" lon="2.02029">
        <ele>94</ele>
        <time>2022-04-14T13:42:58Z</time>
      </trkpt>
      <trkpt lat="49.04252" lon="2.02031">
        <ele>93.9</ele>
        <time>2022-04-14T13:43:03Z</time>
      </trkpt>
      <trkpt lat="49.04244" lon="2.02034">
        <ele>93.8</ele>
        <time>2022-04-14T13:43:09Z</time>
      </trkpt>
      <trkpt lat="49.04237" lon="2.02037">
        <ele>93.7</ele>
        <time>2022-04-14T13:43:14Z</time>
      </trkpt>
      <trkpt lat="49.04231" lon="2.02042">
        <ele>93.5</ele>
        <time>2022-04-14T13:43:20Z</time>
      </trkpt>
      <trkpt lat="49.04227" lon="2.02052">
        <ele>93.1</ele>
        <time>2022-04-14T13:43:26Z</time>
      </trkpt>
      <trkpt lat="49.04224" lon="2.02067">
        <ele>92.6</ele>
        <time>2022-04-14T13:43:32Z</time>
      </trkpt>
      <trkpt lat="49.04222" lon="2.02083">
        <ele>92</ele>
        <time>2022-04-14T13:43:38Z</time>
      </trkpt>
      <trkpt lat="49.04221" lon="2.02096">
        <ele>91.1</ele>
        <time>2022-04-14T13:43:43Z</time>
      </trkpt>
      <trkpt lat="49.04219" lon="2.0211">
        <ele>90.2</ele>
        <time>2022-04-14T13:43:49Z</time>
      </trkpt>
      <trkpt lat="49.04218" lon="2.02117">
        <ele>90.1</ele>
        <time>2022-04-14T13:43:54Z</time>
      </trkpt>
      <trkpt lat="49.04214" lon="2.02124">
        <ele>90.2</ele>
        <time>2022-04-14T13:44:00Z</time>
      </trkpt>
      <trkpt lat="49.0421" lon="2.02131">
        <ele>90.1</ele>
        <time>2022-04-14T13:44:05Z</time>
      </trkpt>
      <trkpt lat="49.04207" lon="2.0214">
        <ele>90</ele>
        <time>2022-04-14T13:44:11Z</time>
      </trkpt>
      <trkpt lat="49.04204" lon="2.02148">
        <ele>89.8</ele>
        <time>2022-04-14T13:44:16Z</time>
      </trkpt>
      <trkpt lat="49.04202" lon="2.02157">
        <ele>89.5</ele>
        <time>2022-04-14T13:44:21Z</time>
      </trkpt>
      <trkpt lat="49.04198" lon="2.02167">
        <ele>89.1</ele>
        <time>2022-04-14T13:44:27Z</time>
      </trkpt>
      <trkpt lat="49.04196" lon="2.02176">
        <ele>88.7</ele>
        <time>2022-04-14T13:44:32Z</time>
      </trkpt>
      <trkpt lat="49.04193" lon="2.02187">
        <ele>88.3</ele>
        <time>2022-04-14T13:44:38Z</time>
      </trkpt>
      <trkpt lat="49.04191" lon="2.02196">
        <ele>88.1</ele>
        <time>2022-04-14T13:44:43Z</time>
      </trkpt>
      <trkpt lat="49.04188" lon="2.02206">
        <ele>88.1</ele>
        <time>2022-04-14T13:44:48Z</time>
      </trkpt>
      <trkpt lat="49.04185" lon="2.02216">
        <ele>88.1</ele>
        <time>2022-04-14T13:44:55Z</time>
      </trkpt>
      <trkpt lat="49.04182" lon="2.02228">
        <ele>87.9</ele>
        <time>2022-04-14T13:45:00Z</time>
      </trkpt>
      <trkpt lat="49.04179" lon="2.02236">
        <ele>87.7</ele>
        <time>2022-04-14T13:45:05Z</time>
      </trkpt>
      <trkpt lat="49.04175" lon="2.02248">
        <ele>87.4</ele>
        <time>2022-04-14T13:45:11Z</time>
      </trkpt>
      <trkpt lat="49.04173" lon="2.02257">
        <ele>87.5</ele>
        <time>2022-04-14T13:45:16Z</time>
      </trkpt>
      <trkpt lat="49.0417" lon="2.02267">
        <ele>87.7</ele>
        <time>2022-04-14T13:45:21Z</time>
      </trkpt>
      <trkpt lat="49.04166" lon="2.02277">
        <ele>87.9</ele>
        <time>2022-04-14T13:45:27Z</time>
      </trkpt>
      <trkpt lat="49.04163" lon="2.02286">
        <ele>87.5</ele>
        <time>2022-04-14T13:45:32Z</time>
      </trkpt>
      <trkpt lat="49.04159" lon="2.02297">
        <ele>87</ele>
        <time>2022-04-14T13:45:38Z</time>
      </trkpt>
      <trkpt lat="49.04158" lon="2.02308">
        <ele>86.7</ele>
        <time>2022-04-14T13:45:44Z</time>
      </trkpt>
      <trkpt lat="49.04161" lon="2.02318">
        <ele>86.7</ele>
        <time>2022-04-14T13:45:50Z</time>
      </trkpt>
      <trkpt lat="49.04166" lon="2.02325">
        <ele>86.9</ele>
        <time>2022-04-14T13:45:56Z</time>
      </trkpt>
      <trkpt lat="49.04168" lon="2.02338">
        <ele>87.3</ele>
        <time>2022-04-14T13:46:02Z</time>
      </trkpt>
      <trkpt lat="49.04168" lon="2.02355">
        <ele>87.9</ele>
        <time>2022-04-14T13:46:07Z</time>
      </trkpt>
      <trkpt lat="49.04166" lon="2.02372">
        <ele>88.3</ele>
        <time>2022-04-14T13:46:13Z</time>
      </trkpt>
      <trkpt lat="49.04163" lon="2.02381">
        <ele>88.3</ele>
        <time>2022-04-14T13:46:18Z</time>
      </trkpt>
      <trkpt lat="49.0416" lon="2.02392">
        <ele>88.5</ele>
        <time>2022-04-14T13:46:24Z</time>
      </trkpt>
      <trkpt lat="49.04159" lon="2.02399">
        <ele>88.8</ele>
        <time>2022-04-14T13:46:29Z</time>
      </trkpt>
      <trkpt lat="49.04157" lon="2.02407">
        <ele>89.1</ele>
        <time>2022-04-14T13:46:35Z</time>
      </trkpt>
      <trkpt lat="49.04154" lon="2.02418">
        <ele>89.2</ele>
        <time>2022-04-14T13:46:40Z</time>
      </trkpt>
      <trkpt lat="49.04149" lon="2.02432">
        <ele>89</ele>
        <time>2022-04-14T13:46:46Z</time>
      </trkpt>
      <trkpt lat="49.04146" lon="2.0244">
        <ele>88.9</ele>
        <time>2022-04-14T13:46:51Z</time>
      </trkpt>
      <trkpt lat="49.04142" lon="2.02451">
        <ele>88.7</ele>
        <time>2022-04-14T13:46:57Z</time>
      </trkpt>
      <trkpt lat="49.04138" lon="2.02455">
        <ele>88.3</ele>
        <time>2022-04-14T13:47:02Z</time>
      </trkpt>
      <trkpt lat="49.04134" lon="2.02462">
        <ele>88</ele>
        <time>2022-04-14T13:47:08Z</time>
      </trkpt>
      <trkpt lat="49.04131" lon="2.0247">
        <ele>87.8</ele>
        <time>2022-04-14T13:47:13Z</time>
      </trkpt>
      <trkpt lat="49.04126" lon="2.02483">
        <ele>87.5</ele>
        <time>2022-04-14T13:47:19Z</time>
      </trkpt>
      <trkpt lat="49.04118" lon="2.02494">
        <ele>86.8</ele>
        <time>2022-04-14T13:47:24Z</time>
      </trkpt>
      <trkpt lat="49.0411" lon="2.02506">
        <ele>86.1</ele>
        <time>2022-04-14T13:47:30Z</time>
      </trkpt>
      <trkpt lat="49.04104" lon="2.02518">
        <ele>85.7</ele>
        <time>2022-04-14T13:47:36Z</time>
      </trkpt>
      <trkpt lat="49.04101" lon="2.02525">
        <ele>85.4</ele>
        <time>2022-04-14T13:47:41Z</time>
      </trkpt>
      <trkpt lat="49.04098" lon="2.02531">
        <ele>85.1</ele>
        <time>2022-04-14T13:47:46Z</time>
      </trkpt>
      <trkpt lat="49.04092" lon="2.02541">
        <ele>84.2</ele>
        <time>2022-04-14T13:47:52Z</time>
      </trkpt>
      <trkpt lat="49.04088" lon="2.02548">
        <ele>83.1</ele>
        <time>2022-04-14T13:47:57Z</time>
      </trkpt>
      <trkpt lat="49.04083" lon="2.02555">
        <ele>81.9</ele>
        <time>2022-04-14T13:48:03Z</time>
      </trkpt>
      <trkpt lat="49.04077" lon="2.02559">
        <ele>81.3</ele>
        <time>2022-04-14T13:48:08Z</time>
      </trkpt>
      <trkpt lat="49.04071" lon="2.02564">
        <ele>80.7</ele>
        <time>2022-04-14T13:48:14Z</time>
      </trkpt>
      <trkpt lat="49.04066" lon="2.02568">
        <ele>80.3</ele>
        <time>2022-04-14T13:48:20Z</time>
      </trkpt>
      <trkpt lat="49.04061" lon="2.02573">
        <ele>79.9</ele>
        <time>2022-04-14T13:48:25Z</time>
      </trkpt>
      <trkpt lat="49.04056" lon="2.02575">
        <ele>79</ele>
        <time>2022-04-14T13:48:30Z</time>
      </trkpt>
      <trkpt lat="49.04053" lon="2.02577">
        <ele>79.1</ele>
        <time>2022-04-14T13:48:36Z</time>
      </trkpt>
      <trkpt lat="49.04057" lon="2.0258">
        <ele>79.9</ele>
        <time>2022-04-14T13:48:41Z</time>
      </trkpt>
      <trkpt lat="49.04057" lon="2.02581">
        <ele>80.1</ele>
        <time>2022-04-14T13:48:46Z</time>
      </trkpt>
      <trkpt lat="49.04057" lon="2.02582">
        <ele>80</ele>
        <time>2022-04-14T13:48:52Z</time>
      </trkpt>
      <trkpt lat="49.04058" lon="2.02585">
        <ele>80.7</ele>
        <time>2022-04-14T13:48:57Z</time>
      </trkpt>
      <trkpt lat="49.04058" lon="2.02584">
        <ele>80.6</ele>
        <time>2022-04-14T13:49:03Z</time>
      </trkpt>
      <trkpt lat="49.04058" lon="2.02584">
        <ele>80.5</ele>
        <time>2022-04-14T13:49:08Z</time>
      </trkpt>
      <trkpt lat="49.04058" lon="2.02584">
        <ele>80.5</ele>
        <time>2022-04-14T13:49:14Z</time>
      </trkpt>
      <trkpt lat="49.04058" lon="2.02584">
        <ele>80.6</ele>
        <time>2022-04-14T13:49:20Z</time>
      </trkpt>
      <trkpt lat="49.04058" lon="2.02585">
        <ele>80.6</ele>
        <time>2022-04-14T13:49:26Z</time>
      </trkpt>
      <trkpt lat="49.04058" lon="2.02585">
        <ele>80.6</ele>
        <time>2022-04-14T13:49:32Z</time>
      </trkpt>
      <trkpt lat="49.04059" lon="2.0259">
        <ele>81.8</ele>
        <time>2022-04-14T13:49:37Z</time>
      </trkpt>
      <trkpt lat="49.04054" lon="2.02593">
        <ele>81.6</ele>
        <time>2022-04-14T13:49:43Z</time>
      </trkpt>
      <trkpt lat="49.04054" lon="2.02593">
        <ele>81.5</ele>
        <time>2022-04-14T13:49:49Z</time>
      </trkpt>
      <trkpt lat="49.04054" lon="2.02593">
        <ele>81.5</ele>
        <time>2022-04-14T13:49:54Z</time>
      </trkpt>
      <trkpt lat="49.04053" lon="2.02592">
        <ele>81.3</ele>
        <time>2022-04-14T13:50:00Z</time>
      </trkpt>
      <trkpt lat="49.04053" lon="2.02592">
        <ele>81.3</ele>
        <time>2022-04-14T13:50:05Z</time>
      </trkpt>
      <trkpt lat="49.04052" lon="2.02593">
        <ele>81.4</ele>
        <time>2022-04-14T13:50:11Z</time>
      </trkpt>
      <trkpt lat="49.04052" lon="2.02593">
        <ele>81.3</ele>
        <time>2022-04-14T13:50:16Z</time>
      </trkpt>
      <trkpt lat="49.04053" lon="2.02593">
        <ele>81.4</ele>
        <time>2022-04-14T13:50:22Z</time>
      </trkpt>
      <trkpt lat="49.04053" lon="2.02593">
        <ele>81.4</ele>
        <time>2022-04-14T13:50:28Z</time>
      </trkpt>
      <trkpt lat="49.04053" lon="2.02594">
        <ele>81.6</ele>
        <time>2022-04-14T13:50:33Z</time>
      </trkpt>
      <trkpt lat="49.04053" lon="2.02595">
        <ele>81.9</ele>
        <time>2022-04-14T13:50:39Z</time>
      </trkpt>
      <trkpt lat="49.04055" lon="2.02592">
        <ele>81.4</ele>
        <time>2022-04-14T13:50:44Z</time>
      </trkpt>
      <trkpt lat="49.04055" lon="2.02591">
        <ele>81.3</ele>
        <time>2022-04-14T13:50:50Z</time>
      </trkpt>
      <trkpt lat="49.04054" lon="2.0259">
        <ele>81.1</ele>
        <time>2022-04-14T13:50:55Z</time>
      </trkpt>
      <trkpt lat="49.04055" lon="2.0259">
        <ele>81</ele>
        <time>2022-04-14T13:51:01Z</time>
      </trkpt>
      <trkpt lat="49.04054" lon="2.02589">
        <ele>81</ele>
        <time>2022-04-14T13:51:07Z</time>
      </trkpt>
      <trkpt lat="49.04054" lon="2.02589">
        <ele>80.9</ele>
        <time>2022-04-14T13:51:12Z</time>
      </trkpt>
      <trkpt lat="49.04054" lon="2.02589">
        <ele>80.9</ele>
        <time>2022-04-14T13:51:17Z</time>
      </trkpt>
      <trkpt lat="49.04054" lon="2.02589">
        <ele>80.9</ele>
        <time>2022-04-14T13:51:23Z</time>
      </trkpt>
      <trkpt lat="49.04054" lon="2.02589">
        <ele>80.9</ele>
        <time>2022-04-14T13:51:28Z</time>
      </trkpt>
      <trkpt lat="49.04055" lon="2.02589">
        <ele>81</ele>
        <time>2022-04-14T13:51:34Z</time>
      </trkpt>
      <trkpt lat="49.04055" lon="2.02589">
        <ele>81</ele>
        <time>2022-04-14T13:51:40Z</time>
      </trkpt>
      <trkpt lat="49.04056" lon="2.02588">
        <ele>81</ele>
        <time>2022-04-14T13:51:46Z</time>
      </trkpt>
      <trkpt lat="49.04057" lon="2.02591">
        <ele>81.6</ele>
        <time>2022-04-14T13:51:51Z</time>
      </trkpt>
      <trkpt lat="49.04058" lon="2.02595">
        <ele>82.3</ele>
        <time>2022-04-14T13:51:57Z</time>
      </trkpt>
      <trkpt lat="49.04057" lon="2.02595">
        <ele>82.4</ele>
        <time>2022-04-14T13:52:02Z</time>
      </trkpt>
      <trkpt lat="49.04056" lon="2.02593">
        <ele>81.9</ele>
        <time>2022-04-14T13:52:08Z</time>
      </trkpt>
      <trkpt lat="49.04057" lon="2.02588">
        <ele>81</ele>
        <time>2022-04-14T13:52:13Z</time>
      </trkpt>
      <trkpt lat="49.04056" lon="2.02585">
        <ele>80.5</ele>
        <time>2022-04-14T13:52:18Z</time>
      </trkpt>
      <trkpt lat="49.04055" lon="2.02585">
        <ele>80.3</ele>
        <time>2022-04-14T13:52:23Z</time>
      </trkpt>
      <trkpt lat="49.04054" lon="2.02589">
        <ele>80.7</ele>
        <time>2022-04-14T13:52:29Z</time>
      </trkpt>
      <trkpt lat="49.04054" lon="2.02589">
        <ele>80.8</ele>
        <time>2022-04-14T13:52:34Z</time>
      </trkpt>
      <trkpt lat="49.04054" lon="2.02589">
        <ele>80.9</ele>
        <time>2022-04-14T13:52:40Z</time>
      </trkpt>
      <trkpt lat="49.04054" lon="2.0259">
        <ele>81</ele>
        <time>2022-04-14T13:52:46Z</time>
      </trkpt>
      <trkpt lat="49.04054" lon="2.02589">
        <ele>81</ele>
        <time>2022-04-14T13:52:52Z</time>
      </trkpt>
      <trkpt lat="49.04054" lon="2.02589">
        <ele>80.9</ele>
        <time>2022-04-14T13:52:58Z</time>
      </trkpt>
      <trkpt lat="49.04055" lon="2.02589">
        <ele>80.9</ele>
        <time>2022-04-14T13:53:03Z</time>
      </trkpt>
      <trkpt lat="49.04054" lon="2.02587">
        <ele>80.4</ele>
        <time>2022-04-14T13:53:09Z</time>
      </trkpt>
      <trkpt lat="49.04054" lon="2.02586">
        <ele>80.3</ele>
        <time>2022-04-14T13:53:15Z</time>
      </trkpt>
      <trkpt lat="49.04053" lon="2.02586">
        <ele>80.2</ele>
        <time>2022-04-14T13:53:20Z</time>
      </trkpt>
      <trkpt lat="49.04054" lon="2.02586">
        <ele>80.3</ele>
        <time>2022-04-14T13:53:26Z</time>
      </trkpt>
      <trkpt lat="49.04054" lon="2.02586">
        <ele>80.4</ele>
        <time>2022-04-14T13:53:32Z</time>
      </trkpt>
      <trkpt lat="49.04055" lon="2.02585">
        <ele>80.1</ele>
        <time>2022-04-14T13:53:38Z</time>
      </trkpt>
      <trkpt lat="49.04054" lon="2.02583">
        <ele>79.9</ele>
        <time>2022-04-14T13:53:44Z</time>
      </trkpt>
      <trkpt lat="49.04054" lon="2.02584">
        <ele>79.9</ele>
        <time>2022-04-14T13:53:49Z</time>
      </trkpt>
      <trkpt lat="49.04054" lon="2.02584">
        <ele>79.9</ele>
        <time>2022-04-14T13:53:55Z</time>
      </trkpt>
      <trkpt lat="49.04054" lon="2.02584">
        <ele>79.9</ele>
        <time>2022-04-14T13:54:01Z</time>
      </trkpt>
      <trkpt lat="49.04054" lon="2.02584">
        <ele>79.9</ele>
        <time>2022-04-14T13:54:07Z</time>
      </trkpt>
      <trkpt lat="49.04054" lon="2.02584">
        <ele>79.9</ele>
        <time>2022-04-14T13:54:13Z</time>
      </trkpt>
      <trkpt lat="49.04055" lon="2.02584">
        <ele>79.9</ele>
        <time>2022-04-14T13:54:18Z</time>
      </trkpt>
      <trkpt lat="49.04057" lon="2.02586">
        <ele>80.7</ele>
        <time>2022-04-14T13:54:24Z</time>
      </trkpt>
      <trkpt lat="49.04057" lon="2.02586">
        <ele>80.8</ele>
        <time>2022-04-14T13:54:29Z</time>
      </trkpt>
      <trkpt lat="49.04058" lon="2.02585">
        <ele>80.6</ele>
        <time>2022-04-14T13:54:35Z</time>
      </trkpt>
      <trkpt lat="49.04059" lon="2.02586">
        <ele>80.9</ele>
        <time>2022-04-14T13:54:41Z</time>
      </trkpt>
      <trkpt lat="49.0406" lon="2.02588">
        <ele>81.7</ele>
        <time>2022-04-14T13:54:46Z</time>
      </trkpt>
      <trkpt lat="49.04061" lon="2.02593">
        <ele>82.6</ele>
        <time>2022-04-14T13:54:52Z</time>
      </trkpt>
      <trkpt lat="49.04059" lon="2.02596">
        <ele>82.9</ele>
        <time>2022-04-14T13:54:58Z</time>
      </trkpt>
      <trkpt lat="49.04059" lon="2.02596">
        <ele>82.9</ele>
        <time>2022-04-14T13:55:03Z</time>
      </trkpt>
      <trkpt lat="49.0406" lon="2.02599">
        <ele>83.5</ele>
        <time>2022-04-14T13:55:09Z</time>
      </trkpt>
      <trkpt lat="49.0406" lon="2.02603">
        <ele>84.1</ele>
        <time>2022-04-14T13:55:14Z</time>
      </trkpt>
      <trkpt lat="49.04059" lon="2.02605">
        <ele>84.3</ele>
        <time>2022-04-14T13:55:20Z</time>
      </trkpt>
      <trkpt lat="49.04057" lon="2.02603">
        <ele>83.7</ele>
        <time>2022-04-14T13:55:25Z</time>
      </trkpt>
      <trkpt lat="49.04056" lon="2.02602">
        <ele>83.3</ele>
        <time>2022-04-14T13:55:31Z</time>
      </trkpt>
      <trkpt lat="49.04052" lon="2.02602">
        <ele>83</ele>
        <time>2022-04-14T13:55:36Z</time>
      </trkpt>
      <trkpt lat="49.04052" lon="2.02601">
        <ele>82.7</ele>
        <time>2022-04-14T13:55:41Z</time>
      </trkpt>
      <trkpt lat="49.04051" lon="2.02599">
        <ele>82.3</ele>
        <time>2022-04-14T13:55:47Z</time>
      </trkpt>
      <trkpt lat="49.04048" lon="2.026">
        <ele>81.9</ele>
        <time>2022-04-14T13:55:52Z</time>
      </trkpt>
      <trkpt lat="49.04048" lon="2.02594">
        <ele>81</ele>
        <time>2022-04-14T13:55:58Z</time>
      </trkpt>
      <trkpt lat="49.0405" lon="2.02593">
        <ele>81.1</ele>
        <time>2022-04-14T13:56:04Z</time>
      </trkpt>
      <trkpt lat="49.04051" lon="2.0259">
        <ele>80.7</ele>
        <time>2022-04-14T13:56:10Z</time>
      </trkpt>
      <trkpt lat="49.04053" lon="2.02588">
        <ele>80.6</ele>
        <time>2022-04-14T13:56:16Z</time>
      </trkpt>
      <trkpt lat="49.04056" lon="2.02581">
        <ele>79.9</ele>
        <time>2022-04-14T13:56:22Z</time>
      </trkpt>
      <trkpt lat="49.04059" lon="2.02579">
        <ele>80.1</ele>
        <time>2022-04-14T13:56:27Z</time>
      </trkpt>
      <trkpt lat="49.04058" lon="2.02586">
        <ele>80.9</ele>
        <time>2022-04-14T13:56:33Z</time>
      </trkpt>
      <trkpt lat="49.04056" lon="2.0259">
        <ele>81.3</ele>
        <time>2022-04-14T13:56:39Z</time>
      </trkpt>
      <trkpt lat="49.04055" lon="2.02592">
        <ele>81.5</ele>
        <time>2022-04-14T13:56:44Z</time>
      </trkpt>
      <trkpt lat="49.04054" lon="2.02593">
        <ele>81.6</ele>
        <time>2022-04-14T13:56:49Z</time>
      </trkpt>
      <trkpt lat="49.04054" lon="2.02594">
        <ele>81.7</ele>
        <time>2022-04-14T13:56:55Z</time>
      </trkpt>
      <trkpt lat="49.04053" lon="2.02594">
        <ele>81.6</ele>
        <time>2022-04-14T13:57:00Z</time>
      </trkpt>
      <trkpt lat="49.04052" lon="2.02594">
        <ele>81.6</ele>
        <time>2022-04-14T13:57:06Z</time>
      </trkpt>
      <trkpt lat="49.04052" lon="2.02594">
        <ele>81.5</ele>
        <time>2022-04-14T13:57:11Z</time>
      </trkpt>
      <trkpt lat="49.04052" lon="2.02594">
        <ele>81.5</ele>
        <time>2022-04-14T13:57:16Z</time>
      </trkpt>
      <trkpt lat="49.04052" lon="2.02594">
        <ele>81.4</ele>
        <time>2022-04-14T13:57:22Z</time>
      </trkpt>
      <trkpt lat="49.04052" lon="2.02594">
        <ele>81.4</ele>
        <time>2022-04-14T13:57:27Z</time>
      </trkpt>
      <trkpt lat="49.04052" lon="2.02594">
        <ele>81.5</ele>
        <time>2022-04-14T13:57:33Z</time>
      </trkpt>
      <trkpt lat="49.04052" lon="2.02594">
        <ele>81.5</ele>
        <time>2022-04-14T13:57:38Z</time>
      </trkpt>
      <trkpt lat="49.04052" lon="2.02594">
        <ele>81.5</ele>
        <time>2022-04-14T13:57:44Z</time>
      </trkpt>
      <trkpt lat="49.04052" lon="2.02594">
        <ele>81.4</ele>
        <time>2022-04-14T13:57:49Z</time>
      </trkpt>
      <trkpt lat="49.04052" lon="2.02594">
        <ele>81.4</ele>
        <time>2022-04-14T13:57:54Z</time>
      </trkpt>
      <trkpt lat="49.04052" lon="2.02593">
        <ele>81.4</ele>
        <time>2022-04-14T13:58:00Z</time>
      </trkpt>
      <trkpt lat="49.04052" lon="2.02593">
        <ele>81.3</ele>
        <time>2022-04-14T13:58:05Z</time>
      </trkpt>
      <trkpt lat="49.04052" lon="2.02593">
        <ele>81.3</ele>
        <time>2022-04-14T13:58:11Z</time>
      </trkpt>
      <trkpt lat="49.04052" lon="2.02592">
        <ele>81.2</ele>
        <time>2022-04-14T13:58:16Z</time>
      </trkpt>
      <trkpt lat="49.04052" lon="2.02592">
        <ele>81.2</ele>
        <time>2022-04-14T13:58:22Z</time>
      </trkpt>
      <trkpt lat="49.04052" lon="2.0259">
        <ele>80.8</ele>
        <time>2022-04-14T13:58:27Z</time>
      </trkpt>
      <trkpt lat="49.04052" lon="2.02588">
        <ele>80.5</ele>
        <time>2022-04-14T13:58:33Z</time>
      </trkpt>
      <trkpt lat="49.04052" lon="2.02586">
        <ele>80.1</ele>
        <time>2022-04-14T13:58:38Z</time>
      </trkpt>
      <trkpt lat="49.04049" lon="2.02588">
        <ele>80.1</ele>
        <time>2022-04-14T13:58:43Z</time>
      </trkpt>
      <trkpt lat="49.04046" lon="2.02588">
        <ele>79.9</ele>
        <time>2022-04-14T13:58:49Z</time>
      </trkpt>
      <trkpt lat="49.04043" lon="2.02589">
        <ele>79.6</ele>
        <time>2022-04-14T13:58:54Z</time>
      </trkpt>
      <trkpt lat="49.04038" lon="2.0259">
        <ele>79.1</ele>
        <time>2022-04-14T13:59:00Z</time>
      </trkpt>
      <trkpt lat="49.04034" lon="2.02591">
        <ele>78.8</ele>
        <time>2022-04-14T13:59:05Z</time>
      </trkpt>
      <trkpt lat="49.04027" lon="2.02592">
        <ele>78.2</ele>
        <time>2022-04-14T13:59:11Z</time>
      </trkpt>
      <trkpt lat="49.04019" lon="2.02593">
        <ele>77.8</ele>
        <time>2022-04-14T13:59:17Z</time>
      </trkpt>
      <trkpt lat="49.04014" lon="2.02592">
        <ele>77.3</ele>
        <time>2022-04-14T13:59:22Z</time>
      </trkpt>
      <trkpt lat="49.04009" lon="2.02592">
        <ele>76.9</ele>
        <time>2022-04-14T13:59:28Z</time>
      </trkpt>
      <trkpt lat="49.04005" lon="2.02592">
        <ele>76.6</ele>
        <time>2022-04-14T13:59:33Z</time>
      </trkpt>
      <trkpt lat="49.04001" lon="2.02591">
        <ele>76.3</ele>
        <time>2022-04-14T13:59:38Z</time>
      </trkpt>
      <trkpt lat="49.03996" lon="2.02591">
        <ele>75.8</ele>
        <time>2022-04-14T13:59:44Z</time>
      </trkpt>
      <trkpt lat="49.03991" lon="2.02591">
        <ele>75.5</ele>
        <time>2022-04-14T13:59:50Z</time>
      </trkpt>
      <trkpt lat="49.03985" lon="2.02591">
        <ele>75.2</ele>
        <time>2022-04-14T13:59:55Z</time>
      </trkpt>
      <trkpt lat="49.03978" lon="2.02592">
        <ele>74.8</ele>
        <time>2022-04-14T14:00:01Z</time>
      </trkpt>
      <trkpt lat="49.03972" lon="2.02592">
        <ele>74.5</ele>
        <time>2022-04-14T14:00:06Z</time>
      </trkpt>
      <trkpt lat="49.03964" lon="2.0259">
        <ele>73.8</ele>
        <time>2022-04-14T14:00:12Z</time>
      </trkpt>
      <trkpt lat="49.03958" lon="2.02589">
        <ele>73.3</ele>
        <time>2022-04-14T14:00:17Z</time>
      </trkpt>
      <trkpt lat="49.03951" lon="2.02587">
        <ele>72.2</ele>
        <time>2022-04-14T14:00:23Z</time>
      </trkpt>
      <trkpt lat="49.03944" lon="2.02584">
        <ele>71.2</ele>
        <time>2022-04-14T14:00:28Z</time>
      </trkpt>
      <trkpt lat="49.03938" lon="2.0258">
        <ele>71</ele>
        <time>2022-04-14T14:00:33Z</time>
      </trkpt>
      <trkpt lat="49.03932" lon="2.02576">
        <ele>70.8</ele>
        <time>2022-04-14T14:00:39Z</time>
      </trkpt>
      <trkpt lat="49.03926" lon="2.02572">
        <ele>70.5</ele>
        <time>2022-04-14T14:00:44Z</time>
      </trkpt>
      <trkpt lat="49.0392" lon="2.02569">
        <ele>69.9</ele>
        <time>2022-04-14T14:00:49Z</time>
      </trkpt>
      <trkpt lat="49.03913" lon="2.02564">
        <ele>69</ele>
        <time>2022-04-14T14:00:55Z</time>
      </trkpt>
      <trkpt lat="49.03907" lon="2.02561">
        <ele>68.1</ele>
        <time>2022-04-14T14:01:00Z</time>
      </trkpt>
      <trkpt lat="49.039" lon="2.02557">
        <ele>67</ele>
        <time>2022-04-14T14:01:06Z</time>
      </trkpt>
      <trkpt lat="49.03894" lon="2.02553">
        <ele>66.4</ele>
        <time>2022-04-14T14:01:12Z</time>
      </trkpt>
      <trkpt lat="49.03888" lon="2.02553">
        <ele>65.9</ele>
        <time>2022-04-14T14:01:17Z</time>
      </trkpt>
      <trkpt lat="49.03882" lon="2.02554">
        <ele>65.3</ele>
        <time>2022-04-14T14:01:22Z</time>
      </trkpt>
      <trkpt lat="49.03875" lon="2.02555">
        <ele>64.5</ele>
        <time>2022-04-14T14:01:28Z</time>
      </trkpt>
      <trkpt lat="49.03868" lon="2.02555">
        <ele>63.8</ele>
        <time>2022-04-14T14:01:34Z</time>
      </trkpt>
      <trkpt lat="49.03862" lon="2.02555">
        <ele>63.1</ele>
        <time>2022-04-14T14:01:40Z</time>
      </trkpt>
      <trkpt lat="49.03856" lon="2.02556">
        <ele>62.6</ele>
        <time>2022-04-14T14:01:46Z</time>
      </trkpt>
      <trkpt lat="49.03852" lon="2.02557">
        <ele>62.3</ele>
        <time>2022-04-14T14:01:51Z</time>
      </trkpt>
      <trkpt lat="49.03846" lon="2.0256">
        <ele>61.8</ele>
        <time>2022-04-14T14:01:56Z</time>
      </trkpt>
      <trkpt lat="49.03839" lon="2.02564">
        <ele>61.4</ele>
        <time>2022-04-14T14:02:02Z</time>
      </trkpt>
      <trkpt lat="49.03835" lon="2.02569">
        <ele>61.1</ele>
        <time>2022-04-14T14:02:08Z</time>
      </trkpt>
      <trkpt lat="49.03834" lon="2.02572">
        <ele>61</ele>
        <time>2022-04-14T14:02:14Z</time>
      </trkpt>
      <trkpt lat="49.03834" lon="2.02573">
        <ele>61</ele>
        <time>2022-04-14T14:02:20Z</time>
      </trkpt>
      <trkpt lat="49.03834" lon="2.02573">
        <ele>61.1</ele>
        <time>2022-04-14T14:02:25Z</time>
      </trkpt>
      <trkpt lat="49.03835" lon="2.02574">
        <ele>61.1</ele>
        <time>2022-04-14T14:02:30Z</time>
      </trkpt>
      <trkpt lat="49.03834" lon="2.02578">
        <ele>61</ele>
        <time>2022-04-14T14:02:36Z</time>
      </trkpt>
      <trkpt lat="49.03833" lon="2.02579">
        <ele>61</ele>
        <time>2022-04-14T14:02:41Z</time>
      </trkpt>
      <trkpt lat="49.03831" lon="2.0258">
        <ele>60.8</ele>
        <time>2022-04-14T14:02:46Z</time>
      </trkpt>
      <trkpt lat="49.03828" lon="2.02581">
        <ele>60.5</ele>
        <time>2022-04-14T14:02:52Z</time>
      </trkpt>
      <trkpt lat="49.03824" lon="2.02582">
        <ele>60.1</ele>
        <time>2022-04-14T14:02:58Z</time>
      </trkpt>
      <trkpt lat="49.03819" lon="2.02585">
        <ele>59.7</ele>
        <time>2022-04-14T14:03:04Z</time>
      </trkpt>
      <trkpt lat="49.03817" lon="2.02584">
        <ele>59.5</ele>
        <time>2022-04-14T14:03:10Z</time>
      </trkpt>
      <trkpt lat="49.03816" lon="2.02583">
        <ele>59.1</ele>
        <time>2022-04-14T14:03:15Z</time>
      </trkpt>
      <trkpt lat="49.03815" lon="2.02581">
        <ele>59.1</ele>
        <time>2022-04-14T14:03:20Z</time>
      </trkpt>
      <trkpt lat="49.03814" lon="2.02578">
        <ele>59.2</ele>
        <time>2022-04-14T14:03:25Z</time>
      </trkpt>
      <trkpt lat="49.03811" lon="2.02573">
        <ele>59.2</ele>
        <time>2022-04-14T14:03:31Z</time>
      </trkpt>
      <trkpt lat="49.03809" lon="2.02566">
        <ele>59.5</ele>
        <time>2022-04-14T14:03:36Z</time>
      </trkpt>
      <trkpt lat="49.03808" lon="2.02556">
        <ele>60.1</ele>
        <time>2022-04-14T14:03:42Z</time>
      </trkpt>
      <trkpt lat="49.03807" lon="2.02546">
        <ele>60.4</ele>
        <time>2022-04-14T14:03:47Z</time>
      </trkpt>
      <trkpt lat="49.03807" lon="2.02537">
        <ele>60.7</ele>
        <time>2022-04-14T14:03:52Z</time>
      </trkpt>
      <trkpt lat="49.03807" lon="2.02527">
        <ele>61.2</ele>
        <time>2022-04-14T14:03:58Z</time>
      </trkpt>
      <trkpt lat="49.03808" lon="2.02519">
        <ele>62.6</ele>
        <time>2022-04-14T14:04:04Z</time>
      </trkpt>
      <trkpt lat="49.03809" lon="2.02512">
        <ele>63.6</ele>
        <time>2022-04-14T14:04:10Z</time>
      </trkpt>
      <trkpt lat="49.03812" lon="2.02507">
        <ele>64.3</ele>
        <time>2022-04-14T14:04:16Z</time>
      </trkpt>
      <trkpt lat="49.03815" lon="2.025">
        <ele>64.9</ele>
        <time>2022-04-14T14:04:22Z</time>
      </trkpt>
      <trkpt lat="49.03819" lon="2.02494">
        <ele>65.5</ele>
        <time>2022-04-14T14:04:27Z</time>
      </trkpt>
      <trkpt lat="49.03823" lon="2.02487">
        <ele>66</ele>
        <time>2022-04-14T14:04:33Z</time>
      </trkpt>
      <trkpt lat="49.03825" lon="2.02477">
        <ele>66.7</ele>
        <time>2022-04-14T14:04:38Z</time>
      </trkpt>
      <trkpt lat="49.03827" lon="2.02468">
        <ele>67.3</ele>
        <time>2022-04-14T14:04:44Z</time>
      </trkpt>
      <trkpt lat="49.03828" lon="2.02459">
        <ele>67.8</ele>
        <time>2022-04-14T14:04:50Z</time>
      </trkpt>
      <trkpt lat="49.03829" lon="2.02451">
        <ele>68.4</ele>
        <time>2022-04-14T14:04:55Z</time>
      </trkpt>
      <trkpt lat="49.03829" lon="2.02442">
        <ele>69.1</ele>
        <time>2022-04-14T14:05:01Z</time>
      </trkpt>
      <trkpt lat="49.0383" lon="2.02435">
        <ele>69.2</ele>
        <time>2022-04-14T14:05:06Z</time>
      </trkpt>
      <trkpt lat="49.03831" lon="2.02428">
        <ele>69.3</ele>
        <time>2022-04-14T14:05:11Z</time>
      </trkpt>
      <trkpt lat="49.03831" lon="2.0242">
        <ele>69.6</ele>
        <time>2022-04-14T14:05:17Z</time>
      </trkpt>
      <trkpt lat="49.0383" lon="2.02417">
        <ele>69.8</ele>
        <time>2022-04-14T14:05:23Z</time>
      </trkpt>
      <trkpt lat="49.03827" lon="2.02419">
        <ele>70.7</ele>
        <time>2022-04-14T14:05:29Z</time>
      </trkpt>
      <trkpt lat="49.03822" lon="2.02427">
        <ele>71.7</ele>
        <time>2022-04-14T14:05:35Z</time>
      </trkpt>
      <trkpt lat="49.03818" lon="2.02434">
        <ele>72.4</ele>
        <time>2022-04-14T14:05:41Z</time>
      </trkpt>
      <trkpt lat="49.03815" lon="2.0244">
        <ele>72.9</ele>
        <time>2022-04-14T14:05:46Z</time>
      </trkpt>
      <trkpt lat="49.03812" lon="2.02445">
        <ele>73.4</ele>
        <time>2022-04-14T14:05:51Z</time>
      </trkpt>
      <trkpt lat="49.03808" lon="2.02453">
        <ele>73.6</ele>
        <time>2022-04-14T14:05:57Z</time>
      </trkpt>
      <trkpt lat="49.03804" lon="2.02459">
        <ele>74</ele>
        <time>2022-04-14T14:06:03Z</time>
      </trkpt>
      <trkpt lat="49.03801" lon="2.02461">
        <ele>74.1</ele>
        <time>2022-04-14T14:06:09Z</time>
      </trkpt>
      <trkpt lat="49.03798" lon="2.02459">
        <ele>74.6</ele>
        <time>2022-04-14T14:06:15Z</time>
      </trkpt>
      <trkpt lat="49.03794" lon="2.02455">
        <ele>75.4</ele>
        <time>2022-04-14T14:06:21Z</time>
      </trkpt>
      <trkpt lat="49.03791" lon="2.0245">
        <ele>76.7</ele>
        <time>2022-04-14T14:06:26Z</time>
      </trkpt>
      <trkpt lat="49.03785" lon="2.02447">
        <ele>78.2</ele>
        <time>2022-04-14T14:06:32Z</time>
      </trkpt>
      <trkpt lat="49.0378" lon="2.02447">
        <ele>79</ele>
        <time>2022-04-14T14:06:37Z</time>
      </trkpt>
      <trkpt lat="49.03775" lon="2.02448">
        <ele>79.2</ele>
        <time>2022-04-14T14:06:42Z</time>
      </trkpt>
      <trkpt lat="49.03768" lon="2.02447">
        <ele>79.3</ele>
        <time>2022-04-14T14:06:48Z</time>
      </trkpt>
      <trkpt lat="49.03764" lon="2.02446">
        <ele>79.5</ele>
        <time>2022-04-14T14:06:53Z</time>
      </trkpt>
      <trkpt lat="49.0376" lon="2.02446">
        <ele>79.5</ele>
        <time>2022-04-14T14:06:59Z</time>
      </trkpt>
      <trkpt lat="49.03756" lon="2.02445">
        <ele>79.7</ele>
        <time>2022-04-14T14:07:04Z</time>
      </trkpt>
      <trkpt lat="49.03751" lon="2.02443">
        <ele>80.3</ele>
        <time>2022-04-14T14:07:10Z</time>
      </trkpt>
      <trkpt lat="49.03747" lon="2.02442">
        <ele>80.6</ele>
        <time>2022-04-14T14:07:15Z</time>
      </trkpt>
      <trkpt lat="49.03742" lon="2.0244">
        <ele>81.1</ele>
        <time>2022-04-14T14:07:20Z</time>
      </trkpt>
      <trkpt lat="49.03737" lon="2.02439">
        <ele>81.4</ele>
        <time>2022-04-14T14:07:26Z</time>
      </trkpt>
      <trkpt lat="49.03729" lon="2.02438">
        <ele>81.5</ele>
        <time>2022-04-14T14:07:32Z</time>
      </trkpt>
      <trkpt lat="49.03723" lon="2.02439">
        <ele>81.4</ele>
        <time>2022-04-14T14:07:37Z</time>
      </trkpt>
      <trkpt lat="49.03716" lon="2.0244">
        <ele>81.8</ele>
        <time>2022-04-14T14:07:43Z</time>
      </trkpt>
      <trkpt lat="49.03709" lon="2.02441">
        <ele>82.1</ele>
        <time>2022-04-14T14:07:48Z</time>
      </trkpt>
      <trkpt lat="49.03701" lon="2.02444">
        <ele>82.3</ele>
        <time>2022-04-14T14:07:54Z</time>
      </trkpt>
      <trkpt lat="49.03695" lon="2.02447">
        <ele>82.1</ele>
        <time>2022-04-14T14:07:59Z</time>
      </trkpt>
      <trkpt lat="49.03689" lon="2.0245">
        <ele>81.7</ele>
        <time>2022-04-14T14:08:05Z</time>
      </trkpt>
      <trkpt lat="49.03683" lon="2.02452">
        <ele>81.6</ele>
        <time>2022-04-14T14:08:11Z</time>
      </trkpt>
      <trkpt lat="49.03676" lon="2.02456">
        <ele>81.5</ele>
        <time>2022-04-14T14:08:17Z</time>
      </trkpt>
      <trkpt lat="49.03669" lon="2.02462">
        <ele>81.1</ele>
        <time>2022-04-14T14:08:23Z</time>
      </trkpt>
      <trkpt lat="49.03664" lon="2.02467">
        <ele>80.8</ele>
        <time>2022-04-14T14:08:29Z</time>
      </trkpt>
      <trkpt lat="49.03662" lon="2.0247">
        <ele>80.5</ele>
        <time>2022-04-14T14:08:34Z</time>
      </trkpt>
      <trkpt lat="49.03659" lon="2.02475">
        <ele>79.5</ele>
        <time>2022-04-14T14:08:40Z</time>
      </trkpt>
      <trkpt lat="49.03656" lon="2.02477">
        <ele>79.3</ele>
        <time>2022-04-14T14:08:46Z</time>
      </trkpt>
      <trkpt lat="49.03653" lon="2.02477">
        <ele>79.3</ele>
        <time>2022-04-14T14:08:51Z</time>
      </trkpt>
      <trkpt lat="49.03647" lon="2.02478">
        <ele>79.5</ele>
        <time>2022-04-14T14:08:57Z</time>
      </trkpt>
      <trkpt lat="49.03641" lon="2.0248">
        <ele>79.4</ele>
        <time>2022-04-14T14:09:03Z</time>
      </trkpt>
      <trkpt lat="49.03636" lon="2.02482">
        <ele>79.5</ele>
        <time>2022-04-14T14:09:09Z</time>
      </trkpt>
      <trkpt lat="49.03634" lon="2.02483">
        <ele>79.7</ele>
        <time>2022-04-14T14:09:15Z</time>
      </trkpt>
      <trkpt lat="49.03632" lon="2.02483">
        <ele>80</ele>
        <time>2022-04-14T14:09:21Z</time>
      </trkpt>
      <trkpt lat="49.0363" lon="2.02483">
        <ele>80.2</ele>
        <time>2022-04-14T14:09:27Z</time>
      </trkpt>
      <trkpt lat="49.03628" lon="2.02485">
        <ele>80.1</ele>
        <time>2022-04-14T14:09:32Z</time>
      </trkpt>
      <trkpt lat="49.03625" lon="2.0249">
        <ele>79.7</ele>
        <time>2022-04-14T14:09:38Z</time>
      </trkpt>
      <trkpt lat="49.03621" lon="2.02498">
        <ele>78.9</ele>
        <time>2022-04-14T14:09:44Z</time>
      </trkpt>
      <trkpt lat="49.03618" lon="2.02504">
        <ele>78.3</ele>
        <time>2022-04-14T14:09:49Z</time>
      </trkpt>
      <trkpt lat="49.03613" lon="2.02511">
        <ele>77.7</ele>
        <time>2022-04-14T14:09:55Z</time>
      </trkpt>
      <trkpt lat="49.03608" lon="2.02517">
        <ele>77.4</ele>
        <time>2022-04-14T14:10:00Z</time>
      </trkpt>
      <trkpt lat="49.03603" lon="2.02521">
        <ele>77.5</ele>
        <time>2022-04-14T14:10:05Z</time>
      </trkpt>
      <trkpt lat="49.03598" lon="2.02524">
        <ele>78</ele>
        <time>2022-04-14T14:10:10Z</time>
      </trkpt>
      <trkpt lat="49.03591" lon="2.02528">
        <ele>78.5</ele>
        <time>2022-04-14T14:10:16Z</time>
      </trkpt>
      <trkpt lat="49.03585" lon="2.02533">
        <ele>78.7</ele>
        <time>2022-04-14T14:10:21Z</time>
      </trkpt>
      <trkpt lat="49.03579" lon="2.02538">
        <ele>78.7</ele>
        <time>2022-04-14T14:10:27Z</time>
      </trkpt>
      <trkpt lat="49.03574" lon="2.02543">
        <ele>78.5</ele>
        <time>2022-04-14T14:10:32Z</time>
      </trkpt>
      <trkpt lat="49.0357" lon="2.02547">
        <ele>78.3</ele>
        <time>2022-04-14T14:10:38Z</time>
      </trkpt>
      <trkpt lat="49.0357" lon="2.02549">
        <ele>78.1</ele>
        <time>2022-04-14T14:10:43Z</time>
      </trkpt>
      <trkpt lat="49.0357" lon="2.02549">
        <ele>78</ele>
        <time>2022-04-14T14:10:49Z</time>
      </trkpt>
      <trkpt lat="49.03571" lon="2.02549">
        <ele>77.9</ele>
        <time>2022-04-14T14:10:55Z</time>
      </trkpt>
      <trkpt lat="49.0357" lon="2.0255">
        <ele>77.8</ele>
        <time>2022-04-14T14:11:00Z</time>
      </trkpt>
      <trkpt lat="49.03566" lon="2.02552">
        <ele>78</ele>
        <time>2022-04-14T14:11:06Z</time>
      </trkpt>
      <trkpt lat="49.03563" lon="2.02556">
        <ele>77.9</ele>
        <time>2022-04-14T14:11:11Z</time>
      </trkpt>
      <trkpt lat="49.03558" lon="2.02563">
        <ele>77.7</ele>
        <time>2022-04-14T14:11:17Z</time>
      </trkpt>
      <trkpt lat="49.03554" lon="2.02571">
        <ele>77.6</ele>
        <time>2022-04-14T14:11:23Z</time>
      </trkpt>
      <trkpt lat="49.03549" lon="2.0258">
        <ele>77.5</ele>
        <time>2022-04-14T14:11:28Z</time>
      </trkpt>
      <trkpt lat="49.03545" lon="2.02589">
        <ele>76.8</ele>
        <time>2022-04-14T14:11:33Z</time>
      </trkpt>
      <trkpt lat="49.03541" lon="2.02598">
        <ele>76</ele>
        <time>2022-04-14T14:11:39Z</time>
      </trkpt>
      <trkpt lat="49.03539" lon="2.02606">
        <ele>75.4</ele>
        <time>2022-04-14T14:11:45Z</time>
      </trkpt>
      <trkpt lat="49.03537" lon="2.02612">
        <ele>75.3</ele>
        <time>2022-04-14T14:11:50Z</time>
      </trkpt>
      <trkpt lat="49.03534" lon="2.02618">
        <ele>75.4</ele>
        <time>2022-04-14T14:11:56Z</time>
      </trkpt>
      <trkpt lat="49.0353" lon="2.02626">
        <ele>75.9</ele>
        <time>2022-04-14T14:12:02Z</time>
      </trkpt>
      <trkpt lat="49.03526" lon="2.02632">
        <ele>76.2</ele>
        <time>2022-04-14T14:12:07Z</time>
      </trkpt>
      <trkpt lat="49.0352" lon="2.02641">
        <ele>75.7</ele>
        <time>2022-04-14T14:12:13Z</time>
      </trkpt>
      <trkpt lat="49.03515" lon="2.0265">
        <ele>75.3</ele>
        <time>2022-04-14T14:12:19Z</time>
      </trkpt>
      <trkpt lat="49.03511" lon="2.02657">
        <ele>75.2</ele>
        <time>2022-04-14T14:12:24Z</time>
      </trkpt>
      <trkpt lat="49.03505" lon="2.02663">
        <ele>75.5</ele>
        <time>2022-04-14T14:12:30Z</time>
      </trkpt>
      <trkpt lat="49.035" lon="2.02666">
        <ele>76.1</ele>
        <time>2022-04-14T14:12:35Z</time>
      </trkpt>
      <trkpt lat="49.03495" lon="2.02667">
        <ele>76.1</ele>
        <time>2022-04-14T14:12:40Z</time>
      </trkpt>
      <trkpt lat="49.0349" lon="2.02667">
        <ele>76.2</ele>
        <time>2022-04-14T14:12:46Z</time>
      </trkpt>
      <trkpt lat="49.03484" lon="2.02668">
        <ele>76.4</ele>
        <time>2022-04-14T14:12:52Z</time>
      </trkpt>
      <trkpt lat="49.03479" lon="2.02667">
        <ele>76.6</ele>
        <time>2022-04-14T14:12:57Z</time>
      </trkpt>
      <trkpt lat="49.03472" lon="2.02667">
        <ele>76.9</ele>
        <time>2022-04-14T14:13:03Z</time>
      </trkpt>
      <trkpt lat="49.03466" lon="2.02668">
        <ele>76.8</ele>
        <time>2022-04-14T14:13:08Z</time>
      </trkpt>
      <trkpt lat="49.03459" lon="2.0267">
        <ele>76.4</ele>
        <time>2022-04-14T14:13:14Z</time>
      </trkpt>
      <trkpt lat="49.03452" lon="2.02673">
        <ele>75.9</ele>
        <time>2022-04-14T14:13:20Z</time>
      </trkpt>
      <trkpt lat="49.03445" lon="2.02674">
        <ele>75.9</ele>
        <time>2022-04-14T14:13:26Z</time>
      </trkpt>
      <trkpt lat="49.03439" lon="2.02672">
        <ele>75.9</ele>
        <time>2022-04-14T14:13:32Z</time>
      </trkpt>
      <trkpt lat="49.03433" lon="2.02669">
        <ele>76.3</ele>
        <time>2022-04-14T14:13:38Z</time>
      </trkpt>
      <trkpt lat="49.03428" lon="2.02663">
        <ele>76.9</ele>
        <time>2022-04-14T14:13:44Z</time>
      </trkpt>
      <trkpt lat="49.03424" lon="2.02658">
        <ele>77.5</ele>
        <time>2022-04-14T14:13:49Z</time>
      </trkpt>
      <trkpt lat="49.0342" lon="2.02652">
        <ele>78.2</ele>
        <time>2022-04-14T14:13:54Z</time>
      </trkpt>
      <trkpt lat="49.03416" lon="2.02643">
        <ele>79.3</ele>
        <time>2022-04-14T14:14:00Z</time>
      </trkpt>
      <trkpt lat="49.03412" lon="2.02635">
        <ele>79.9</ele>
        <time>2022-04-14T14:14:05Z</time>
      </trkpt>
      <trkpt lat="49.03408" lon="2.02628">
        <ele>80.3</ele>
        <time>2022-04-14T14:14:10Z</time>
      </trkpt>
      <trkpt lat="49.03405" lon="2.02624">
        <ele>80.5</ele>
        <time>2022-04-14T14:14:15Z</time>
      </trkpt>
      <trkpt lat="49.034" lon="2.0262">
        <ele>80.6</ele>
        <time>2022-04-14T14:14:20Z</time>
      </trkpt>
      <trkpt lat="49.03395" lon="2.02614">
        <ele>80.9</ele>
        <time>2022-04-14T14:14:26Z</time>
      </trkpt>
      <trkpt lat="49.03391" lon="2.02609">
        <ele>81.3</ele>
        <time>2022-04-14T14:14:31Z</time>
      </trkpt>
      <trkpt lat="49.03386" lon="2.02601">
        <ele>81.6</ele>
        <time>2022-04-14T14:14:37Z</time>
      </trkpt>
      <trkpt lat="49.03383" lon="2.02594">
        <ele>82</ele>
        <time>2022-04-14T14:14:43Z</time>
      </trkpt>
      <trkpt lat="49.03379" lon="2.02587">
        <ele>82.4</ele>
        <time>2022-04-14T14:14:49Z</time>
      </trkpt>
      <trkpt lat="49.03374" lon="2.02579">
        <ele>82.8</ele>
        <time>2022-04-14T14:14:55Z</time>
      </trkpt>
      <trkpt lat="49.03369" lon="2.02574">
        <ele>83.1</ele>
        <time>2022-04-14T14:15:01Z</time>
      </trkpt>
      <trkpt lat="49.03366" lon="2.02571">
        <ele>83.1</ele>
        <time>2022-04-14T14:15:06Z</time>
      </trkpt>
      <trkpt lat="49.03361" lon="2.02568">
        <ele>83.1</ele>
        <time>2022-04-14T14:15:11Z</time>
      </trkpt>
      <trkpt lat="49.03356" lon="2.02566">
        <ele>83.1</ele>
        <time>2022-04-14T14:15:16Z</time>
      </trkpt>
      <trkpt lat="49.03351" lon="2.02563">
        <ele>83.1</ele>
        <time>2022-04-14T14:15:22Z</time>
      </trkpt>
      <trkpt lat="49.03348" lon="2.02561">
        <ele>83.2</ele>
        <time>2022-04-14T14:15:27Z</time>
      </trkpt>
      <trkpt lat="49.03347" lon="2.0256">
        <ele>83.2</ele>
        <time>2022-04-14T14:15:33Z</time>
      </trkpt>
      <trkpt lat="49.03347" lon="2.0256">
        <ele>83.2</ele>
        <time>2022-04-14T14:15:38Z</time>
      </trkpt>
      <trkpt lat="49.03347" lon="2.0256">
        <ele>83.1</ele>
        <time>2022-04-14T14:15:44Z</time>
      </trkpt>
      <trkpt lat="49.03346" lon="2.02563">
        <ele>82.9</ele>
        <time>2022-04-14T14:15:50Z</time>
      </trkpt>
      <trkpt lat="49.03343" lon="2.02571">
        <ele>82.3</ele>
        <time>2022-04-14T14:15:55Z</time>
      </trkpt>
      <trkpt lat="49.03338" lon="2.02578">
        <ele>81.6</ele>
        <time>2022-04-14T14:16:00Z</time>
      </trkpt>
      <trkpt lat="49.03335" lon="2.02584">
        <ele>81</ele>
        <time>2022-04-14T14:16:06Z</time>
      </trkpt>
      <trkpt lat="49.03331" lon="2.02589">
        <ele>80.6</ele>
        <time>2022-04-14T14:16:11Z</time>
      </trkpt>
      <trkpt lat="49.03326" lon="2.02596">
        <ele>80.1</ele>
        <time>2022-04-14T14:16:17Z</time>
      </trkpt>
      <trkpt lat="49.03322" lon="2.02602">
        <ele>79.6</ele>
        <time>2022-04-14T14:16:22Z</time>
      </trkpt>
      <trkpt lat="49.03317" lon="2.0261">
        <ele>79.1</ele>
        <time>2022-04-14T14:16:28Z</time>
      </trkpt>
      <trkpt lat="49.03313" lon="2.02618">
        <ele>78.3</ele>
        <time>2022-04-14T14:16:33Z</time>
      </trkpt>
      <trkpt lat="49.03308" lon="2.02627">
        <ele>77.3</ele>
        <time>2022-04-14T14:16:39Z</time>
      </trkpt>
      <trkpt lat="49.03304" lon="2.02633">
        <ele>76.5</ele>
        <time>2022-04-14T14:16:44Z</time>
      </trkpt>
      <trkpt lat="49.033" lon="2.0264">
        <ele>75.7</ele>
        <time>2022-04-14T14:16:50Z</time>
      </trkpt>
      <trkpt lat="49.03296" lon="2.02645">
        <ele>75.5</ele>
        <time>2022-04-14T14:16:56Z</time>
      </trkpt>
      <trkpt lat="49.03292" lon="2.02657">
        <ele>75.8</ele>
        <time>2022-04-14T14:17:02Z</time>
      </trkpt>
      <trkpt lat="49.03291" lon="2.02666">
        <ele>76.2</ele>
        <time>2022-04-14T14:17:07Z</time>
      </trkpt>
      <trkpt lat="49.0329" lon="2.02677">
        <ele>76.8</ele>
        <time>2022-04-14T14:17:13Z</time>
      </trkpt>
      <trkpt lat="49.0329" lon="2.02685">
        <ele>77.3</ele>
        <time>2022-04-14T14:17:19Z</time>
      </trkpt>
      <trkpt lat="49.0329" lon="2.02693">
        <ele>77.7</ele>
        <time>2022-04-14T14:17:24Z</time>
      </trkpt>
      <trkpt lat="49.03289" lon="2.02701">
        <ele>78.2</ele>
        <time>2022-04-14T14:17:30Z</time>
      </trkpt>
      <trkpt lat="49.03289" lon="2.02711">
        <ele>78.9</ele>
        <time>2022-04-14T14:17:36Z</time>
      </trkpt>
      <trkpt lat="49.03288" lon="2.02722">
        <ele>79.5</ele>
        <time>2022-04-14T14:17:41Z</time>
      </trkpt>
      <trkpt lat="49.03289" lon="2.02734">
        <ele>80.1</ele>
        <time>2022-04-14T14:17:47Z</time>
      </trkpt>
      <trkpt lat="49.0329" lon="2.02741">
        <ele>80.4</ele>
        <time>2022-04-14T14:17:52Z</time>
      </trkpt>
      <trkpt lat="49.03291" lon="2.0275">
        <ele>80.6</ele>
        <time>2022-04-14T14:17:58Z</time>
      </trkpt>
      <trkpt lat="49.03291" lon="2.02756">
        <ele>80.9</ele>
        <time>2022-04-14T14:18:03Z</time>
      </trkpt>
      <trkpt lat="49.03288" lon="2.02761">
        <ele>81.7</ele>
        <time>2022-04-14T14:18:09Z</time>
      </trkpt>
      <trkpt lat="49.03285" lon="2.02766">
        <ele>82.4</ele>
        <time>2022-04-14T14:18:14Z</time>
      </trkpt>
      <trkpt lat="49.03281" lon="2.0277">
        <ele>83.2</ele>
        <time>2022-04-14T14:18:19Z</time>
      </trkpt>
      <trkpt lat="49.03277" lon="2.02775">
        <ele>84</ele>
        <time>2022-04-14T14:18:25Z</time>
      </trkpt>
      <trkpt lat="49.03272" lon="2.02779">
        <ele>84.7</ele>
        <time>2022-04-14T14:18:30Z</time>
      </trkpt>
      <trkpt lat="49.03267" lon="2.02785">
        <ele>85.4</ele>
        <time>2022-04-14T14:18:36Z</time>
      </trkpt>
      <trkpt lat="49.03263" lon="2.0279">
        <ele>86.1</ele>
        <time>2022-04-14T14:18:41Z</time>
      </trkpt>
      <trkpt lat="49.03258" lon="2.02795">
        <ele>86.8</ele>
        <time>2022-04-14T14:18:46Z</time>
      </trkpt>
      <trkpt lat="49.03251" lon="2.02801">
        <ele>87.7</ele>
        <time>2022-04-14T14:18:52Z</time>
      </trkpt>
      <trkpt lat="49.03245" lon="2.02806">
        <ele>88.2</ele>
        <time>2022-04-14T14:18:58Z</time>
      </trkpt>
      <trkpt lat="49.03238" lon="2.02812">
        <ele>88.4</ele>
        <time>2022-04-14T14:19:04Z</time>
      </trkpt>
      <trkpt lat="49.03232" lon="2.02817">
        <ele>88.6</ele>
        <time>2022-04-14T14:19:09Z</time>
      </trkpt>
      <trkpt lat="49.03225" lon="2.02823">
        <ele>88.9</ele>
        <time>2022-04-14T14:19:15Z</time>
      </trkpt>
      <trkpt lat="49.03218" lon="2.02828">
        <ele>89</ele>
        <time>2022-04-14T14:19:21Z</time>
      </trkpt>
      <trkpt lat="49.03212" lon="2.02834">
        <ele>89</ele>
        <time>2022-04-14T14:19:26Z</time>
      </trkpt>
      <trkpt lat="49.03204" lon="2.02842">
        <ele>89.3</ele>
        <time>2022-04-14T14:19:32Z</time>
      </trkpt>
      <trkpt lat="49.03198" lon="2.02849">
        <ele>89.5</ele>
        <time>2022-04-14T14:19:37Z</time>
      </trkpt>
      <trkpt lat="49.03191" lon="2.02856">
        <ele>89.8</ele>
        <time>2022-04-14T14:19:43Z</time>
      </trkpt>
      <trkpt lat="49.03186" lon="2.0286">
        <ele>90</ele>
        <time>2022-04-14T14:19:48Z</time>
      </trkpt>
      <trkpt lat="49.0318" lon="2.02865">
        <ele>89.9</ele>
        <time>2022-04-14T14:19:54Z</time>
      </trkpt>
      <trkpt lat="49.03174" lon="2.02868">
        <ele>89.8</ele>
        <time>2022-04-14T14:19:59Z</time>
      </trkpt>
      <trkpt lat="49.03166" lon="2.02871">
        <ele>89.6</ele>
        <time>2022-04-14T14:20:05Z</time>
      </trkpt>
      <trkpt lat="49.03159" lon="2.02876">
        <ele>89.5</ele>
        <time>2022-04-14T14:20:11Z</time>
      </trkpt>
      <trkpt lat="49.03152" lon="2.02877">
        <ele>89.4</ele>
        <time>2022-04-14T14:20:16Z</time>
      </trkpt>
      <trkpt lat="49.03142" lon="2.02878">
        <ele>89.4</ele>
        <time>2022-04-14T14:20:22Z</time>
      </trkpt>
      <trkpt lat="49.03132" lon="2.02879">
        <ele>89.6</ele>
        <time>2022-04-14T14:20:28Z</time>
      </trkpt>
      <trkpt lat="49.03125" lon="2.02882">
        <ele>89.7</ele>
        <time>2022-04-14T14:20:33Z</time>
      </trkpt>
      <trkpt lat="49.03116" lon="2.02883">
        <ele>90</ele>
        <time>2022-04-14T14:20:39Z</time>
      </trkpt>
      <trkpt lat="49.03108" lon="2.02881">
        <ele>90.3</ele>
        <time>2022-04-14T14:20:45Z</time>
      </trkpt>
      <trkpt lat="49.03101" lon="2.0288">
        <ele>90.4</ele>
        <time>2022-04-14T14:20:50Z</time>
      </trkpt>
      <trkpt lat="49.03093" lon="2.02884">
        <ele>90.3</ele>
        <time>2022-04-14T14:20:55Z</time>
      </trkpt>
      <trkpt lat="49.03088" lon="2.02887">
        <ele>90.1</ele>
        <time>2022-04-14T14:21:01Z</time>
      </trkpt>
      <trkpt lat="49.03082" lon="2.02889">
        <ele>90</ele>
        <time>2022-04-14T14:21:06Z</time>
      </trkpt>
      <trkpt lat="49.03077" lon="2.02891">
        <ele>90.1</ele>
        <time>2022-04-14T14:21:11Z</time>
      </trkpt>
      <trkpt lat="49.03076" lon="2.02896">
        <ele>89.8</ele>
        <time>2022-04-14T14:21:16Z</time>
      </trkpt>
      <trkpt lat="49.03076" lon="2.02905">
        <ele>89.2</ele>
        <time>2022-04-14T14:21:22Z</time>
      </trkpt>
      <trkpt lat="49.03078" lon="2.02912">
        <ele>88.7</ele>
        <time>2022-04-14T14:21:28Z</time>
      </trkpt>
      <trkpt lat="49.03083" lon="2.02918">
        <ele>87.8</ele>
        <time>2022-04-14T14:21:34Z</time>
      </trkpt>
      <trkpt lat="49.03087" lon="2.02923">
        <ele>87</ele>
        <time>2022-04-14T14:21:40Z</time>
      </trkpt>
      <trkpt lat="49.03087" lon="2.02924">
        <ele>86.8</ele>
        <time>2022-04-14T14:21:46Z</time>
      </trkpt>
      <trkpt lat="49.03088" lon="2.02925">
        <ele>86.7</ele>
        <time>2022-04-14T14:21:52Z</time>
      </trkpt>
      <trkpt lat="49.03088" lon="2.02926">
        <ele>86.6</ele>
        <time>2022-04-14T14:21:57Z</time>
      </trkpt>
      <trkpt lat="49.03089" lon="2.02926">
        <ele>86.5</ele>
        <time>2022-04-14T14:22:03Z</time>
      </trkpt>
      <trkpt lat="49.03089" lon="2.02926">
        <ele>86.5</ele>
        <time>2022-04-14T14:22:09Z</time>
      </trkpt>
      <trkpt lat="49.03089" lon="2.02926">
        <ele>86.5</ele>
        <time>2022-04-14T14:22:15Z</time>
      </trkpt>
      <trkpt lat="49.03089" lon="2.02926">
        <ele>86.6</ele>
        <time>2022-04-14T14:22:21Z</time>
      </trkpt>
      <trkpt lat="49.03087" lon="2.02923">
        <ele>87</ele>
        <time>2022-04-14T14:22:26Z</time>
      </trkpt>
      <trkpt lat="49.03082" lon="2.02915">
        <ele>88.2</ele>
        <time>2022-04-14T14:22:32Z</time>
      </trkpt>
      <trkpt lat="49.03075" lon="2.02906">
        <ele>89.3</ele>
        <time>2022-04-14T14:22:38Z</time>
      </trkpt>
      <trkpt lat="49.03068" lon="2.02897">
        <ele>90.1</ele>
        <time>2022-04-14T14:22:44Z</time>
      </trkpt>
      <trkpt lat="49.03061" lon="2.02891">
        <ele>90.7</ele>
        <time>2022-04-14T14:22:49Z</time>
      </trkpt>
      <trkpt lat="49.03054" lon="2.02889">
        <ele>91.1</ele>
        <time>2022-04-14T14:22:54Z</time>
      </trkpt>
      <trkpt lat="49.03046" lon="2.02888">
        <ele>91.7</ele>
        <time>2022-04-14T14:23:00Z</time>
      </trkpt>
      <trkpt lat="49.0304" lon="2.02888">
        <ele>92.1</ele>
        <time>2022-04-14T14:23:05Z</time>
      </trkpt>
      <trkpt lat="49.03033" lon="2.0289">
        <ele>92.5</ele>
        <time>2022-04-14T14:23:11Z</time>
      </trkpt>
      <trkpt lat="49.03028" lon="2.02892">
        <ele>92.8</ele>
        <time>2022-04-14T14:23:16Z</time>
      </trkpt>
      <trkpt lat="49.03021" lon="2.02895">
        <ele>92.8</ele>
        <time>2022-04-14T14:23:22Z</time>
      </trkpt>
      <trkpt lat="49.03014" lon="2.02898">
        <ele>92.9</ele>
        <time>2022-04-14T14:23:28Z</time>
      </trkpt>
      <trkpt lat="49.03008" lon="2.02901">
        <ele>92.8</ele>
        <time>2022-04-14T14:23:33Z</time>
      </trkpt>
      <trkpt lat="49.03001" lon="2.02905">
        <ele>92.8</ele>
        <time>2022-04-14T14:23:39Z</time>
      </trkpt>
      <trkpt lat="49.02994" lon="2.02909">
        <ele>92.8</ele>
        <time>2022-04-14T14:23:45Z</time>
      </trkpt>
      <trkpt lat="49.02987" lon="2.0291">
        <ele>93</ele>
        <time>2022-04-14T14:23:50Z</time>
      </trkpt>
      <trkpt lat="49.02979" lon="2.02912">
        <ele>93.1</ele>
        <time>2022-04-14T14:23:56Z</time>
      </trkpt>
      <trkpt lat="49.02972" lon="2.02912">
        <ele>93.3</ele>
        <time>2022-04-14T14:24:01Z</time>
      </trkpt>
      <trkpt lat="49.02964" lon="2.02912">
        <ele>93.6</ele>
        <time>2022-04-14T14:24:07Z</time>
      </trkpt>
      <trkpt lat="49.02955" lon="2.02912">
        <ele>93.9</ele>
        <time>2022-04-14T14:24:13Z</time>
      </trkpt>
      <trkpt lat="49.02948" lon="2.02913">
        <ele>94</ele>
        <time>2022-04-14T14:24:18Z</time>
      </trkpt>
      <trkpt lat="49.0294" lon="2.02914">
        <ele>94.1</ele>
        <time>2022-04-14T14:24:24Z</time>
      </trkpt>
      <trkpt lat="49.02932" lon="2.02917">
        <ele>94</ele>
        <time>2022-04-14T14:24:30Z</time>
      </trkpt>
      <trkpt lat="49.02924" lon="2.02921">
        <ele>93.5</ele>
        <time>2022-04-14T14:24:36Z</time>
      </trkpt>
      <trkpt lat="49.02915" lon="2.02927">
        <ele>93</ele>
        <time>2022-04-14T14:24:42Z</time>
      </trkpt>
      <trkpt lat="49.02907" lon="2.02932">
        <ele>92.9</ele>
        <time>2022-04-14T14:24:48Z</time>
      </trkpt>
      <trkpt lat="49.02899" lon="2.02937">
        <ele>92.9</ele>
        <time>2022-04-14T14:24:54Z</time>
      </trkpt>
      <trkpt lat="49.02892" lon="2.02943">
        <ele>92.9</ele>
        <time>2022-04-14T14:25:00Z</time>
      </trkpt>
      <trkpt lat="49.02887" lon="2.02948">
        <ele>92.5</ele>
        <time>2022-04-14T14:25:05Z</time>
      </trkpt>
      <trkpt lat="49.02881" lon="2.02955">
        <ele>92</ele>
        <time>2022-04-14T14:25:11Z</time>
      </trkpt>
      <trkpt lat="49.02874" lon="2.02961">
        <ele>91.7</ele>
        <time>2022-04-14T14:25:17Z</time>
      </trkpt>
      <trkpt lat="49.02867" lon="2.02966">
        <ele>91.9</ele>
        <time>2022-04-14T14:25:23Z</time>
      </trkpt>
      <trkpt lat="49.02859" lon="2.02969">
        <ele>92.4</ele>
        <time>2022-04-14T14:25:29Z</time>
      </trkpt>
      <trkpt lat="49.02852" lon="2.02974">
        <ele>92.3</ele>
        <time>2022-04-14T14:25:35Z</time>
      </trkpt>
      <trkpt lat="49.02846" lon="2.02983">
        <ele>91.1</ele>
        <time>2022-04-14T14:25:40Z</time>
      </trkpt>
      <trkpt lat="49.0284" lon="2.02988">
        <ele>91</ele>
        <time>2022-04-14T14:25:45Z</time>
      </trkpt>
      <trkpt lat="49.02832" lon="2.0299">
        <ele>91.6</ele>
        <time>2022-04-14T14:25:51Z</time>
      </trkpt>
      <trkpt lat="49.02826" lon="2.02991">
        <ele>92.1</ele>
        <time>2022-04-14T14:25:56Z</time>
      </trkpt>
      <trkpt lat="49.02819" lon="2.02994">
        <ele>92.3</ele>
        <time>2022-04-14T14:26:02Z</time>
      </trkpt>
      <trkpt lat="49.02814" lon="2.02997">
        <ele>92.5</ele>
        <time>2022-04-14T14:26:07Z</time>
      </trkpt>
      <trkpt lat="49.02805" lon="2.03">
        <ele>93.1</ele>
        <time>2022-04-14T14:26:13Z</time>
      </trkpt>
      <trkpt lat="49.02797" lon="2.03006">
        <ele>92.6</ele>
        <time>2022-04-14T14:26:18Z</time>
      </trkpt>
      <trkpt lat="49.0279" lon="2.0301">
        <ele>92.5</ele>
        <time>2022-04-14T14:26:24Z</time>
      </trkpt>
      <trkpt lat="49.02784" lon="2.03011">
        <ele>92.8</ele>
        <time>2022-04-14T14:26:29Z</time>
      </trkpt>
      <trkpt lat="49.02778" lon="2.03012">
        <ele>93.1</ele>
        <time>2022-04-14T14:26:35Z</time>
      </trkpt>
      <trkpt lat="49.02771" lon="2.03014">
        <ele>93.4</ele>
        <time>2022-04-14T14:26:40Z</time>
      </trkpt>
      <trkpt lat="49.02764" lon="2.03016">
        <ele>93.6</ele>
        <time>2022-04-14T14:26:45Z</time>
      </trkpt>
      <trkpt lat="49.02755" lon="2.03019">
        <ele>93.7</ele>
        <time>2022-04-14T14:26:51Z</time>
      </trkpt>
      <trkpt lat="49.02746" lon="2.0302">
        <ele>94.1</ele>
        <time>2022-04-14T14:26:57Z</time>
      </trkpt>
      <trkpt lat="49.02739" lon="2.03023">
        <ele>94.2</ele>
        <time>2022-04-14T14:27:02Z</time>
      </trkpt>
      <trkpt lat="49.02734" lon="2.03027">
        <ele>94.2</ele>
        <time>2022-04-14T14:27:07Z</time>
      </trkpt>
      <trkpt lat="49.02729" lon="2.03031">
        <ele>93.9</ele>
        <time>2022-04-14T14:27:13Z</time>
      </trkpt>
      <trkpt lat="49.02722" lon="2.03035">
        <ele>93.6</ele>
        <time>2022-04-14T14:27:18Z</time>
      </trkpt>
      <trkpt lat="49.02711" lon="2.03044">
        <ele>92.6</ele>
        <time>2022-04-14T14:27:24Z</time>
      </trkpt>
      <trkpt lat="49.02702" lon="2.03048">
        <ele>92.8</ele>
        <time>2022-04-14T14:27:30Z</time>
      </trkpt>
      <trkpt lat="49.02696" lon="2.03052">
        <ele>93</ele>
        <time>2022-04-14T14:27:35Z</time>
      </trkpt>
      <trkpt lat="49.02689" lon="2.03057">
        <ele>93.1</ele>
        <time>2022-04-14T14:27:41Z</time>
      </trkpt>
      <trkpt lat="49.02682" lon="2.0306">
        <ele>93.1</ele>
        <time>2022-04-14T14:27:46Z</time>
      </trkpt>
      <trkpt lat="49.02675" lon="2.03066">
        <ele>93</ele>
        <time>2022-04-14T14:27:52Z</time>
      </trkpt>
      <trkpt lat="49.02669" lon="2.03072">
        <ele>93.1</ele>
        <time>2022-04-14T14:27:58Z</time>
      </trkpt>
      <trkpt lat="49.02663" lon="2.03079">
        <ele>93.2</ele>
        <time>2022-04-14T14:28:04Z</time>
      </trkpt>
      <trkpt lat="49.02653" lon="2.03079">
        <ele>93.2</ele>
        <time>2022-04-14T14:28:10Z</time>
      </trkpt>
      <trkpt lat="49.02647" lon="2.03081">
        <ele>93.2</ele>
        <time>2022-04-14T14:28:16Z</time>
      </trkpt>
      <trkpt lat="49.02642" lon="2.03081">
        <ele>93.2</ele>
        <time>2022-04-14T14:28:21Z</time>
      </trkpt>
      <trkpt lat="49.02636" lon="2.03078">
        <ele>93.5</ele>
        <time>2022-04-14T14:28:26Z</time>
      </trkpt>
      <trkpt lat="49.02629" lon="2.03075">
        <ele>93.8</ele>
        <time>2022-04-14T14:28:32Z</time>
      </trkpt>
      <trkpt lat="49.02622" lon="2.03072">
        <ele>94.2</ele>
        <time>2022-04-14T14:28:38Z</time>
      </trkpt>
      <trkpt lat="49.02614" lon="2.03071">
        <ele>94.4</ele>
        <time>2022-04-14T14:28:43Z</time>
      </trkpt>
      <trkpt lat="49.02605" lon="2.03072">
        <ele>94.3</ele>
        <time>2022-04-14T14:28:49Z</time>
      </trkpt>
      <trkpt lat="49.02598" lon="2.03077">
        <ele>94.1</ele>
        <time>2022-04-14T14:28:54Z</time>
      </trkpt>
      <trkpt lat="49.02591" lon="2.03084">
        <ele>94</ele>
        <time>2022-04-14T14:29:00Z</time>
      </trkpt>
      <trkpt lat="49.02584" lon="2.03089">
        <ele>93.6</ele>
        <time>2022-04-14T14:29:05Z</time>
      </trkpt>
      <trkpt lat="49.02578" lon="2.03094">
        <ele>93.3</ele>
        <time>2022-04-14T14:29:10Z</time>
      </trkpt>
      <trkpt lat="49.02573" lon="2.03097">
        <ele>93.2</ele>
        <time>2022-04-14T14:29:15Z</time>
      </trkpt>
      <trkpt lat="49.02567" lon="2.03101">
        <ele>93.1</ele>
        <time>2022-04-14T14:29:21Z</time>
      </trkpt>
      <trkpt lat="49.02564" lon="2.03106">
        <ele>93</ele>
        <time>2022-04-14T14:29:26Z</time>
      </trkpt>
      <trkpt lat="49.02561" lon="2.03111">
        <ele>92.8</ele>
        <time>2022-04-14T14:29:31Z</time>
      </trkpt>
      <trkpt lat="49.02558" lon="2.03117">
        <ele>92.5</ele>
        <time>2022-04-14T14:29:36Z</time>
      </trkpt>
      <trkpt lat="49.02556" lon="2.03127">
        <ele>91.9</ele>
        <time>2022-04-14T14:29:42Z</time>
      </trkpt>
      <trkpt lat="49.02552" lon="2.03136">
        <ele>91.2</ele>
        <time>2022-04-14T14:29:48Z</time>
      </trkpt>
      <trkpt lat="49.02549" lon="2.03144">
        <ele>90.8</ele>
        <time>2022-04-14T14:29:54Z</time>
      </trkpt>
      <trkpt lat="49.02546" lon="2.03151">
        <ele>90.7</ele>
        <time>2022-04-14T14:29:59Z</time>
      </trkpt>
      <trkpt lat="49.02542" lon="2.03159">
        <ele>90.6</ele>
        <time>2022-04-14T14:30:04Z</time>
      </trkpt>
      <trkpt lat="49.02537" lon="2.03166">
        <ele>90.7</ele>
        <time>2022-04-14T14:30:09Z</time>
      </trkpt>
      <trkpt lat="49.02531" lon="2.03174">
        <ele>90.1</ele>
        <time>2022-04-14T14:30:15Z</time>
      </trkpt>
      <trkpt lat="49.02525" lon="2.03178">
        <ele>89.8</ele>
        <time>2022-04-14T14:30:20Z</time>
      </trkpt>
      <trkpt lat="49.02519" lon="2.03183">
        <ele>89.6</ele>
        <time>2022-04-14T14:30:25Z</time>
      </trkpt>
      <trkpt lat="49.02513" lon="2.03187">
        <ele>89.6</ele>
        <time>2022-04-14T14:30:30Z</time>
      </trkpt>
      <trkpt lat="49.02505" lon="2.03192">
        <ele>89.7</ele>
        <time>2022-04-14T14:30:36Z</time>
      </trkpt>
      <trkpt lat="49.02499" lon="2.03197">
        <ele>89.9</ele>
        <time>2022-04-14T14:30:41Z</time>
      </trkpt>
      <trkpt lat="49.02493" lon="2.03202">
        <ele>89.8</ele>
        <time>2022-04-14T14:30:47Z</time>
      </trkpt>
      <trkpt lat="49.02486" lon="2.03206">
        <ele>89.9</ele>
        <time>2022-04-14T14:30:53Z</time>
      </trkpt>
      <trkpt lat="49.02478" lon="2.03208">
        <ele>90.2</ele>
        <time>2022-04-14T14:30:59Z</time>
      </trkpt>
      <trkpt lat="49.02474" lon="2.03204">
        <ele>90.6</ele>
        <time>2022-04-14T14:31:04Z</time>
      </trkpt>
      <trkpt lat="49.02471" lon="2.03195">
        <ele>91</ele>
        <time>2022-04-14T14:31:10Z</time>
      </trkpt>
      <trkpt lat="49.02468" lon="2.03191">
        <ele>91</ele>
        <time>2022-04-14T14:31:15Z</time>
      </trkpt>
      <trkpt lat="49.02463" lon="2.03191">
        <ele>91</ele>
        <time>2022-04-14T14:31:21Z</time>
      </trkpt>
      <trkpt lat="49.02456" lon="2.03194">
        <ele>91</ele>
        <time>2022-04-14T14:31:27Z</time>
      </trkpt>
      <trkpt lat="49.0245" lon="2.03197">
        <ele>90.9</ele>
        <time>2022-04-14T14:31:32Z</time>
      </trkpt>
      <trkpt lat="49.02442" lon="2.03201">
        <ele>90.8</ele>
        <time>2022-04-14T14:31:38Z</time>
      </trkpt>
      <trkpt lat="49.02436" lon="2.03206">
        <ele>90.9</ele>
        <time>2022-04-14T14:31:43Z</time>
      </trkpt>
      <trkpt lat="49.0243" lon="2.0321">
        <ele>91</ele>
        <time>2022-04-14T14:31:48Z</time>
      </trkpt>
      <trkpt lat="49.02424" lon="2.03215">
        <ele>91</ele>
        <time>2022-04-14T14:31:54Z</time>
      </trkpt>
      <trkpt lat="49.02418" lon="2.03221">
        <ele>91</ele>
        <time>2022-04-14T14:32:00Z</time>
      </trkpt>
      <trkpt lat="49.02411" lon="2.03225">
        <ele>91.1</ele>
        <time>2022-04-14T14:32:06Z</time>
      </trkpt>
      <trkpt lat="49.02406" lon="2.03229">
        <ele>91.2</ele>
        <time>2022-04-14T14:32:11Z</time>
      </trkpt>
      <trkpt lat="49.024" lon="2.03235">
        <ele>91.4</ele>
        <time>2022-04-14T14:32:17Z</time>
      </trkpt>
      <trkpt lat="49.02397" lon="2.03241">
        <ele>91.5</ele>
        <time>2022-04-14T14:32:22Z</time>
      </trkpt>
      <trkpt lat="49.02394" lon="2.0325">
        <ele>91.6</ele>
        <time>2022-04-14T14:32:28Z</time>
      </trkpt>
      <trkpt lat="49.02392" lon="2.03262">
        <ele>91.4</ele>
        <time>2022-04-14T14:32:34Z</time>
      </trkpt>
      <trkpt lat="49.02389" lon="2.03274">
        <ele>91.1</ele>
        <time>2022-04-14T14:32:40Z</time>
      </trkpt>
      <trkpt lat="49.02386" lon="2.03284">
        <ele>90.1</ele>
        <time>2022-04-14T14:32:46Z</time>
      </trkpt>
      <trkpt lat="49.02386" lon="2.03291">
        <ele>89.2</ele>
        <time>2022-04-14T14:32:52Z</time>
      </trkpt>
      <trkpt lat="49.02386" lon="2.03293">
        <ele>89</ele>
        <time>2022-04-14T14:32:58Z</time>
      </trkpt>
      <trkpt lat="49.02386" lon="2.03292">
        <ele>89</ele>
        <time>2022-04-14T14:33:04Z</time>
      </trkpt>
      <trkpt lat="49.02386" lon="2.03292">
        <ele>89.1</ele>
        <time>2022-04-14T14:33:09Z</time>
      </trkpt>
      <trkpt lat="49.02386" lon="2.03291">
        <ele>89.1</ele>
        <time>2022-04-14T14:33:15Z</time>
      </trkpt>
      <trkpt lat="49.02386" lon="2.03292">
        <ele>89.1</ele>
        <time>2022-04-14T14:33:21Z</time>
      </trkpt>
      <trkpt lat="49.02385" lon="2.03292">
        <ele>89.1</ele>
        <time>2022-04-14T14:33:27Z</time>
      </trkpt>
      <trkpt lat="49.02385" lon="2.03292">
        <ele>89</ele>
        <time>2022-04-14T14:33:32Z</time>
      </trkpt>
      <trkpt lat="49.02385" lon="2.03293">
        <ele>89</ele>
        <time>2022-04-14T14:33:38Z</time>
      </trkpt>
      <trkpt lat="49.02385" lon="2.03293">
        <ele>89</ele>
        <time>2022-04-14T14:33:44Z</time>
      </trkpt>
      <trkpt lat="49.02385" lon="2.03293">
        <ele>89</ele>
        <time>2022-04-14T14:33:49Z</time>
      </trkpt>
      <trkpt lat="49.02385" lon="2.03293">
        <ele>89</ele>
        <time>2022-04-14T14:33:55Z</time>
      </trkpt>
      <trkpt lat="49.02385" lon="2.03293">
        <ele>89</ele>
        <time>2022-04-14T14:34:00Z</time>
      </trkpt>
      <trkpt lat="49.02385" lon="2.03293">
        <ele>89</ele>
        <time>2022-04-14T14:34:06Z</time>
      </trkpt>
      <trkpt lat="49.02385" lon="2.03293">
        <ele>89</ele>
        <time>2022-04-14T14:34:12Z</time>
      </trkpt>
      <trkpt lat="49.02384" lon="2.03291">
        <ele>89.3</ele>
        <time>2022-04-14T14:34:17Z</time>
      </trkpt>
      <trkpt lat="49.02383" lon="2.03287">
        <ele>89.7</ele>
        <time>2022-04-14T14:34:23Z</time>
      </trkpt>
      <trkpt lat="49.02379" lon="2.03283">
        <ele>90.1</ele>
        <time>2022-04-14T14:34:28Z</time>
      </trkpt>
      <trkpt lat="49.02373" lon="2.0328">
        <ele>90.3</ele>
        <time>2022-04-14T14:34:33Z</time>
      </trkpt>
      <trkpt lat="49.02367" lon="2.03275">
        <ele>90.3</ele>
        <time>2022-04-14T14:34:39Z</time>
      </trkpt>
      <trkpt lat="49.02361" lon="2.0327">
        <ele>90.3</ele>
        <time>2022-04-14T14:34:44Z</time>
      </trkpt>
      <trkpt lat="49.02354" lon="2.03264">
        <ele>90.5</ele>
        <time>2022-04-14T14:34:50Z</time>
      </trkpt>
      <trkpt lat="49.02347" lon="2.03263">
        <ele>90.5</ele>
        <time>2022-04-14T14:34:56Z</time>
      </trkpt>
      <trkpt lat="49.02339" lon="2.03264">
        <ele>90.5</ele>
        <time>2022-04-14T14:35:02Z</time>
      </trkpt>
      <trkpt lat="49.02332" lon="2.03268">
        <ele>90.4</ele>
        <time>2022-04-14T14:35:08Z</time>
      </trkpt>
      <trkpt lat="49.02326" lon="2.03273">
        <ele>90.4</ele>
        <time>2022-04-14T14:35:13Z</time>
      </trkpt>
      <trkpt lat="49.0232" lon="2.03279">
        <ele>90.5</ele>
        <time>2022-04-14T14:35:19Z</time>
      </trkpt>
      <trkpt lat="49.02314" lon="2.03286">
        <ele>90.7</ele>
        <time>2022-04-14T14:35:25Z</time>
      </trkpt>
      <trkpt lat="49.0231" lon="2.03293">
        <ele>90.8</ele>
        <time>2022-04-14T14:35:30Z</time>
      </trkpt>
      <trkpt lat="49.02306" lon="2.03301">
        <ele>91</ele>
        <time>2022-04-14T14:35:36Z</time>
      </trkpt>
      <trkpt lat="49.02305" lon="2.0331">
        <ele>90.8</ele>
        <time>2022-04-14T14:35:41Z</time>
      </trkpt>
      <trkpt lat="49.02302" lon="2.03321">
        <ele>90.4</ele>
        <time>2022-04-14T14:35:46Z</time>
      </trkpt>
      <trkpt lat="49.023" lon="2.03335">
        <ele>90</ele>
        <time>2022-04-14T14:35:52Z</time>
      </trkpt>
      <trkpt lat="49.02299" lon="2.03348">
        <ele>89.5</ele>
        <time>2022-04-14T14:35:58Z</time>
      </trkpt>
      <trkpt lat="49.02296" lon="2.03362">
        <ele>88.9</ele>
        <time>2022-04-14T14:36:04Z</time>
      </trkpt>
      <trkpt lat="49.02293" lon="2.03372">
        <ele>88.2</ele>
        <time>2022-04-14T14:36:09Z</time>
      </trkpt>
      <trkpt lat="49.02288" lon="2.03382">
        <ele>87.7</ele>
        <time>2022-04-14T14:36:15Z</time>
      </trkpt>
      <trkpt lat="49.02282" lon="2.0339">
        <ele>87.6</ele>
        <time>2022-04-14T14:36:21Z</time>
      </trkpt>
      <trkpt lat="49.02276" lon="2.03394">
        <ele>87.7</ele>
        <time>2022-04-14T14:36:26Z</time>
      </trkpt>
      <trkpt lat="49.02269" lon="2.03398">
        <ele>87.4</ele>
        <time>2022-04-14T14:36:32Z</time>
      </trkpt>
      <trkpt lat="49.02263" lon="2.03402">
        <ele>87.3</ele>
        <time>2022-04-14T14:36:37Z</time>
      </trkpt>
      <trkpt lat="49.02256" lon="2.03407">
        <ele>87.2</ele>
        <time>2022-04-14T14:36:43Z</time>
      </trkpt>
      <trkpt lat="49.0225" lon="2.03412">
        <ele>87.2</ele>
        <time>2022-04-14T14:36:48Z</time>
      </trkpt>
      <trkpt lat="49.02243" lon="2.03417">
        <ele>87</ele>
        <time>2022-04-14T14:36:54Z</time>
      </trkpt>
      <trkpt lat="49.02238" lon="2.03421">
        <ele>86.7</ele>
        <time>2022-04-14T14:36:59Z</time>
      </trkpt>
      <trkpt lat="49.02231" lon="2.03427">
        <ele>86.3</ele>
        <time>2022-04-14T14:37:05Z</time>
      </trkpt>
      <trkpt lat="49.02226" lon="2.03432">
        <ele>85.9</ele>
        <time>2022-04-14T14:37:10Z</time>
      </trkpt>
      <trkpt lat="49.02221" lon="2.03439">
        <ele>85.4</ele>
        <time>2022-04-14T14:37:16Z</time>
      </trkpt>
      <trkpt lat="49.02218" lon="2.03448">
        <ele>84.6</ele>
        <time>2022-04-14T14:37:22Z</time>
      </trkpt>
      <trkpt lat="49.02215" lon="2.03458">
        <ele>83.9</ele>
        <time>2022-04-14T14:37:28Z</time>
      </trkpt>
      <trkpt lat="49.02212" lon="2.03469">
        <ele>83.2</ele>
        <time>2022-04-14T14:37:34Z</time>
      </trkpt>
      <trkpt lat="49.02207" lon="2.03485">
        <ele>81.9</ele>
        <time>2022-04-14T14:37:40Z</time>
      </trkpt>
      <trkpt lat="49.02203" lon="2.03496">
        <ele>81.1</ele>
        <time>2022-04-14T14:37:45Z</time>
      </trkpt>
      <trkpt lat="49.02202" lon="2.03505">
        <ele>80.5</ele>
        <time>2022-04-14T14:37:51Z</time>
      </trkpt>
      <trkpt lat="49.02201" lon="2.03513">
        <ele>80.3</ele>
        <time>2022-04-14T14:37:56Z</time>
      </trkpt>
      <trkpt lat="49.02197" lon="2.03522">
        <ele>80.1</ele>
        <time>2022-04-14T14:38:02Z</time>
      </trkpt>
      <trkpt lat="49.02193" lon="2.03527">
        <ele>80.1</ele>
        <time>2022-04-14T14:38:07Z</time>
      </trkpt>
      <trkpt lat="49.02188" lon="2.03528">
        <ele>80.2</ele>
        <time>2022-04-14T14:38:12Z</time>
      </trkpt>
      <trkpt lat="49.0218" lon="2.03525">
        <ele>80.6</ele>
        <time>2022-04-14T14:38:18Z</time>
      </trkpt>
      <trkpt lat="49.02176" lon="2.03518">
        <ele>81</ele>
        <time>2022-04-14T14:38:23Z</time>
      </trkpt>
      <trkpt lat="49.02171" lon="2.03509">
        <ele>81.5</ele>
        <time>2022-04-14T14:38:29Z</time>
      </trkpt>
      <trkpt lat="49.02167" lon="2.03502">
        <ele>81.9</ele>
        <time>2022-04-14T14:38:34Z</time>
      </trkpt>
      <trkpt lat="49.02162" lon="2.03494">
        <ele>82.4</ele>
        <time>2022-04-14T14:38:40Z</time>
      </trkpt>
      <trkpt lat="49.02158" lon="2.03491">
        <ele>82.6</ele>
        <time>2022-04-14T14:38:45Z</time>
      </trkpt>
      <trkpt lat="49.02154" lon="2.03491">
        <ele>82.8</ele>
        <time>2022-04-14T14:38:51Z</time>
      </trkpt>
      <trkpt lat="49.02151" lon="2.0349">
        <ele>82.9</ele>
        <time>2022-04-14T14:38:56Z</time>
      </trkpt>
      <trkpt lat="49.02149" lon="2.03487">
        <ele>83.1</ele>
        <time>2022-04-14T14:39:01Z</time>
      </trkpt>
      <trkpt lat="49.02149" lon="2.03486">
        <ele>83.1</ele>
        <time>2022-04-14T14:39:07Z</time>
      </trkpt>
      <trkpt lat="49.02149" lon="2.03486">
        <ele>83.1</ele>
        <time>2022-04-14T14:39:12Z</time>
      </trkpt>
      <trkpt lat="49.02148" lon="2.03486">
        <ele>83.2</ele>
        <time>2022-04-14T14:39:18Z</time>
      </trkpt>
      <trkpt lat="49.02147" lon="2.03484">
        <ele>83.3</ele>
        <time>2022-04-14T14:39:23Z</time>
      </trkpt>
      <trkpt lat="49.02142" lon="2.03483">
        <ele>83.5</ele>
        <time>2022-04-14T14:39:29Z</time>
      </trkpt>
      <trkpt lat="49.02135" lon="2.03482">
        <ele>83.6</ele>
        <time>2022-04-14T14:39:35Z</time>
      </trkpt>
      <trkpt lat="49.02128" lon="2.03482">
        <ele>83.7</ele>
        <time>2022-04-14T14:39:41Z</time>
      </trkpt>
      <trkpt lat="49.02119" lon="2.03477">
        <ele>83.8</ele>
        <time>2022-04-14T14:39:46Z</time>
      </trkpt>
      <trkpt lat="49.02113" lon="2.03469">
        <ele>84.2</ele>
        <time>2022-04-14T14:39:52Z</time>
      </trkpt>
      <trkpt lat="49.02109" lon="2.0346">
        <ele>84.8</ele>
        <time>2022-04-14T14:39:58Z</time>
      </trkpt>
      <trkpt lat="49.02105" lon="2.03452">
        <ele>85.3</ele>
        <time>2022-04-14T14:40:03Z</time>
      </trkpt>
      <trkpt lat="49.021" lon="2.03443">
        <ele>85.7</ele>
        <time>2022-04-14T14:40:09Z</time>
      </trkpt>
      <trkpt lat="49.02094" lon="2.03435">
        <ele>85.7</ele>
        <time>2022-04-14T14:40:15Z</time>
      </trkpt>
      <trkpt lat="49.02087" lon="2.03433">
        <ele>85.6</ele>
        <time>2022-04-14T14:40:21Z</time>
      </trkpt>
      <trkpt lat="49.02082" lon="2.03435">
        <ele>85.2</ele>
        <time>2022-04-14T14:40:26Z</time>
      </trkpt>
      <trkpt lat="49.02075" lon="2.03438">
        <ele>84.6</ele>
        <time>2022-04-14T14:40:32Z</time>
      </trkpt>
      <trkpt lat="49.02072" lon="2.03435">
        <ele>84.4</ele>
        <time>2022-04-14T14:40:37Z</time>
      </trkpt>
      <trkpt lat="49.02069" lon="2.03422">
        <ele>84.4</ele>
        <time>2022-04-14T14:40:42Z</time>
      </trkpt>
      <trkpt lat="49.02066" lon="2.0341">
        <ele>84.2</ele>
        <time>2022-04-14T14:40:48Z</time>
      </trkpt>
      <trkpt lat="49.02064" lon="2.03402">
        <ele>84.3</ele>
        <time>2022-04-14T14:40:54Z</time>
      </trkpt>
      <trkpt lat="49.02062" lon="2.03393">
        <ele>84.4</ele>
        <time>2022-04-14T14:40:59Z</time>
      </trkpt>
      <trkpt lat="49.02057" lon="2.03382">
        <ele>84.3</ele>
        <time>2022-04-14T14:41:05Z</time>
      </trkpt>
      <trkpt lat="49.02053" lon="2.03372">
        <ele>84.4</ele>
        <time>2022-04-14T14:41:10Z</time>
      </trkpt>
      <trkpt lat="49.02051" lon="2.03362">
        <ele>84.7</ele>
        <time>2022-04-14T14:41:16Z</time>
      </trkpt>
      <trkpt lat="49.0205" lon="2.03351">
        <ele>84.6</ele>
        <time>2022-04-14T14:41:22Z</time>
      </trkpt>
      <trkpt lat="49.02048" lon="2.0334">
        <ele>84.5</ele>
        <time>2022-04-14T14:41:28Z</time>
      </trkpt>
      <trkpt lat="49.02049" lon="2.03325">
        <ele>84.7</ele>
        <time>2022-04-14T14:41:34Z</time>
      </trkpt>
      <trkpt lat="49.02048" lon="2.03311">
        <ele>85</ele>
        <time>2022-04-14T14:41:40Z</time>
      </trkpt>
      <trkpt lat="49.02046" lon="2.03299">
        <ele>85.1</ele>
        <time>2022-04-14T14:41:46Z</time>
      </trkpt>
      <trkpt lat="49.02044" lon="2.0329">
        <ele>85</ele>
        <time>2022-04-14T14:41:51Z</time>
      </trkpt>
      <trkpt lat="49.02043" lon="2.03278">
        <ele>85.1</ele>
        <time>2022-04-14T14:41:57Z</time>
      </trkpt>
      <trkpt lat="49.0204" lon="2.03266">
        <ele>85.1</ele>
        <time>2022-04-14T14:42:03Z</time>
      </trkpt>
      <trkpt lat="49.02032" lon="2.03262">
        <ele>84.8</ele>
        <time>2022-04-14T14:42:09Z</time>
      </trkpt>
      <trkpt lat="49.02024" lon="2.03264">
        <ele>84.3</ele>
        <time>2022-04-14T14:42:15Z</time>
      </trkpt>
      <trkpt lat="49.02018" lon="2.03264">
        <ele>84</ele>
        <time>2022-04-14T14:42:20Z</time>
      </trkpt>
      <trkpt lat="49.02013" lon="2.03267">
        <ele>83.6</ele>
        <time>2022-04-14T14:42:25Z</time>
      </trkpt>
      <trkpt lat="49.02005" lon="2.03269">
        <ele>83.2</ele>
        <time>2022-04-14T14:42:31Z</time>
      </trkpt>
      <trkpt lat="49.01998" lon="2.03271">
        <ele>82.9</ele>
        <time>2022-04-14T14:42:36Z</time>
      </trkpt>
      <trkpt lat="49.0199" lon="2.03276">
        <ele>82.3</ele>
        <time>2022-04-14T14:42:42Z</time>
      </trkpt>
      <trkpt lat="49.01984" lon="2.03278">
        <ele>81.9</ele>
        <time>2022-04-14T14:42:47Z</time>
      </trkpt>
      <trkpt lat="49.01977" lon="2.0328">
        <ele>81.3</ele>
        <time>2022-04-14T14:42:52Z</time>
      </trkpt>
      <trkpt lat="49.01969" lon="2.03286">
        <ele>80.9</ele>
        <time>2022-04-14T14:42:58Z</time>
      </trkpt>
      <trkpt lat="49.01961" lon="2.03289">
        <ele>80.4</ele>
        <time>2022-04-14T14:43:04Z</time>
      </trkpt>
      <trkpt lat="49.01956" lon="2.0329">
        <ele>80.1</ele>
        <time>2022-04-14T14:43:09Z</time>
      </trkpt>
      <trkpt lat="49.0195" lon="2.03293">
        <ele>79.7</ele>
        <time>2022-04-14T14:43:15Z</time>
      </trkpt>
      <trkpt lat="49.01944" lon="2.03295">
        <ele>79.3</ele>
        <time>2022-04-14T14:43:20Z</time>
      </trkpt>
      <trkpt lat="49.01936" lon="2.03299">
        <ele>78.9</ele>
        <time>2022-04-14T14:43:26Z</time>
      </trkpt>
      <trkpt lat="49.01931" lon="2.03304">
        <ele>78.5</ele>
        <time>2022-04-14T14:43:31Z</time>
      </trkpt>
      <trkpt lat="49.01923" lon="2.03305">
        <ele>78.2</ele>
        <time>2022-04-14T14:43:37Z</time>
      </trkpt>
      <trkpt lat="49.01917" lon="2.03309">
        <ele>77.9</ele>
        <time>2022-04-14T14:43:42Z</time>
      </trkpt>
      <trkpt lat="49.0191" lon="2.03315">
        <ele>77.3</ele>
        <time>2022-04-14T14:43:48Z</time>
      </trkpt>
      <trkpt lat="49.01904" lon="2.03318">
        <ele>76.8</ele>
        <time>2022-04-14T14:43:54Z</time>
      </trkpt>
      <trkpt lat="49.01897" lon="2.03321">
        <ele>76.4</ele>
        <time>2022-04-14T14:44:00Z</time>
      </trkpt>
      <trkpt lat="49.0189" lon="2.03323">
        <ele>76</ele>
        <time>2022-04-14T14:44:06Z</time>
      </trkpt>
      <trkpt lat="49.01884" lon="2.0332">
        <ele>75.7</ele>
        <time>2022-04-14T14:44:11Z</time>
      </trkpt>
      <trkpt lat="49.0188" lon="2.03311">
        <ele>75.1</ele>
        <time>2022-04-14T14:44:16Z</time>
      </trkpt>
      <trkpt lat="49.01877" lon="2.03302">
        <ele>74.7</ele>
        <time>2022-04-14T14:44:21Z</time>
      </trkpt>
      <trkpt lat="49.01877" lon="2.03295">
        <ele>74.3</ele>
        <time>2022-04-14T14:44:26Z</time>
      </trkpt>
      <trkpt lat="49.01873" lon="2.03277">
        <ele>73.2</ele>
        <time>2022-04-14T14:44:32Z</time>
      </trkpt>
      <trkpt lat="49.01874" lon="2.03268">
        <ele>73.4</ele>
        <time>2022-04-14T14:44:38Z</time>
      </trkpt>
      <trkpt lat="49.01876" lon="2.03254">
        <ele>73.6</ele>
        <time>2022-04-14T14:44:44Z</time>
      </trkpt>
      <trkpt lat="49.0188" lon="2.03242">
        <ele>74.2</ele>
        <time>2022-04-14T14:44:49Z</time>
      </trkpt>
      <trkpt lat="49.01883" lon="2.03231">
        <ele>74.9</ele>
        <time>2022-04-14T14:44:55Z</time>
      </trkpt>
      <trkpt lat="49.01884" lon="2.0322">
        <ele>75.1</ele>
        <time>2022-04-14T14:45:01Z</time>
      </trkpt>
      <trkpt lat="49.01883" lon="2.0321">
        <ele>75</ele>
        <time>2022-04-14T14:45:06Z</time>
      </trkpt>
      <trkpt lat="49.01881" lon="2.03197">
        <ele>75</ele>
        <time>2022-04-14T14:45:12Z</time>
      </trkpt>
      <trkpt lat="49.01882" lon="2.03181">
        <ele>75.5</ele>
        <time>2022-04-14T14:45:18Z</time>
      </trkpt>
      <trkpt lat="49.01883" lon="2.03168">
        <ele>75.8</ele>
        <time>2022-04-14T14:45:24Z</time>
      </trkpt>
      <trkpt lat="49.01881" lon="2.03157">
        <ele>75.5</ele>
        <time>2022-04-14T14:45:30Z</time>
      </trkpt>
      <trkpt lat="49.01882" lon="2.03146">
        <ele>75.7</ele>
        <time>2022-04-14T14:45:36Z</time>
      </trkpt>
      <trkpt lat="49.01884" lon="2.03132">
        <ele>76.4</ele>
        <time>2022-04-14T14:45:42Z</time>
      </trkpt>
      <trkpt lat="49.01885" lon="2.0312">
        <ele>76.9</ele>
        <time>2022-04-14T14:45:48Z</time>
      </trkpt>
      <trkpt lat="49.01884" lon="2.03107">
        <ele>77.2</ele>
        <time>2022-04-14T14:45:54Z</time>
      </trkpt>
      <trkpt lat="49.01884" lon="2.03097">
        <ele>77.3</ele>
        <time>2022-04-14T14:45:59Z</time>
      </trkpt>
      <trkpt lat="49.01885" lon="2.03088">
        <ele>77.4</ele>
        <time>2022-04-14T14:46:04Z</time>
      </trkpt>
      <trkpt lat="49.01885" lon="2.03077">
        <ele>77.5</ele>
        <time>2022-04-14T14:46:10Z</time>
      </trkpt>
      <trkpt lat="49.01884" lon="2.03068">
        <ele>77.4</ele>
        <time>2022-04-14T14:46:15Z</time>
      </trkpt>
      <trkpt lat="49.01882" lon="2.03058">
        <ele>77.2</ele>
        <time>2022-04-14T14:46:21Z</time>
      </trkpt>
      <trkpt lat="49.01879" lon="2.0305">
        <ele>77.1</ele>
        <time>2022-04-14T14:46:26Z</time>
      </trkpt>
      <trkpt lat="49.01878" lon="2.03035">
        <ele>77.5</ele>
        <time>2022-04-14T14:46:32Z</time>
      </trkpt>
      <trkpt lat="49.01878" lon="2.03018">
        <ele>78.2</ele>
        <time>2022-04-14T14:46:38Z</time>
      </trkpt>
      <trkpt lat="49.01878" lon="2.03009">
        <ele>78.5</ele>
        <time>2022-04-14T14:46:44Z</time>
      </trkpt>
      <trkpt lat="49.01876" lon="2.02997">
        <ele>78.6</ele>
        <time>2022-04-14T14:46:49Z</time>
      </trkpt>
      <trkpt lat="49.01874" lon="2.02988">
        <ele>78.4</ele>
        <time>2022-04-14T14:46:54Z</time>
      </trkpt>
      <trkpt lat="49.01872" lon="2.02977">
        <ele>78.4</ele>
        <time>2022-04-14T14:47:00Z</time>
      </trkpt>
      <trkpt lat="49.01871" lon="2.02967">
        <ele>78.6</ele>
        <time>2022-04-14T14:47:06Z</time>
      </trkpt>
      <trkpt lat="49.01867" lon="2.0296">
        <ele>78.7</ele>
        <time>2022-04-14T14:47:11Z</time>
      </trkpt>
      <trkpt lat="49.01861" lon="2.02956">
        <ele>78.6</ele>
        <time>2022-04-14T14:47:17Z</time>
      </trkpt>
      <trkpt lat="49.01854" lon="2.02956">
        <ele>79.1</ele>
        <time>2022-04-14T14:47:22Z</time>
      </trkpt>
      <trkpt lat="49.0185" lon="2.02959">
        <ele>79.3</ele>
        <time>2022-04-14T14:47:27Z</time>
      </trkpt>
      <trkpt lat="49.01843" lon="2.02965">
        <ele>79.6</ele>
        <time>2022-04-14T14:47:33Z</time>
      </trkpt>
      <trkpt lat="49.01836" lon="2.02968">
        <ele>79.9</ele>
        <time>2022-04-14T14:47:38Z</time>
      </trkpt>
      <trkpt lat="49.01828" lon="2.02971">
        <ele>80.2</ele>
        <time>2022-04-14T14:47:44Z</time>
      </trkpt>
      <trkpt lat="49.01822" lon="2.02971">
        <ele>80.5</ele>
        <time>2022-04-14T14:47:49Z</time>
      </trkpt>
      <trkpt lat="49.01813" lon="2.02966">
        <ele>80.9</ele>
        <time>2022-04-14T14:47:55Z</time>
      </trkpt>
      <trkpt lat="49.01806" lon="2.02965">
        <ele>81.3</ele>
        <time>2022-04-14T14:48:01Z</time>
      </trkpt>
      <trkpt lat="49.01799" lon="2.02969">
        <ele>81.6</ele>
        <time>2022-04-14T14:48:06Z</time>
      </trkpt>
      <trkpt lat="49.01791" lon="2.02969">
        <ele>82.2</ele>
        <time>2022-04-14T14:48:12Z</time>
      </trkpt>
      <trkpt lat="49.01783" lon="2.02967">
        <ele>82.8</ele>
        <time>2022-04-14T14:48:18Z</time>
      </trkpt>
      <trkpt lat="49.01777" lon="2.02967">
        <ele>83.2</ele>
        <time>2022-04-14T14:48:23Z</time>
      </trkpt>
      <trkpt lat="49.0177" lon="2.02966">
        <ele>83.2</ele>
        <time>2022-04-14T14:48:29Z</time>
      </trkpt>
      <trkpt lat="49.01765" lon="2.02968">
        <ele>83.2</ele>
        <time>2022-04-14T14:48:34Z</time>
      </trkpt>
      <trkpt lat="49.01761" lon="2.0297">
        <ele>83.1</ele>
        <time>2022-04-14T14:48:40Z</time>
      </trkpt>
      <trkpt lat="49.01758" lon="2.02967">
        <ele>83.2</ele>
        <time>2022-04-14T14:48:46Z</time>
      </trkpt>
      <trkpt lat="49.01756" lon="2.02954">
        <ele>83.7</ele>
        <time>2022-04-14T14:48:52Z</time>
      </trkpt>
      <trkpt lat="49.01756" lon="2.02941">
        <ele>84.1</ele>
        <time>2022-04-14T14:48:58Z</time>
      </trkpt>
      <trkpt lat="49.01755" lon="2.02931">
        <ele>84.5</ele>
        <time>2022-04-14T14:49:03Z</time>
      </trkpt>
      <trkpt lat="49.01753" lon="2.02918">
        <ele>85</ele>
        <time>2022-04-14T14:49:09Z</time>
      </trkpt>
      <trkpt lat="49.01753" lon="2.02911">
        <ele>85</ele>
        <time>2022-04-14T14:49:14Z</time>
      </trkpt>
      <trkpt lat="49.01755" lon="2.02901">
        <ele>85.1</ele>
        <time>2022-04-14T14:49:19Z</time>
      </trkpt>
      <trkpt lat="49.01756" lon="2.02889">
        <ele>85.2</ele>
        <time>2022-04-14T14:49:25Z</time>
      </trkpt>
      <trkpt lat="49.01755" lon="2.02879">
        <ele>85.5</ele>
        <time>2022-04-14T14:49:30Z</time>
      </trkpt>
      <trkpt lat="49.01752" lon="2.02863">
        <ele>85.9</ele>
        <time>2022-04-14T14:49:35Z</time>
      </trkpt>
      <trkpt lat="49.01751" lon="2.02855">
        <ele>86.2</ele>
        <time>2022-04-14T14:49:40Z</time>
      </trkpt>
      <trkpt lat="49.0175" lon="2.02843">
        <ele>86.6</ele>
        <time>2022-04-14T14:49:46Z</time>
      </trkpt>
      <trkpt lat="49.01751" lon="2.02828">
        <ele>87</ele>
        <time>2022-04-14T14:49:52Z</time>
      </trkpt>
      <trkpt lat="49.0175" lon="2.02818">
        <ele>87</ele>
        <time>2022-04-14T14:49:57Z</time>
      </trkpt>
      <trkpt lat="49.01749" lon="2.02807">
        <ele>87</ele>
        <time>2022-04-14T14:50:03Z</time>
      </trkpt>
      <trkpt lat="49.0175" lon="2.028">
        <ele>87.2</ele>
        <time>2022-04-14T14:50:08Z</time>
      </trkpt>
      <trkpt lat="49.01749" lon="2.02789">
        <ele>87.5</ele>
        <time>2022-04-14T14:50:14Z</time>
      </trkpt>
      <trkpt lat="49.01749" lon="2.02777">
        <ele>88</ele>
        <time>2022-04-14T14:50:20Z</time>
      </trkpt>
      <trkpt lat="49.01749" lon="2.02766">
        <ele>88.4</ele>
        <time>2022-04-14T14:50:26Z</time>
      </trkpt>
      <trkpt lat="49.01748" lon="2.02754">
        <ele>88.8</ele>
        <time>2022-04-14T14:50:32Z</time>
      </trkpt>
      <trkpt lat="49.01748" lon="2.02743">
        <ele>88.9</ele>
        <time>2022-04-14T14:50:38Z</time>
      </trkpt>
      <trkpt lat="49.01744" lon="2.02725">
        <ele>88.8</ele>
        <time>2022-04-14T14:50:44Z</time>
      </trkpt>
      <trkpt lat="49.01744" lon="2.02715">
        <ele>89</ele>
        <time>2022-04-14T14:50:49Z</time>
      </trkpt>
      <trkpt lat="49.01743" lon="2.02698">
        <ele>89.6</ele>
        <time>2022-04-14T14:50:55Z</time>
      </trkpt>
      <trkpt lat="49.01742" lon="2.02687">
        <ele>90</ele>
        <time>2022-04-14T14:51:01Z</time>
      </trkpt>
      <trkpt lat="49.01743" lon="2.02676">
        <ele>90.4</ele>
        <time>2022-04-14T14:51:06Z</time>
      </trkpt>
      <trkpt lat="49.01742" lon="2.02665">
        <ele>90.7</ele>
        <time>2022-04-14T14:51:11Z</time>
      </trkpt>
      <trkpt lat="49.01743" lon="2.02654">
        <ele>90.8</ele>
        <time>2022-04-14T14:51:17Z</time>
      </trkpt>
      <trkpt lat="49.01743" lon="2.02644">
        <ele>90.8</ele>
        <time>2022-04-14T14:51:23Z</time>
      </trkpt>
      <trkpt lat="49.01743" lon="2.02634">
        <ele>90.8</ele>
        <time>2022-04-14T14:51:29Z</time>
      </trkpt>
      <trkpt lat="49.01743" lon="2.02623">
        <ele>90.9</ele>
        <time>2022-04-14T14:51:35Z</time>
      </trkpt>
      <trkpt lat="49.01743" lon="2.02612">
        <ele>91</ele>
        <time>2022-04-14T14:51:41Z</time>
      </trkpt>
      <trkpt lat="49.01744" lon="2.02599">
        <ele>91.3</ele>
        <time>2022-04-14T14:51:47Z</time>
      </trkpt>
      <trkpt lat="49.01745" lon="2.02587">
        <ele>91.7</ele>
        <time>2022-04-14T14:51:52Z</time>
      </trkpt>
      <trkpt lat="49.01744" lon="2.02578">
        <ele>91.8</ele>
        <time>2022-04-14T14:51:58Z</time>
      </trkpt>
      <trkpt lat="49.01745" lon="2.02568">
        <ele>91.8</ele>
        <time>2022-04-14T14:52:03Z</time>
      </trkpt>
      <trkpt lat="49.01746" lon="2.02557">
        <ele>91.9</ele>
        <time>2022-04-14T14:52:09Z</time>
      </trkpt>
      <trkpt lat="49.01746" lon="2.02543">
        <ele>91.9</ele>
        <time>2022-04-14T14:52:15Z</time>
      </trkpt>
      <trkpt lat="49.01745" lon="2.02529">
        <ele>91.8</ele>
        <time>2022-04-14T14:52:20Z</time>
      </trkpt>
      <trkpt lat="49.01744" lon="2.0252">
        <ele>92</ele>
        <time>2022-04-14T14:52:26Z</time>
      </trkpt>
      <trkpt lat="49.01743" lon="2.02514">
        <ele>92.1</ele>
        <time>2022-04-14T14:52:32Z</time>
      </trkpt>
      <trkpt lat="49.01744" lon="2.02512">
        <ele>92.2</ele>
        <time>2022-04-14T14:52:37Z</time>
      </trkpt>
      <trkpt lat="49.01744" lon="2.0251">
        <ele>92.3</ele>
        <time>2022-04-14T14:52:43Z</time>
      </trkpt>
      <trkpt lat="49.01744" lon="2.02499">
        <ele>92.6</ele>
        <time>2022-04-14T14:52:48Z</time>
      </trkpt>
      <trkpt lat="49.01744" lon="2.02487">
        <ele>92.3</ele>
        <time>2022-04-14T14:52:54Z</time>
      </trkpt>
      <trkpt lat="49.01743" lon="2.02474">
        <ele>92</ele>
        <time>2022-04-14T14:52:59Z</time>
      </trkpt>
      <trkpt lat="49.01743" lon="2.02466">
        <ele>92</ele>
        <time>2022-04-14T14:53:04Z</time>
      </trkpt>
      <trkpt lat="49.01737" lon="2.02461">
        <ele>92</ele>
        <time>2022-04-14T14:53:10Z</time>
      </trkpt>
      <trkpt lat="49.0173" lon="2.02454">
        <ele>92</ele>
        <time>2022-04-14T14:53:16Z</time>
      </trkpt>
      <trkpt lat="49.01725" lon="2.02448">
        <ele>92</ele>
        <time>2022-04-14T14:53:21Z</time>
      </trkpt>
      <trkpt lat="49.01721" lon="2.02438">
        <ele>91.6</ele>
        <time>2022-04-14T14:53:26Z</time>
      </trkpt>
      <trkpt lat="49.01718" lon="2.02435">
        <ele>91.1</ele>
        <time>2022-04-14T14:53:32Z</time>
      </trkpt>
      <trkpt lat="49.01716" lon="2.02435">
        <ele>90.8</ele>
        <time>2022-04-14T14:53:38Z</time>
      </trkpt>
      <trkpt lat="49.01713" lon="2.02432">
        <ele>90.3</ele>
        <time>2022-04-14T14:53:43Z</time>
      </trkpt>
      <trkpt lat="49.01707" lon="2.02433">
        <ele>89.6</ele>
        <time>2022-04-14T14:53:49Z</time>
      </trkpt>
      <trkpt lat="49.01699" lon="2.02426">
        <ele>88.5</ele>
        <time>2022-04-14T14:53:55Z</time>
      </trkpt>
      <trkpt lat="49.01694" lon="2.02421">
        <ele>87.9</ele>
        <time>2022-04-14T14:54:01Z</time>
      </trkpt>
      <trkpt lat="49.01691" lon="2.02421">
        <ele>87.5</ele>
        <time>2022-04-14T14:54:06Z</time>
      </trkpt>
      <trkpt lat="49.01685" lon="2.02418">
        <ele>86.7</ele>
        <time>2022-04-14T14:54:11Z</time>
      </trkpt>
      <trkpt lat="49.01679" lon="2.02412">
        <ele>85.5</ele>
        <time>2022-04-14T14:54:17Z</time>
      </trkpt>
      <trkpt lat="49.01673" lon="2.02407">
        <ele>84.4</ele>
        <time>2022-04-14T14:54:22Z</time>
      </trkpt>
      <trkpt lat="49.01666" lon="2.02403">
        <ele>83.4</ele>
        <time>2022-04-14T14:54:28Z</time>
      </trkpt>
      <trkpt lat="49.01659" lon="2.02402">
        <ele>82.9</ele>
        <time>2022-04-14T14:54:33Z</time>
      </trkpt>
      <trkpt lat="49.01652" lon="2.02405">
        <ele>82.5</ele>
        <time>2022-04-14T14:54:39Z</time>
      </trkpt>
      <trkpt lat="49.01647" lon="2.02412">
        <ele>82.4</ele>
        <time>2022-04-14T14:54:44Z</time>
      </trkpt>
      <trkpt lat="49.01642" lon="2.02418">
        <ele>82.2</ele>
        <time>2022-04-14T14:54:49Z</time>
      </trkpt>
      <trkpt lat="49.01636" lon="2.02423">
        <ele>82</ele>
        <time>2022-04-14T14:54:54Z</time>
      </trkpt>
      <trkpt lat="49.01631" lon="2.02429">
        <ele>81.9</ele>
        <time>2022-04-14T14:54:59Z</time>
      </trkpt>
      <trkpt lat="49.01625" lon="2.02436">
        <ele>81.7</ele>
        <time>2022-04-14T14:55:05Z</time>
      </trkpt>
      <trkpt lat="49.0162" lon="2.02443">
        <ele>81.4</ele>
        <time>2022-04-14T14:55:10Z</time>
      </trkpt>
      <trkpt lat="49.01614" lon="2.02449">
        <ele>81.1</ele>
        <time>2022-04-14T14:55:15Z</time>
      </trkpt>
      <trkpt lat="49.01608" lon="2.02456">
        <ele>81.1</ele>
        <time>2022-04-14T14:55:21Z</time>
      </trkpt>
      <trkpt lat="49.01602" lon="2.02463">
        <ele>81.1</ele>
        <time>2022-04-14T14:55:27Z</time>
      </trkpt>
      <trkpt lat="49.01594" lon="2.02471">
        <ele>81</ele>
        <time>2022-04-14T14:55:33Z</time>
      </trkpt>
      <trkpt lat="49.01587" lon="2.02483">
        <ele>81</ele>
        <time>2022-04-14T14:55:39Z</time>
      </trkpt>
      <trkpt lat="49.0158" lon="2.02491">
        <ele>81</ele>
        <time>2022-04-14T14:55:45Z</time>
      </trkpt>
      <trkpt lat="49.01572" lon="2.02497">
        <ele>81</ele>
        <time>2022-04-14T14:55:51Z</time>
      </trkpt>
      <trkpt lat="49.01566" lon="2.02502">
        <ele>81</ele>
        <time>2022-04-14T14:55:56Z</time>
      </trkpt>
      <trkpt lat="49.01561" lon="2.02508">
        <ele>80.9</ele>
        <time>2022-04-14T14:56:01Z</time>
      </trkpt>
      <trkpt lat="49.01554" lon="2.02517">
        <ele>81</ele>
        <time>2022-04-14T14:56:07Z</time>
      </trkpt>
      <trkpt lat="49.01548" lon="2.02525">
        <ele>81</ele>
        <time>2022-04-14T14:56:13Z</time>
      </trkpt>
      <trkpt lat="49.01543" lon="2.02531">
        <ele>81</ele>
        <time>2022-04-14T14:56:18Z</time>
      </trkpt>
      <trkpt lat="49.01538" lon="2.02536">
        <ele>81.1</ele>
        <time>2022-04-14T14:56:23Z</time>
      </trkpt>
      <trkpt lat="49.01532" lon="2.02542">
        <ele>81.4</ele>
        <time>2022-04-14T14:56:28Z</time>
      </trkpt>
      <trkpt lat="49.01526" lon="2.02548">
        <ele>81.8</ele>
        <time>2022-04-14T14:56:33Z</time>
      </trkpt>
      <trkpt lat="49.01521" lon="2.02556">
        <ele>82.2</ele>
        <time>2022-04-14T14:56:39Z</time>
      </trkpt>
      <trkpt lat="49.01516" lon="2.02561">
        <ele>82.4</ele>
        <time>2022-04-14T14:56:44Z</time>
      </trkpt>
      <trkpt lat="49.01506" lon="2.02567">
        <ele>83</ele>
        <time>2022-04-14T14:56:50Z</time>
      </trkpt>
      <trkpt lat="49.01499" lon="2.02574">
        <ele>83.7</ele>
        <time>2022-04-14T14:56:55Z</time>
      </trkpt>
      <trkpt lat="49.01497" lon="2.02586">
        <ele>84.1</ele>
        <time>2022-04-14T14:57:01Z</time>
      </trkpt>
      <trkpt lat="49.01492" lon="2.02591">
        <ele>84.3</ele>
        <time>2022-04-14T14:57:06Z</time>
      </trkpt>
      <trkpt lat="49.01483" lon="2.02597">
        <ele>84.6</ele>
        <time>2022-04-14T14:57:12Z</time>
      </trkpt>
      <trkpt lat="49.01478" lon="2.02602">
        <ele>84.8</ele>
        <time>2022-04-14T14:57:17Z</time>
      </trkpt>
      <trkpt lat="49.01472" lon="2.02608">
        <ele>85</ele>
        <time>2022-04-14T14:57:23Z</time>
      </trkpt>
      <trkpt lat="49.01466" lon="2.02616">
        <ele>85.8</ele>
        <time>2022-04-14T14:57:29Z</time>
      </trkpt>
      <trkpt lat="49.01462" lon="2.02623">
        <ele>86.2</ele>
        <time>2022-04-14T14:57:34Z</time>
      </trkpt>
      <trkpt lat="49.01458" lon="2.0263">
        <ele>86.5</ele>
        <time>2022-04-14T14:57:39Z</time>
      </trkpt>
      <trkpt lat="49.01451" lon="2.02636">
        <ele>86.8</ele>
        <time>2022-04-14T14:57:45Z</time>
      </trkpt>
      <trkpt lat="49.01445" lon="2.02643">
        <ele>87.1</ele>
        <time>2022-04-14T14:57:50Z</time>
      </trkpt>
      <trkpt lat="49.0144" lon="2.0265">
        <ele>87.8</ele>
        <time>2022-04-14T14:57:55Z</time>
      </trkpt>
      <trkpt lat="49.01433" lon="2.02658">
        <ele>88.5</ele>
        <time>2022-04-14T14:58:01Z</time>
      </trkpt>
      <trkpt lat="49.01429" lon="2.02664">
        <ele>88.6</ele>
        <time>2022-04-14T14:58:06Z</time>
      </trkpt>
      <trkpt lat="49.01424" lon="2.02671">
        <ele>88.7</ele>
        <time>2022-04-14T14:58:11Z</time>
      </trkpt>
      <trkpt lat="49.01416" lon="2.02676">
        <ele>89</ele>
        <time>2022-04-14T14:58:16Z</time>
      </trkpt>
      <trkpt lat="49.0141" lon="2.02685">
        <ele>89.3</ele>
        <time>2022-04-14T14:58:22Z</time>
      </trkpt>
      <trkpt lat="49.01404" lon="2.02692">
        <ele>89.5</ele>
        <time>2022-04-14T14:58:27Z</time>
      </trkpt>
      <trkpt lat="49.01398" lon="2.02698">
        <ele>89.7</ele>
        <time>2022-04-14T14:58:33Z</time>
      </trkpt>
      <trkpt lat="49.01391" lon="2.02705">
        <ele>89.9</ele>
        <time>2022-04-14T14:58:39Z</time>
      </trkpt>
      <trkpt lat="49.01388" lon="2.02712">
        <ele>90.1</ele>
        <time>2022-04-14T14:58:44Z</time>
      </trkpt>
      <trkpt lat="49.01385" lon="2.02719">
        <ele>90.2</ele>
        <time>2022-04-14T14:58:49Z</time>
      </trkpt>
      <trkpt lat="49.01377" lon="2.02728">
        <ele>90.3</ele>
        <time>2022-04-14T14:58:55Z</time>
      </trkpt>
      <trkpt lat="49.01368" lon="2.02733">
        <ele>90.4</ele>
        <time>2022-04-14T14:59:01Z</time>
      </trkpt>
      <trkpt lat="49.01362" lon="2.02739">
        <ele>90.4</ele>
        <time>2022-04-14T14:59:07Z</time>
      </trkpt>
      <trkpt lat="49.01357" lon="2.02743">
        <ele>90.4</ele>
        <time>2022-04-14T14:59:13Z</time>
      </trkpt>
      <trkpt lat="49.01354" lon="2.0274">
        <ele>90.6</ele>
        <time>2022-04-14T14:59:18Z</time>
      </trkpt>
      <trkpt lat="49.01347" lon="2.02737">
        <ele>91</ele>
        <time>2022-04-14T14:59:24Z</time>
      </trkpt>
      <trkpt lat="49.01341" lon="2.02731">
        <ele>91.4</ele>
        <time>2022-04-14T14:59:30Z</time>
      </trkpt>
      <trkpt lat="49.01336" lon="2.02722">
        <ele>91.9</ele>
        <time>2022-04-14T14:59:36Z</time>
      </trkpt>
      <trkpt lat="49.01332" lon="2.02715">
        <ele>92</ele>
        <time>2022-04-14T14:59:41Z</time>
      </trkpt>
      <trkpt lat="49.01329" lon="2.02707">
        <ele>92.2</ele>
        <time>2022-04-14T14:59:46Z</time>
      </trkpt>
      <trkpt lat="49.01323" lon="2.02698">
        <ele>92.4</ele>
        <time>2022-04-14T14:59:52Z</time>
      </trkpt>
      <trkpt lat="49.01319" lon="2.0269">
        <ele>92.6</ele>
        <time>2022-04-14T14:59:57Z</time>
      </trkpt>
      <trkpt lat="49.01317" lon="2.02682">
        <ele>92.8</ele>
        <time>2022-04-14T15:00:03Z</time>
      </trkpt>
      <trkpt lat="49.01314" lon="2.02679">
        <ele>92.9</ele>
        <time>2022-04-14T15:00:08Z</time>
      </trkpt>
      <trkpt lat="49.01306" lon="2.02669">
        <ele>93</ele>
        <time>2022-04-14T15:00:14Z</time>
      </trkpt>
      <trkpt lat="49.01298" lon="2.02657">
        <ele>93.5</ele>
        <time>2022-04-14T15:00:20Z</time>
      </trkpt>
      <trkpt lat="49.01292" lon="2.0265">
        <ele>93.8</ele>
        <time>2022-04-14T15:00:25Z</time>
      </trkpt>
      <trkpt lat="49.01289" lon="2.02644">
        <ele>93.9</ele>
        <time>2022-04-14T15:00:31Z</time>
      </trkpt>
      <trkpt lat="49.01289" lon="2.02635">
        <ele>94</ele>
        <time>2022-04-14T15:00:36Z</time>
      </trkpt>
      <trkpt lat="49.01294" lon="2.02625">
        <ele>94</ele>
        <time>2022-04-14T15:00:42Z</time>
      </trkpt>
      <trkpt lat="49.01299" lon="2.02618">
        <ele>94</ele>
        <time>2022-04-14T15:00:47Z</time>
      </trkpt>
      <trkpt lat="49.01305" lon="2.02609">
        <ele>94</ele>
        <time>2022-04-14T15:00:53Z</time>
      </trkpt>
      <trkpt lat="49.0131" lon="2.02603">
        <ele>93.8</ele>
        <time>2022-04-14T15:00:58Z</time>
      </trkpt>
      <trkpt lat="49.01314" lon="2.02595">
        <ele>93.7</ele>
        <time>2022-04-14T15:01:03Z</time>
      </trkpt>
      <trkpt lat="49.01317" lon="2.02587">
        <ele>93.6</ele>
        <time>2022-04-14T15:01:08Z</time>
      </trkpt>
      <trkpt lat="49.0132" lon="2.02575">
        <ele>93.5</ele>
        <time>2022-04-14T15:01:14Z</time>
      </trkpt>
      <trkpt lat="49.0132" lon="2.02562">
        <ele>93.5</ele>
        <time>2022-04-14T15:01:20Z</time>
      </trkpt>
      <trkpt lat="49.01316" lon="2.02551">
        <ele>93.7</ele>
        <time>2022-04-14T15:01:26Z</time>
      </trkpt>
      <trkpt lat="49.01313" lon="2.02542">
        <ele>93.9</ele>
        <time>2022-04-14T15:01:31Z</time>
      </trkpt>
      <trkpt lat="49.01309" lon="2.02535">
        <ele>94</ele>
        <time>2022-04-14T15:01:37Z</time>
      </trkpt>
      <trkpt lat="49.01305" lon="2.02525">
        <ele>94.1</ele>
        <time>2022-04-14T15:01:42Z</time>
      </trkpt>
      <trkpt lat="49.01301" lon="2.02517">
        <ele>94.5</ele>
        <time>2022-04-14T15:01:48Z</time>
      </trkpt>
      <trkpt lat="49.01297" lon="2.02509">
        <ele>94.8</ele>
        <time>2022-04-14T15:01:53Z</time>
      </trkpt>
      <trkpt lat="49.01292" lon="2.025">
        <ele>95</ele>
        <time>2022-04-14T15:01:59Z</time>
      </trkpt>
      <trkpt lat="49.01289" lon="2.02491">
        <ele>95</ele>
        <time>2022-04-14T15:02:05Z</time>
      </trkpt>
      <trkpt lat="49.01286" lon="2.02482">
        <ele>95</ele>
        <time>2022-04-14T15:02:10Z</time>
      </trkpt>
      <trkpt lat="49.01289" lon="2.02473">
        <ele>95</ele>
        <time>2022-04-14T15:02:16Z</time>
      </trkpt>
      <trkpt lat="49.01296" lon="2.02468">
        <ele>95.1</ele>
        <time>2022-04-14T15:02:21Z</time>
      </trkpt>
      <trkpt lat="49.01303" lon="2.02466">
        <ele>95</ele>
        <time>2022-04-14T15:02:26Z</time>
      </trkpt>
      <trkpt lat="49.01309" lon="2.02458">
        <ele>94.7</ele>
        <time>2022-04-14T15:02:32Z</time>
      </trkpt>
      <trkpt lat="49.01315" lon="2.02449">
        <ele>94.3</ele>
        <time>2022-04-14T15:02:38Z</time>
      </trkpt>
      <trkpt lat="49.01315" lon="2.0244">
        <ele>94.2</ele>
        <time>2022-04-14T15:02:43Z</time>
      </trkpt>
      <trkpt lat="49.0131" lon="2.0243">
        <ele>94.3</ele>
        <time>2022-04-14T15:02:48Z</time>
      </trkpt>
      <trkpt lat="49.01304" lon="2.02422">
        <ele>94.3</ele>
        <time>2022-04-14T15:02:54Z</time>
      </trkpt>
      <trkpt lat="49.01298" lon="2.02413">
        <ele>94.6</ele>
        <time>2022-04-14T15:03:00Z</time>
      </trkpt>
      <trkpt lat="49.01295" lon="2.02406">
        <ele>94.8</ele>
        <time>2022-04-14T15:03:05Z</time>
      </trkpt>
      <trkpt lat="49.01292" lon="2.02398">
        <ele>95</ele>
        <time>2022-04-14T15:03:11Z</time>
      </trkpt>
      <trkpt lat="49.01288" lon="2.02388">
        <ele>95.3</ele>
        <time>2022-04-14T15:03:17Z</time>
      </trkpt>
      <trkpt lat="49.01285" lon="2.0238">
        <ele>95.6</ele>
        <time>2022-04-14T15:03:22Z</time>
      </trkpt>
      <trkpt lat="49.0128" lon="2.0237">
        <ele>95.9</ele>
        <time>2022-04-14T15:03:28Z</time>
      </trkpt>
      <trkpt lat="49.01276" lon="2.02361">
        <ele>96.1</ele>
        <time>2022-04-14T15:03:33Z</time>
      </trkpt>
      <trkpt lat="49.01271" lon="2.0235">
        <ele>96.4</ele>
        <time>2022-04-14T15:03:39Z</time>
      </trkpt>
      <trkpt lat="49.01267" lon="2.02341">
        <ele>96.5</ele>
        <time>2022-04-14T15:03:44Z</time>
      </trkpt>
      <trkpt lat="49.01262" lon="2.0233">
        <ele>96.6</ele>
        <time>2022-04-14T15:03:50Z</time>
      </trkpt>
      <trkpt lat="49.01258" lon="2.0232">
        <ele>96.7</ele>
        <time>2022-04-14T15:03:56Z</time>
      </trkpt>
      <trkpt lat="49.01254" lon="2.0231">
        <ele>96.9</ele>
        <time>2022-04-14T15:04:01Z</time>
      </trkpt>
      <trkpt lat="49.0125" lon="2.02301">
        <ele>97</ele>
        <time>2022-04-14T15:04:07Z</time>
      </trkpt>
      <trkpt lat="49.01248" lon="2.02292">
        <ele>97.1</ele>
        <time>2022-04-14T15:04:12Z</time>
      </trkpt>
      <trkpt lat="49.01245" lon="2.02281">
        <ele>97.2</ele>
        <time>2022-04-14T15:04:17Z</time>
      </trkpt>
      <trkpt lat="49.01242" lon="2.02267">
        <ele>97.3</ele>
        <time>2022-04-14T15:04:23Z</time>
      </trkpt>
      <trkpt lat="49.01241" lon="2.02253">
        <ele>97.3</ele>
        <time>2022-04-14T15:04:29Z</time>
      </trkpt>
      <trkpt lat="49.01239" lon="2.0224">
        <ele>97.2</ele>
        <time>2022-04-14T15:04:34Z</time>
      </trkpt>
      <trkpt lat="49.01236" lon="2.0223">
        <ele>97.1</ele>
        <time>2022-04-14T15:04:40Z</time>
      </trkpt>
      <trkpt lat="49.01233" lon="2.02221">
        <ele>97.2</ele>
        <time>2022-04-14T15:04:45Z</time>
      </trkpt>
      <trkpt lat="49.01231" lon="2.02212">
        <ele>97.4</ele>
        <time>2022-04-14T15:04:50Z</time>
      </trkpt>
      <trkpt lat="49.01226" lon="2.02201">
        <ele>97.7</ele>
        <time>2022-04-14T15:04:56Z</time>
      </trkpt>
      <trkpt lat="49.01221" lon="2.02192">
        <ele>97.9</ele>
        <time>2022-04-14T15:05:02Z</time>
      </trkpt>
      <trkpt lat="49.01218" lon="2.02182">
        <ele>97.6</ele>
        <time>2022-04-14T15:05:08Z</time>
      </trkpt>
      <trkpt lat="49.01216" lon="2.02167">
        <ele>97.2</ele>
        <time>2022-04-14T15:05:14Z</time>
      </trkpt>
      <trkpt lat="49.01214" lon="2.02157">
        <ele>97.3</ele>
        <time>2022-04-14T15:05:19Z</time>
      </trkpt>
      <trkpt lat="49.01209" lon="2.02147">
        <ele>97.5</ele>
        <time>2022-04-14T15:05:25Z</time>
      </trkpt>
      <trkpt lat="49.01205" lon="2.02141">
        <ele>97.6</ele>
        <time>2022-04-14T15:05:30Z</time>
      </trkpt>
      <trkpt lat="49.01201" lon="2.02129">
        <ele>97.8</ele>
        <time>2022-04-14T15:05:36Z</time>
      </trkpt>
      <trkpt lat="49.01197" lon="2.02117">
        <ele>97.9</ele>
        <time>2022-04-14T15:05:42Z</time>
      </trkpt>
      <trkpt lat="49.01194" lon="2.02107">
        <ele>98</ele>
        <time>2022-04-14T15:05:47Z</time>
      </trkpt>
      <trkpt lat="49.01192" lon="2.02098">
        <ele>98.1</ele>
        <time>2022-04-14T15:05:53Z</time>
      </trkpt>
      <trkpt lat="49.01189" lon="2.0209">
        <ele>98.2</ele>
        <time>2022-04-14T15:05:58Z</time>
      </trkpt>
      <trkpt lat="49.01185" lon="2.02078">
        <ele>98.4</ele>
        <time>2022-04-14T15:06:04Z</time>
      </trkpt>
      <trkpt lat="49.01181" lon="2.02068">
        <ele>98.5</ele>
        <time>2022-04-14T15:06:09Z</time>
      </trkpt>
      <trkpt lat="49.01179" lon="2.02059">
        <ele>98.6</ele>
        <time>2022-04-14T15:06:14Z</time>
      </trkpt>
      <trkpt lat="49.01175" lon="2.02049">
        <ele>98.9</ele>
        <time>2022-04-14T15:06:20Z</time>
      </trkpt>
      <trkpt lat="49.01172" lon="2.02038">
        <ele>99.4</ele>
        <time>2022-04-14T15:06:26Z</time>
      </trkpt>
      <trkpt lat="49.01167" lon="2.02025">
        <ele>100</ele>
        <time>2022-04-14T15:06:32Z</time>
      </trkpt>
      <trkpt lat="49.01164" lon="2.02016">
        <ele>100</ele>
        <time>2022-04-14T15:06:37Z</time>
      </trkpt>
      <trkpt lat="49.0116" lon="2.02007">
        <ele>100.2</ele>
        <time>2022-04-14T15:06:42Z</time>
      </trkpt>
      <trkpt lat="49.01157" lon="2.01998">
        <ele>100.4</ele>
        <time>2022-04-14T15:06:47Z</time>
      </trkpt>
      <trkpt lat="49.01153" lon="2.01988">
        <ele>100.9</ele>
        <time>2022-04-14T15:06:52Z</time>
      </trkpt>
      <trkpt lat="49.01147" lon="2.01981">
        <ele>101.4</ele>
        <time>2022-04-14T15:06:58Z</time>
      </trkpt>
      <trkpt lat="49.0114" lon="2.01985">
        <ele>101.5</ele>
        <time>2022-04-14T15:07:03Z</time>
      </trkpt>
      <trkpt lat="49.01131" lon="2.0199">
        <ele>101.5</ele>
        <time>2022-04-14T15:07:09Z</time>
      </trkpt>
      <trkpt lat="49.01124" lon="2.01992">
        <ele>101.7</ele>
        <time>2022-04-14T15:07:15Z</time>
      </trkpt>
      <trkpt lat="49.01119" lon="2.01989">
        <ele>101.8</ele>
        <time>2022-04-14T15:07:20Z</time>
      </trkpt>
      <trkpt lat="49.01115" lon="2.01982">
        <ele>102</ele>
        <time>2022-04-14T15:07:25Z</time>
      </trkpt>
      <trkpt lat="49.01111" lon="2.01973">
        <ele>102</ele>
        <time>2022-04-14T15:07:31Z</time>
      </trkpt>
      <trkpt lat="49.01108" lon="2.01965">
        <ele>102</ele>
        <time>2022-04-14T15:07:36Z</time>
      </trkpt>
      <trkpt lat="49.01104" lon="2.01956">
        <ele>102.2</ele>
        <time>2022-04-14T15:07:41Z</time>
      </trkpt>
      <trkpt lat="49.01099" lon="2.01947">
        <ele>102.4</ele>
        <time>2022-04-14T15:07:47Z</time>
      </trkpt>
      <trkpt lat="49.01096" lon="2.01939">
        <ele>102.7</ele>
        <time>2022-04-14T15:07:52Z</time>
      </trkpt>
      <trkpt lat="49.01092" lon="2.01931">
        <ele>103.2</ele>
        <time>2022-04-14T15:07:57Z</time>
      </trkpt>
      <trkpt lat="49.01086" lon="2.01921">
        <ele>103.7</ele>
        <time>2022-04-14T15:08:03Z</time>
      </trkpt>
      <trkpt lat="49.01082" lon="2.01911">
        <ele>104</ele>
        <time>2022-04-14T15:08:09Z</time>
      </trkpt>
      <trkpt lat="49.01079" lon="2.01904">
        <ele>104</ele>
        <time>2022-04-14T15:08:14Z</time>
      </trkpt>
      <trkpt lat="49.01075" lon="2.01896">
        <ele>104</ele>
        <time>2022-04-14T15:08:20Z</time>
      </trkpt>
      <trkpt lat="49.01072" lon="2.01888">
        <ele>104</ele>
        <time>2022-04-14T15:08:25Z</time>
      </trkpt>
      <trkpt lat="49.01067" lon="2.01878">
        <ele>104.2</ele>
        <time>2022-04-14T15:08:31Z</time>
      </trkpt>
      <trkpt lat="49.01063" lon="2.01869">
        <ele>104.5</ele>
        <time>2022-04-14T15:08:37Z</time>
      </trkpt>
      <trkpt lat="49.01058" lon="2.0186">
        <ele>104.9</ele>
        <time>2022-04-14T15:08:43Z</time>
      </trkpt>
      <trkpt lat="49.01055" lon="2.01852">
        <ele>105.3</ele>
        <time>2022-04-14T15:08:48Z</time>
      </trkpt>
      <trkpt lat="49.0105" lon="2.01842">
        <ele>105.7</ele>
        <time>2022-04-14T15:08:54Z</time>
      </trkpt>
      <trkpt lat="49.01046" lon="2.01832">
        <ele>106</ele>
        <time>2022-04-14T15:09:00Z</time>
      </trkpt>
      <trkpt lat="49.01042" lon="2.01822">
        <ele>106.2</ele>
        <time>2022-04-14T15:09:06Z</time>
      </trkpt>
      <trkpt lat="49.01036" lon="2.0181">
        <ele>106.6</ele>
        <time>2022-04-14T15:09:12Z</time>
      </trkpt>
      <trkpt lat="49.01031" lon="2.01801">
        <ele>107.1</ele>
        <time>2022-04-14T15:09:18Z</time>
      </trkpt>
      <trkpt lat="49.01026" lon="2.01791">
        <ele>107.6</ele>
        <time>2022-04-14T15:09:24Z</time>
      </trkpt>
      <trkpt lat="49.01021" lon="2.01782">
        <ele>108.1</ele>
        <time>2022-04-14T15:09:30Z</time>
      </trkpt>
      <trkpt lat="49.01016" lon="2.01774">
        <ele>108.5</ele>
        <time>2022-04-14T15:09:35Z</time>
      </trkpt>
      <trkpt lat="49.01009" lon="2.01765">
        <ele>109.1</ele>
        <time>2022-04-14T15:09:41Z</time>
      </trkpt>
      <trkpt lat="49.01003" lon="2.01759">
        <ele>109.6</ele>
        <time>2022-04-14T15:09:47Z</time>
      </trkpt>
      <trkpt lat="49.00996" lon="2.01755">
        <ele>109.8</ele>
        <time>2022-04-14T15:09:53Z</time>
      </trkpt>
      <trkpt lat="49.00989" lon="2.01751">
        <ele>110</ele>
        <time>2022-04-14T15:09:58Z</time>
      </trkpt>
      <trkpt lat="49.00984" lon="2.01751">
        <ele>109.9</ele>
        <time>2022-04-14T15:10:03Z</time>
      </trkpt>
      <trkpt lat="49.00977" lon="2.01747">
        <ele>110</ele>
        <time>2022-04-14T15:10:09Z</time>
      </trkpt>
      <trkpt lat="49.0097" lon="2.01744">
        <ele>110</ele>
        <time>2022-04-14T15:10:14Z</time>
      </trkpt>
      <trkpt lat="49.00963" lon="2.01741">
        <ele>110.1</ele>
        <time>2022-04-14T15:10:20Z</time>
      </trkpt>
      <trkpt lat="49.00957" lon="2.01739">
        <ele>110.2</ele>
        <time>2022-04-14T15:10:25Z</time>
      </trkpt>
      <trkpt lat="49.00951" lon="2.01735">
        <ele>110.4</ele>
        <time>2022-04-14T15:10:31Z</time>
      </trkpt>
      <trkpt lat="49.00944" lon="2.0173">
        <ele>110.7</ele>
        <time>2022-04-14T15:10:37Z</time>
      </trkpt>
      <trkpt lat="49.00936" lon="2.01724">
        <ele>110.9</ele>
        <time>2022-04-14T15:10:43Z</time>
      </trkpt>
      <trkpt lat="49.00928" lon="2.01714">
        <ele>111.2</ele>
        <time>2022-04-14T15:10:49Z</time>
      </trkpt>
      <trkpt lat="49.00922" lon="2.01707">
        <ele>111.4</ele>
        <time>2022-04-14T15:10:54Z</time>
      </trkpt>
      <trkpt lat="49.00915" lon="2.01699">
        <ele>111.9</ele>
        <time>2022-04-14T15:11:00Z</time>
      </trkpt>
      <trkpt lat="49.00907" lon="2.01692">
        <ele>112</ele>
        <time>2022-04-14T15:11:06Z</time>
      </trkpt>
      <trkpt lat="49.00902" lon="2.01683">
        <ele>112.2</ele>
        <time>2022-04-14T15:11:12Z</time>
      </trkpt>
      <trkpt lat="49.009" lon="2.01678">
        <ele>112.4</ele>
        <time>2022-04-14T15:11:17Z</time>
      </trkpt>
      <trkpt lat="49.00897" lon="2.01673">
        <ele>112.6</ele>
        <time>2022-04-14T15:11:23Z</time>
      </trkpt>
      <trkpt lat="49.0089" lon="2.0166">
        <ele>113</ele>
        <time>2022-04-14T15:11:29Z</time>
      </trkpt>
      <trkpt lat="49.00884" lon="2.0165">
        <ele>113.1</ele>
        <time>2022-04-14T15:11:34Z</time>
      </trkpt>
      <trkpt lat="49.0088" lon="2.01646">
        <ele>113.2</ele>
        <time>2022-04-14T15:11:39Z</time>
      </trkpt>
      <trkpt lat="49.00875" lon="2.01637">
        <ele>113.5</ele>
        <time>2022-04-14T15:11:45Z</time>
      </trkpt>
      <trkpt lat="49.00868" lon="2.01623">
        <ele>113.9</ele>
        <time>2022-04-14T15:11:51Z</time>
      </trkpt>
      <trkpt lat="49.00864" lon="2.01617">
        <ele>114</ele>
        <time>2022-04-14T15:11:57Z</time>
      </trkpt>
      <trkpt lat="49.00858" lon="2.01605">
        <ele>114.3</ele>
        <time>2022-04-14T15:12:03Z</time>
      </trkpt>
      <trkpt lat="49.00851" lon="2.01597">
        <ele>114.9</ele>
        <time>2022-04-14T15:12:09Z</time>
      </trkpt>
      <trkpt lat="49.00846" lon="2.01591">
        <ele>115.3</ele>
        <time>2022-04-14T15:12:15Z</time>
      </trkpt>
      <trkpt lat="49.00843" lon="2.01583">
        <ele>115.7</ele>
        <time>2022-04-14T15:12:20Z</time>
      </trkpt>
      <trkpt lat="49.00837" lon="2.01573">
        <ele>115.9</ele>
        <time>2022-04-14T15:12:26Z</time>
      </trkpt>
      <trkpt lat="49.00829" lon="2.01563">
        <ele>116.1</ele>
        <time>2022-04-14T15:12:32Z</time>
      </trkpt>
      <trkpt lat="49.00824" lon="2.01557">
        <ele>116.3</ele>
        <time>2022-04-14T15:12:38Z</time>
      </trkpt>
      <trkpt lat="49.00821" lon="2.01553">
        <ele>116.6</ele>
        <time>2022-04-14T15:12:43Z</time>
      </trkpt>
      <trkpt lat="49.00818" lon="2.01548">
        <ele>116.9</ele>
        <time>2022-04-14T15:12:48Z</time>
      </trkpt>
      <trkpt lat="49.00812" lon="2.01546">
        <ele>117.2</ele>
        <time>2022-04-14T15:12:54Z</time>
      </trkpt>
      <trkpt lat="49.00806" lon="2.01544">
        <ele>117.4</ele>
        <time>2022-04-14T15:12:59Z</time>
      </trkpt>
      <trkpt lat="49.00802" lon="2.01545">
        <ele>117.6</ele>
        <time>2022-04-14T15:13:04Z</time>
      </trkpt>
      <trkpt lat="49.00795" lon="2.01545">
        <ele>117.9</ele>
        <time>2022-04-14T15:13:09Z</time>
      </trkpt>
      <trkpt lat="49.00786" lon="2.01549">
        <ele>118.1</ele>
        <time>2022-04-14T15:13:15Z</time>
      </trkpt>
      <trkpt lat="49.00781" lon="2.01552">
        <ele>118.1</ele>
        <time>2022-04-14T15:13:20Z</time>
      </trkpt>
      <trkpt lat="49.00775" lon="2.01553">
        <ele>118.3</ele>
        <time>2022-04-14T15:13:26Z</time>
      </trkpt>
      <trkpt lat="49.00772" lon="2.01554">
        <ele>118.4</ele>
        <time>2022-04-14T15:13:31Z</time>
      </trkpt>
    </trkseg>
  </trk>
</gpx>